[[{"header":{"parameterUnit":"m.s-1","parameterCategory":1,"la1":30.6,"la2":29.2853,"lo1":-89.7004,"lo2":-87.6739,"dy":0.0162,"dx":0.0183,"nx":112,"ny":82,"refTime":"2025-08-17T06:00:00:Z","depth":0,"parameterNumber":2,"parameterNumberName":"U-component_of_WINDS"},"data":[0.0,0.0,0.0,0.0,0.0,0.0,0.0,0.0,0.0,0.0,0.0,0.0,0.0,0.0,0.0,0.0,0.0,0.0,0.0,0.0,0.0,0.0,0.0,0.0,0.0,0.0,0.0,0.0,0.0,0.0,0.0,0.0,0.0,0.0,0.0,0.0,0.0,0.0,0.0,0.0,0.0,0.0,0.0,0.0,0.0,0.0,0.0,0.0,0.0,0.0,0.0,0.0,0.0,0.0,0.0,0.0,0.0,0.0,0.0,0.0,0.0,0.0,0.0,0.0,0.0,0.0,0.0,0.0,0.0,0.0,0.0,0.0,0.0,0.0,0.0,0.0,0.0,0.0,0.0,0.0,0.0,0.0,0.0,0.0,0.0,0.0,0.0,0.0,0.0,0.0,-2.8245,-2.9171,-2.9883,-3.0292,-3.0292,-3.0207,-2.967,-2.8567,0.0,0.0,0.0,0.0,0.0,0.0,0.0,0.0,0.0,0.0,0.0,0.0,0.0,0.0,0.0,0.0,0.0,0.0,0.0,0.0,0.0,0.0,0.0,0.0,0.0,0.0,0.0,0.0,0.0,0.0,0.0,0.0,0.0,0.0,0.0,0.0,0.0,0.0,0.0,0.0,0.0,0.0,0.0,0.0,0.0,0.0,0.0,0.0,0.0,0.0,0.0,0.0,0.0,0.0,0.0,0.0,0.0,0.0,0.0,0.0,0.0,0.0,0.0,0.0,0.0,0.0,0.0,0.0,0.0,0.0,0.0,0.0,0.0,0.0,0.0,0.0,0.0,0.0,0.0,0.0,0.0,0.0,0.0,0.0,0.0,0.0,0.0,0.0,0.0,0.0,0.0,0.0,0.0,0.0,0.0,0.0,0.0,0.0,0.0,0.0,0.0,0.0,0.0,0.0,-2.8403,-2.9939,-3.0241,-3.0292,-3.0292,-3.0094,-2.9273,-2.7698,0.0,0.0,0.0,0.0,0.0,0.0,0.0,0.0,0.0,0.0,0.0,0.0,0.0,0.0,0.0,0.0,0.0,0.0,0.0,0.0,0.0,0.0,0.0,0.0,0.0,0.0,0.0,0.0,0.0,0.0,0.0,0.0,0.0,0.0,0.0,0.0,0.0,0.0,0.0,0.0,0.0,0.0,0.0,0.0,0.0,0.0,0.0,0.0,0.0,0.0,0.0,0.0,0.0,0.0,0.0,0.0,0.0,0.0,0.0,0.0,0.0,0.0,0.0,0.0,0.0,0.0,0.0,0.0,0.0,0.0,0.0,0.0,0.0,0.0,0.0,0.0,0.0,0.0,0.0,0.0,0.0,0.0,0.0,0.0,0.0,0.0,0.0,0.0,0.0,0.0,0.0,0.0,0.0,0.0,0.0,0.0,0.0,0.0,0.0,0.0,0.0,0.0,0.0,-2.7804,-2.8394,-3.0112,-3.026,-3.024,-3.0253,-3.003,-2.9153,-2.7406,-2.7554,0.0,0.0,0.0,0.0,0.0,0.0,0.0,0.0,0.0,0.0,0.0,0.0,0.0,0.0,0.0,0.0,0.0,0.0,0.0,0.0,0.0,0.0,0.0,0.0,0.0,0.0,0.0,0.0,0.0,0.0,0.0,0.0,0.0,0.0,0.0,0.0,0.0,0.0,0.0,0.0,0.0,0.0,0.0,0.0,0.0,0.0,0.0,0.0,0.0,0.0,0.0,0.0,0.0,0.0,0.0,0.0,0.0,0.0,0.0,0.0,0.0,0.0,0.0,0.0,0.0,0.0,0.0,0.0,0.0,0.0,0.0,0.0,0.0,0.0,0.0,0.0,0.0,0.0,0.0,0.0,0.0,0.0,0.0,0.0,0.0,0.0,0.0,0.0,0.0,0.0,0.0,0.0,0.0,0.0,0.0,0.0,0.0,0.0,0.0,0.0,0.0,0.0,-2.8478,-2.8798,-3.0126,-3.0194,-3.0138,-3.0133,-2.9731,-2.8812,-2.7242,-2.6749,0.0,0.0,0.0,0.0,0.0,0.0,0.0,0.0,0.0,0.0,0.0,0.0,0.0,0.0,0.0,0.0,0.0,0.0,0.0,0.0,0.0,0.0,0.0,0.0,0.0,0.0,0.0,0.0,0.0,0.0,0.0,0.0,0.0,0.0,0.0,0.0,0.0,0.0,0.0,0.0,0.0,0.0,0.0,0.0,0.0,0.0,0.0,0.0,0.0,0.0,0.0,0.0,0.0,0.0,0.0,0.0,0.0,0.0,0.0,0.0,0.0,0.0,0.0,0.0,0.0,0.0,0.0,0.0,0.0,0.0,0.0,0.0,0.0,0.0,0.0,0.0,0.0,0.0,0.0,0.0,0.0,0.0,0.0,0.0,0.0,0.0,0.0,0.0,0.0,0.0,0.0,0.0,0.0,0.0,0.0,0.0,0.0,0.0,0.0,0.0,0.0,0.0,-2.9098,-3.0073,-3.0202,-3.0037,-2.9927,-2.9927,-2.8875,-2.7847,-2.6972,-2.604,0.0,0.0,0.0,0.0,0.0,0.0,0.0,0.0,0.0,0.0,0.0,0.0,0.0,0.0,0.0,0.0,0.0,0.0,0.0,0.0,0.0,0.0,0.0,0.0,0.0,0.0,0.0,0.0,0.0,0.0,0.0,0.0,0.0,0.0,0.0,0.0,0.0,0.0,0.0,0.0,0.0,0.0,0.0,0.0,0.0,0.0,0.0,0.0,0.0,0.0,0.0,0.0,0.0,0.0,0.0,0.0,0.0,0.0,0.0,0.0,0.0,0.0,0.0,0.0,0.0,0.0,0.0,0.0,0.0,0.0,0.0,0.0,0.0,0.0,0.0,0.0,0.0,0.0,0.0,0.0,0.0,0.0,0.0,0.0,0.0,0.0,0.0,0.0,0.0,0.0,0.0,0.0,0.0,0.0,0.0,0.0,0.0,0.0,0.0,0.0,0.0,0.0,-2.8541,-2.9376,-2.9845,-2.9784,-2.9696,-2.9696,-2.9175,-2.8292,-2.6972,0.0,0.0,0.0,0.0,0.0,0.0,0.0,0.0,0.0,0.0,0.0,0.0,0.0,0.0,0.0,0.0,0.0,0.0,0.0,0.0,0.0,0.0,0.0,0.0,0.0,0.0,0.0,0.0,0.0,0.0,0.0,0.0,0.0,0.0,0.0,0.0,0.0,0.0,0.0,0.0,0.0,0.0,0.0,0.0,0.0,0.0,0.0,0.0,0.0,0.0,0.0,0.0,0.0,0.0,0.0,0.0,0.0,0.0,0.0,0.0,0.0,0.0,0.0,0.0,0.0,0.0,0.0,0.0,0.0,0.0,0.0,0.0,0.0,0.0,0.0,0.0,0.0,0.0,0.0,0.0,0.0,0.0,0.0,0.0,0.0,0.0,0.0,0.0,0.0,0.0,0.0,0.0,0.0,0.0,0.0,0.0,0.0,0.0,0.0,0.0,0.0,0.0,-2.7308,-2.8269,-2.911,-2.9624,-2.957,-2.9494,-2.9494,-2.9091,-2.8264,-2.6894,0.0,0.0,0.0,0.0,0.0,0.0,0.0,0.0,0.0,0.0,0.0,0.0,0.0,0.0,0.0,0.0,0.0,0.0,0.0,0.0,0.0,0.0,0.0,0.0,0.0,0.0,0.0,0.0,0.0,0.0,0.0,0.0,0.0,0.0,0.0,0.0,0.0,0.0,0.0,0.0,0.0,0.0,0.0,0.0,0.0,0.0,0.0,0.0,0.0,0.0,0.0,0.0,0.0,0.0,0.0,0.0,0.0,0.0,0.0,0.0,0.0,0.0,0.0,0.0,0.0,0.0,0.0,0.0,0.0,0.0,0.0,0.0,0.0,0.0,0.0,0.0,0.0,0.0,0.0,0.0,0.0,0.0,0.0,0.0,0.0,0.0,0.0,0.0,0.0,0.0,0.0,0.0,0.0,0.0,0.0,0.0,0.0,0.0,0.0,0.0,0.0,0.0,-2.7111,-2.8575,-2.9608,-2.9589,-2.9415,-2.9293,-2.9293,-2.8399,-2.7475,0.0,0.0,0.0,0.0,0.0,0.0,0.0,0.0,0.0,0.0,0.0,0.0,0.0,0.0,0.0,0.0,0.0,0.0,0.0,0.0,0.0,0.0,0.0,0.0,0.0,0.0,0.0,0.0,0.0,0.0,0.0,0.0,0.0,0.0,0.0,0.0,0.0,0.0,0.0,0.0,0.0,0.0,0.0,0.0,0.0,0.0,0.0,0.0,0.0,0.0,0.0,0.0,0.0,0.0,0.0,0.0,0.0,0.0,0.0,0.0,0.0,0.0,0.0,0.0,0.0,0.0,0.0,0.0,0.0,0.0,0.0,0.0,0.0,0.0,0.0,0.0,0.0,0.0,0.0,0.0,0.0,0.0,0.0,0.0,0.0,0.0,0.0,0.0,0.0,0.0,0.0,0.0,0.0,0.0,0.0,0.0,0.0,0.0,0.0,0.0,0.0,0.0,0.0,-2.6916,-2.8351,-2.9334,-2.9203,-2.9115,-2.9089,-2.9089,-2.8823,-2.8062,-2.6704,0.0,0.0,0.0,0.0,0.0,0.0,0.0,0.0,0.0,0.0,0.0,0.0,0.0,0.0,0.0,0.0,0.0,0.0,0.0,0.0,0.0,0.0,0.0,0.0,0.0,0.0,0.0,0.0,0.0,0.0,0.0,0.0,0.0,0.0,0.0,0.0,0.0,0.0,0.0,0.0,0.0,0.0,0.0,0.0,0.0,0.0,0.0,0.0,0.0,0.0,0.0,0.0,0.0,0.0,0.0,0.0,0.0,0.0,0.0,0.0,0.0,0.0,0.0,0.0,0.0,0.0,0.0,0.0,0.0,0.0,0.0,0.0,0.0,0.0,0.0,0.0,0.0,0.0,0.0,0.0,0.0,0.0,0.0,0.0,0.0,0.0,0.0,0.0,0.0,0.0,0.0,0.0,0.0,0.0,0.0,0.0,0.0,0.0,0.0,0.0,0.0,0.0,-2.6743,-2.8165,-2.9138,-2.8998,-2.8994,-2.8994,-2.8994,-2.8994,-2.8274,-2.6538,0.0,0.0,0.0,0.0,0.0,0.0,0.0,0.0,0.0,0.0,0.0,0.0,0.0,0.0,0.0,0.0,0.0,0.0,0.0,0.0,0.0,0.0,0.0,0.0,0.0,0.0,0.0,0.0,0.0,0.0,0.0,0.0,0.0,0.0,0.0,0.0,0.0,0.0,0.0,0.0,0.0,0.0,0.0,0.0,0.0,0.0,0.0,0.0,0.0,0.0,0.0,0.0,0.0,0.0,0.0,0.0,0.0,0.0,0.0,0.0,0.0,0.0,0.0,0.0,0.0,0.0,0.0,0.0,0.0,0.0,0.0,0.0,0.0,0.0,0.0,0.0,0.0,0.0,0.0,0.0,0.0,0.0,0.0,0.0,0.0,0.0,0.0,0.0,0.0,0.0,0.0,0.0,0.0,0.0,0.0,0.0,0.0,0.0,0.0,0.0,0.0,0.0,-2.6612,-2.7985,-2.8994,-2.8994,-2.8994,-2.8994,-2.8994,-2.892,-2.8095,-2.6322,0.0,0.0,0.0,0.0,0.0,0.0,0.0,0.0,0.0,0.0,0.0,0.0,0.0,0.0,0.0,0.0,0.0,0.0,0.0,0.0,0.0,0.0,0.0,0.0,0.0,0.0,0.0,0.0,0.0,0.0,0.0,0.0,0.0,0.0,0.0,0.0,0.0,0.0,0.0,0.0,0.0,0.0,0.0,0.0,0.0,0.0,0.0,0.0,0.0,0.0,0.0,0.0,0.0,0.0,0.0,0.0,0.0,0.0,0.0,0.0,-3.1427,-3.1028,0.0,0.0,0.0,0.0,0.0,0.0,0.0,0.0,0.0,0.0,0.0,0.0,0.0,0.0,0.0,0.0,0.0,0.0,0.0,0.0,0.0,0.0,0.0,0.0,0.0,0.0,0.0,0.0,0.0,0.0,0.0,0.0,0.0,0.0,0.0,0.0,0.0,0.0,0.0,0.0,-2.6612,-2.7985,-2.8994,-2.8994,-2.8994,-2.8994,-2.8994,-2.8231,-2.7295,-2.6286,-2.6003,0.0,0.0,0.0,0.0,0.0,0.0,0.0,0.0,0.0,0.0,0.0,0.0,0.0,0.0,0.0,0.0,0.0,0.0,0.0,0.0,0.0,0.0,0.0,0.0,0.0,0.0,0.0,0.0,0.0,0.0,0.0,0.0,0.0,0.0,0.0,0.0,0.0,0.0,0.0,0.0,0.0,0.0,0.0,0.0,0.0,0.0,0.0,0.0,0.0,0.0,0.0,0.0,0.0,0.0,0.0,0.0,0.0,0.0,0.0,-3.227,-3.176,0.0,0.0,0.0,0.0,0.0,0.0,0.0,0.0,0.0,0.0,0.0,0.0,0.0,0.0,0.0,0.0,0.0,0.0,0.0,0.0,0.0,0.0,0.0,0.0,0.0,0.0,0.0,0.0,0.0,0.0,0.0,0.0,0.0,0.0,0.0,0.0,0.0,0.0,0.0,0.0,-2.6612,-2.7985,-2.8994,-2.8994,-2.8881,-2.8651,-2.825,-2.7598,-2.6806,-2.5868,-2.5351,0.0,0.0,0.0,0.0,0.0,0.0,0.0,0.0,0.0,0.0,0.0,0.0,0.0,0.0,0.0,0.0,0.0,0.0,0.0,0.0,0.0,0.0,0.0,0.0,0.0,0.0,0.0,0.0,0.0,0.0,0.0,0.0,0.0,0.0,0.0,0.0,0.0,0.0,0.0,0.0,0.0,0.0,0.0,0.0,0.0,0.0,0.0,0.0,0.0,0.0,0.0,0.0,0.0,-3.3699,-3.3705,-3.4332,-3.3474,-3.3405,-3.3985,-3.3144,-3.26,-3.2214,-3.1222,0.0,0.0,0.0,0.0,0.0,0.0,0.0,0.0,0.0,0.0,0.0,0.0,0.0,0.0,0.0,0.0,0.0,0.0,0.0,0.0,0.0,0.0,0.0,0.0,-3.1431,-3.1612,-3.0221,0.0,0.0,0.0,0.0,0.0,0.0,0.0,0.0,0.0,0.0,0.0,-2.6796,-2.8077,-2.8938,-2.8727,-2.8524,-2.8057,-2.72,-2.6774,-2.6135,-2.5262,-2.4576,-2.4138,0.0,0.0,0.0,0.0,0.0,0.0,0.0,0.0,0.0,0.0,0.0,0.0,0.0,0.0,0.0,0.0,0.0,0.0,0.0,0.0,0.0,0.0,0.0,0.0,0.0,0.0,0.0,0.0,0.0,0.0,0.0,0.0,-2.7026,-2.7847,0.0,0.0,0.0,0.0,0.0,0.0,0.0,0.0,0.0,0.0,0.0,0.0,0.0,-3.3924,-3.3959,-3.4824,-3.529,-3.5329,-3.5213,-3.5129,-3.507,-3.4923,-3.4734,-3.4499,-3.4365,0.0,-3.3062,-3.2061,0.0,0.0,0.0,0.0,0.0,0.0,0.0,0.0,0.0,0.0,0.0,0.0,0.0,0.0,0.0,0.0,0.0,0.0,0.0,0.0,0.0,0.0,-3.3377,-3.265,-3.3043,-3.3165,0.0,-3.0157,-2.8924,-2.7739,-2.7592,-2.7151,0.0,0.0,0.0,0.0,0.0,0.0,-2.7548,-2.8448,-2.8654,-2.77,-2.758,-2.7158,-2.6182,-2.5212,-2.4609,-2.4452,-2.4085,-2.4126,-2.4729,-2.4224,0.0,0.0,0.0,0.0,0.0,0.0,0.0,0.0,0.0,0.0,0.0,0.0,0.0,0.0,0.0,0.0,0.0,0.0,0.0,0.0,0.0,0.0,0.0,0.0,0.0,0.0,0.0,0.0,0.0,-2.6967,-2.7833,-2.8664,-2.8825,-2.871,0.0,0.0,0.0,0.0,0.0,0.0,0.0,0.0,0.0,-3.3283,-3.4051,-3.441,-3.4287,-3.5164,-3.5584,-3.556,-3.5522,-3.5388,-3.5203,-3.507,-3.487,-3.4583,-3.445,-3.4157,-3.3747,-3.2832,-3.2061,-3.1318,0.0,0.0,0.0,0.0,-2.9621,-2.986,-3.0142,-3.0286,-3.0414,-3.0679,0.0,0.0,0.0,0.0,0.0,0.0,0.0,0.0,0.0,0.0,-3.2416,-3.2631,-3.2631,-3.2348,-3.1574,-3.0387,-2.9272,-2.8608,-2.8484,-2.7824,-2.577,-2.5768,0.0,0.0,0.0,-2.7182,-2.7528,-2.7737,-2.7712,-2.7234,-2.6652,-2.5936,-2.5063,-2.441,-2.4033,-2.4033,-2.387,-2.4121,-2.4854,-2.4986,-2.4876,0.0,0.0,0.0,0.0,0.0,0.0,0.0,0.0,0.0,0.0,0.0,0.0,0.0,0.0,0.0,0.0,0.0,0.0,0.0,0.0,0.0,0.0,0.0,0.0,0.0,0.0,0.0,0.0,-2.7649,-2.8567,-2.9224,-2.9532,-2.9622,0.0,0.0,0.0,0.0,0.0,0.0,-3.1855,-3.3031,-3.3778,-3.3926,-3.4493,-3.4759,-3.4646,-3.5284,-3.5589,-3.5604,-3.5528,-3.5369,-3.5117,-3.4982,-3.4752,-3.4495,-3.4293,-3.4197,-3.4141,-3.3547,-3.3175,-3.2911,-3.1973,-3.1139,-3.043,-3.0469,-3.0214,-2.9942,-3.0665,-3.0832,-3.0772,-3.1311,-3.1308,-3.0952,-3.0377,0.0,0.0,0.0,0.0,-3.0341,-3.1518,-3.1545,-3.1354,-3.1701,-3.1528,-3.1166,-3.0914,-3.0223,-2.9564,0.0,-2.8961,-2.8111,-2.6126,-2.6271,0.0,-2.587,-2.662,-2.7349,-2.7547,-2.7394,-2.7174,-2.6943,-2.5985,-2.5068,-2.4244,-2.3779,-2.3512,-2.3512,-2.3512,-2.3915,-2.4807,-2.5232,-2.5086,-2.4377,0.0,0.0,0.0,0.0,0.0,0.0,0.0,0.0,0.0,0.0,0.0,0.0,0.0,0.0,0.0,0.0,0.0,0.0,0.0,0.0,0.0,0.0,0.0,0.0,0.0,0.0,0.0,0.0,0.0,-2.9282,-3.0025,0.0,0.0,0.0,0.0,-3.0762,-3.1621,-3.2832,-3.4414,-3.4534,-3.4895,-3.5655,-3.5648,-3.5637,-3.5626,-3.5623,-3.5601,-3.5601,-3.554,-3.5292,-3.4906,-3.4889,-3.4651,-3.4221,-3.4197,-3.4197,-3.4197,-3.416,-3.3677,-3.2966,-3.2661,-3.2001,-3.1082,-2.9844,-2.9851,-3.0327,-2.9369,-2.9523,-3.0261,-3.0981,-3.1338,-3.1507,-3.1732,-3.1119,0.0,0.0,-3.1056,-3.1444,-3.0915,-3.1272,-3.1373,-2.9909,-3.007,-3.0342,-2.9579,-2.9372,-2.9392,0.0,-2.8882,-2.7844,-2.6978,0.0,-2.6871,-2.6835,-2.6863,-2.721,-2.7969,-2.8058,-2.7699,-2.6715,-2.5895,-2.497,-2.3895,-2.3177,-2.2763,-2.2763,-2.2763,-2.3354,-2.4654,-2.4127,-2.4731,-2.6689,-2.4683,0.0,0.0,0.0,0.0,0.0,0.0,0.0,0.0,0.0,0.0,0.0,0.0,0.0,0.0,0.0,0.0,0.0,0.0,0.0,0.0,0.0,0.0,0.0,0.0,0.0,0.0,0.0,0.0,-3.0008,-3.0384,0.0,-3.0249,-3.0548,-3.0774,-3.0898,-3.1719,-3.2461,-3.3066,-3.3519,-3.3882,-3.4174,-3.4087,-3.404,-3.404,-3.4552,-3.4823,-3.4823,-3.4667,-3.4726,-3.4943,-3.4264,-3.3736,-3.3454,-3.3974,-3.3603,-3.2692,-3.3213,-3.3547,-3.3703,-3.3241,-3.2865,-3.2472,-3.1613,-3.1147,-3.0917,-3.0507,-3.0264,-3.0229,-3.0949,-3.1528,-3.1966,-3.2047,-3.1833,-3.1532,-3.1464,-3.128,-3.111,-3.1036,-3.0464,-2.9779,-2.9436,-2.914,-2.888,-2.8584,-2.839,-2.8293,-2.8426,-2.8261,-2.7852,-2.7032,-2.7326,-2.7326,-2.6328,-2.6499,-2.6816,-2.7081,-2.6525,-2.6144,-2.6254,-2.5594,-2.4982,-2.4591,-2.3839,-2.3409,-2.3409,-2.3409,-2.3577,-2.3972,-2.4235,-2.4449,-2.4655,-2.4316,-2.3825,0.0,0.0,0.0,0.0,0.0,0.0,0.0,0.0,0.0,0.0,0.0,0.0,0.0,0.0,0.0,0.0,0.0,0.0,0.0,0.0,0.0,0.0,0.0,0.0,0.0,-2.912,-2.9796,-3.0047,-3.0385,-3.0637,-3.0701,-3.0711,-3.0882,-3.1308,-3.1875,-3.2324,-3.2598,-3.3054,-3.3298,-3.3298,-3.3175,-3.3102,-3.3102,-3.3673,-3.3963,-3.3963,-3.3763,-3.3834,-3.4124,-3.3317,-3.2828,-3.2618,-3.3157,-3.2785,-3.1838,-3.2377,-3.285,-3.3235,-3.2984,-3.2834,-3.2667,-3.1918,-3.1107,-3.0422,-3.0422,-3.044,-3.0562,-3.1036,-3.1653,-3.2179,-3.2179,-3.2073,-3.1913,-3.1582,-3.115,-3.0681,-3.0334,-2.947,-2.8657,-2.8629,-2.8217,-2.7811,-2.7811,-2.7701,-2.7569,-2.7569,-2.7701,-2.7653,-2.713,-2.7494,-2.7388,-2.61,-2.6198,-2.633,-2.6085,-2.5669,-2.5557,-2.6057,-2.5661,-2.5367,-2.5367,-2.4419,-2.3908,-2.4195,-2.3702,-2.3567,-2.3967,-2.4176,-2.4134,-2.3765,-2.4269,-2.3941,-2.2845,0.0,0.0,0.0,0.0,0.0,0.0,0.0,0.0,0.0,0.0,0.0,0.0,0.0,0.0,0.0,0.0,0.0,0.0,0.0,0.0,0.0,0.0,0.0,-2.6843,-2.8897,-3.02,-2.9429,-3.0085,-3.0637,-3.0701,-3.0691,-3.1116,-3.209,-3.2168,-3.25,-3.3281,-3.3269,-3.322,-3.322,-3.3098,-3.3024,-3.3024,-3.3044,-3.3063,-3.3063,-3.2852,-3.2656,-3.2504,-3.2185,-3.1946,-3.1745,-3.1782,-3.1764,-3.1727,-3.1745,-3.1589,-3.1403,-3.1865,-3.1905,-3.1533,-3.0497,-2.9597,-2.8895,-2.8877,-2.986,-3.1124,-3.1124,-3.1567,-3.2073,-3.2056,-3.1913,-3.1593,-3.0871,-3.0664,-3.0266,-2.8771,-2.8395,-2.8178,-2.7471,-2.7299,-2.7299,-2.7299,-2.7299,-2.7299,-2.7299,-2.7299,-2.7282,-2.7264,-2.7247,-2.6971,-2.6161,-2.604,0.0,-2.5057,-2.5609,-2.6074,-2.6109,-2.6126,-2.6143,-2.6143,-2.4764,-2.4184,-2.4954,-2.3526,-2.3254,-2.4616,-2.393,-2.3808,-2.4458,-2.4444,-2.4271,-2.3901,0.0,0.0,0.0,0.0,0.0,0.0,0.0,0.0,0.0,0.0,0.0,0.0,0.0,0.0,0.0,0.0,0.0,0.0,0.0,0.0,0.0,-2.8954,-2.964,-2.939,-3.0023,-3.0432,-3.02,-3.0421,-3.062,-3.0682,-3.0735,-3.0901,-3.123,-3.1269,-3.1348,-3.1582,-3.1474,-3.1412,-3.1412,-3.1332,-3.1294,-3.1294,-3.1874,-3.2164,-3.2154,-3.1847,-3.1989,-3.2469,-3.1524,-3.1036,-3.0968,-3.1541,-3.1154,-3.0092,-3.0494,-3.0461,-3.0239,-3.0957,-3.106,-3.0766,-3.0286,-2.9597,-2.8825,-2.8228,-2.8684,-2.9527,-2.9527,-3.0291,-3.1133,-3.0593,-3.0681,-3.0834,-3.0058,-2.9454,-2.8936,-2.852,-2.8004,-2.754,-2.7351,-2.7299,-2.7299,-2.7299,-2.7299,-2.7299,-2.7299,-2.7299,-2.7109,-2.654,-2.6437,-2.5988,-2.4643,-2.4425,0.0,-2.4149,-2.4833,-2.5523,-2.6057,-2.6626,-2.6971,-2.6971,-2.6057,-2.5333,-2.5023,-2.458,-2.4213,-2.3915,-2.3921,-2.3847,-2.362,-2.362,-2.3586,0.0,0.0,0.0,0.0,0.0,0.0,0.0,0.0,0.0,0.0,0.0,0.0,0.0,0.0,0.0,0.0,0.0,0.0,0.0,0.0,0.0,0.0,-2.9261,-2.9987,-3.034,-3.0436,-3.0469,-3.0499,-3.0565,-3.0633,-3.0682,-3.0765,-3.0829,-3.0898,-3.0898,-3.0898,-3.0898,-3.0771,-3.0711,-3.0711,-3.0634,-3.0598,-3.0598,-3.1062,-3.1255,-3.1165,-3.0898,-3.0959,-3.1305,-3.0507,-3.0137,-3.0132,-3.0597,-3.0262,-2.9423,-2.9609,-2.9497,0.0,0.0,0.0,0.0,0.0,-2.8807,-2.8333,-2.7859,-2.8228,-2.8895,-2.8895,-2.9592,-3.0385,-2.9932,-2.9989,-3.0041,-2.9265,-2.873,-2.8334,-2.8023,-2.7609,-2.7299,-2.7299,-2.7299,-2.7299,-2.7299,-2.7299,-2.7299,-2.7299,-2.7023,0.0,-2.5596,-2.5794,-2.5592,-2.4012,-2.3788,-2.3788,-2.3788,-2.4505,-2.5281,-2.6023,-2.6816,-2.7299,-2.7299,-2.6557,0.0,0.0,0.0,-2.4286,-2.351,-2.3653,0.0,0.0,0.0,0.0,0.0,0.0,0.0,0.0,-2.6232,-2.6911,0.0,0.0,0.0,0.0,0.0,0.0,0.0,0.0,0.0,0.0,0.0,0.0,0.0,0.0,0.0,0.0,-2.9236,-2.9525,-3.0294,-3.0394,-3.0417,-3.0479,-3.0565,-3.0633,-3.0682,-3.0768,-3.0832,-3.0898,-3.0898,-3.0898,-3.0898,-3.0768,0.0,0.0,0.0,-3.0598,-3.0598,-3.0598,-3.051,-3.0294,-3.0098,-2.9893,-2.9696,-2.9494,-2.9411,-2.9407,-2.9407,-2.9386,-2.9326,-2.9048,-2.8737,-2.8474,-2.8915,-2.8977,-2.8684,-2.7964,-2.7701,-2.7701,-2.7701,0.0,0.0,-2.8754,-2.9173,-2.9654,-2.9567,-2.9451,-2.923,-2.8489,-2.8282,-2.8127,-2.7471,-2.7299,-2.7299,-2.7299,-2.7299,-2.7299,-2.7299,-2.7299,-2.7264,-2.7178,-2.6592,-2.5743,-2.4628,-2.5189,-2.5321,-2.379,-2.3595,-2.3595,-2.3567,-2.4253,-2.5055,-2.5764,0.0,0.0,-2.7169,-2.6502,-2.6364,-2.7014,-2.524,-2.3968,-2.3519,-2.3484,-2.3787,-2.4473,-2.4489,-2.4978,-2.5932,-2.6026,-2.6233,-2.6548,-2.7655,-2.7778,0.0,0.0,0.0,0.0,0.0,0.0,0.0,0.0,0.0,0.0,0.0,0.0,0.0,0.0,0.0,-3.004,-3.016,-3.0217,-3.0379,-3.041,-3.0402,-3.0417,-3.0568,-3.0695,-3.0691,-3.0801,-3.0898,-3.0898,-3.0898,-3.0878,-3.0827,-3.0735,-3.0691,-3.062,-3.0621,-3.0598,-3.0598,-3.0598,-3.051,-3.0294,0.0,0.0,-2.9696,-2.9494,-2.9411,-2.9407,-2.9407,-2.9283,-2.9048,-2.8737,-2.8298,-2.7858,-2.7977,-2.7988,-2.7912,-2.7754,-2.7701,-2.7701,-2.7701,-2.7789,-2.7929,-2.7929,-2.8334,-2.8731,-2.8122,-2.8256,0.0,-2.7713,-2.7506,-2.7471,-2.7333,-2.7299,-2.7299,-2.7299,-2.7299,-2.7299,-2.7299,-2.7299,-2.7109,-2.6471,-2.6212,-2.5631,-2.4196,-2.4104,-2.3785,-2.2379,-2.2372,-2.2429,-2.2216,-2.2839,-2.3558,-2.4261,-2.5063,-2.5731,-2.6282,-2.6182,-2.5914,-2.548,-2.4909,-2.4623,-2.4738,-2.4662,-2.476,-2.5113,-2.5129,-2.5474,-2.6207,-2.6839,-2.7149,-2.7226,-2.7217,-2.7492,0.0,0.0,0.0,0.0,0.0,0.0,0.0,0.0,0.0,0.0,0.0,-2.903,-2.9749,0.0,-2.997,-3.0344,-3.0025,-2.9756,-2.9756,-2.941,-2.9459,-3.0301,-3.0554,-3.0665,-3.0706,-3.0794,-3.0857,-3.0898,-3.0898,-3.0898,-3.0855,-3.0742,-3.0677,-3.065,-3.0618,-3.0598,-3.0598,-3.0598,-3.051,-3.0294,-3.0125,-2.9924,-2.9696,-2.9532,-2.9431,-2.9407,-2.9407,-2.9262,-2.8957,-2.8496,-2.8075,-2.7701,-2.7701,-2.7701,-2.7701,-2.7701,-2.7701,-2.7701,-2.7701,-2.7701,-2.7701,-2.7701,-2.7844,-2.7983,-2.76,-2.765,-2.7764,-2.7402,-2.7299,-2.7299,-2.7299,-2.7299,-2.7299,-2.7299,-2.7299,-2.7299,-2.7299,-2.6971,-2.6695,-2.6695,-2.5764,-2.4775,-2.4235,-2.3635,-2.2963,-2.2135,-2.1998,-2.2074,-2.2338,-2.2656,-2.3303,-2.4381,-2.4862,-2.5376,-2.6038,-2.6104,-2.5796,-2.5127,-2.5001,-2.4862,-2.4695,-2.4655,-2.4818,-2.5302,-2.5318,-2.5826,-2.6857,-2.7226,-2.7565,-2.7904,-2.7767,-2.7921,0.0,0.0,0.0,0.0,0.0,0.0,0.0,-2.6611,-2.7123,-2.8439,-2.9028,-2.9447,-2.9921,-3.0102,-3.0106,-2.9948,-2.9333,-2.8871,-2.8871,-2.8313,-2.8343,-2.952,-2.9911,-3.0183,-3.0422,-3.0505,-3.0655,-3.0879,-3.0898,-3.0898,-3.0878,-3.0768,-3.0687,-3.0677,-3.0626,-3.0598,-3.0598,-3.0559,-3.046,-3.0259,-3.0136,-2.9931,-2.968,-2.9551,-2.9471,-2.9388,-2.9265,-2.9093,-2.8868,-2.8264,-2.7897,-2.7701,-2.7701,-2.7701,-2.7701,-2.7701,-2.7701,-2.7701,-2.7701,-2.7701,-2.7701,-2.7701,-2.76,-2.7496,-2.7496,-2.7421,-2.7299,-2.7299,-2.7299,-2.7299,-2.7299,-2.7299,-2.7299,-2.7299,-2.7299,-2.7299,-2.7299,-2.6799,-2.6488,-2.6971,-2.5436,-2.411,-2.4275,-2.3312,-2.2409,-2.2068,-2.1882,-2.1966,-2.2435,-2.247,-2.3046,-2.451,-2.4674,-2.502,-2.5822,-2.5888,-2.5668,-2.5114,-2.5075,-2.4839,-2.4302,-2.4302,-2.4687,-2.5503,-2.5518,-2.6211,-2.7596,-2.7596,-2.7873,-2.8411,-2.8411,-2.8411,-2.3608,-2.3232,-2.3109,-2.4619,-2.4495,-2.4245,0.0,-2.606,-2.6685,-2.6939,-2.8216,-2.9074,-2.8326,-2.882,-2.9081,-2.8315,-2.8102,-2.8025,-2.8025,-2.7948,-2.7678,-2.7082,-2.7765,-2.8611,-2.9458,-2.9608,-2.9993,-3.084,-3.0898,-3.0878,-3.0806,-3.0735,-3.0667,-3.0607,-3.0593,-3.0598,-3.0598,-3.043,-3.0259,-3.0117,-2.9996,-2.9805,-2.9608,-2.9531,-2.9453,-2.9372,-2.8837,-2.8578,-2.8504,-2.7982,-2.773,-2.7701,-2.7701,-2.7701,-2.7701,-2.7701,-2.7701,-2.7701,-2.7701,-2.7701,-2.7701,-2.7701,-2.76,-2.7496,-2.7496,-2.7421,-2.7299,-2.7299,-2.7299,-2.7299,-2.7299,-2.7299,-2.7299,-2.7299,-2.7299,-2.7299,-2.7299,-2.723,-2.6971,-2.6368,-2.5505,-2.4574,-2.3667,-2.261,-2.1781,-2.1448,-2.1648,-2.1603,-2.1086,-2.1037,-2.1577,-2.2976,-2.3135,-2.3676,-2.4996,-2.5107,-2.4989,-2.471,-2.467,-2.4549,-2.4302,-2.4302,-2.4918,-2.6135,-2.6257,-2.6934,-2.8288,-2.8288,-2.8334,-2.8411,-2.8411,-2.8411,-2.0962,-2.1986,-2.2861,-2.329,-2.3404,-2.3666,-2.4708,-2.5282,-2.5742,-2.6197,-2.7344,-2.8099,-2.7599,-2.7471,-2.7496,-2.7599,-2.6878,-2.6324,-2.6285,-2.5936,-2.5736,-2.5832,-2.6216,-2.7048,-2.849,-2.9589,-3.0389,-3.0859,-3.0898,-3.0877,-3.0801,-3.0732,-3.0667,-3.06,-3.0593,-3.0598,-3.0598,-3.04,-3.0271,-3.0209,-3.0011,-2.9839,-2.9717,-2.957,-2.9453,-2.937,-2.8766,-2.8504,-2.8478,-2.7926,-2.7701,-2.7701,-2.7701,-2.7701,-2.7701,-2.7701,-2.7701,-2.7701,-2.7701,-2.7701,-2.7701,-2.7701,-2.76,-2.7496,-2.7496,-2.7421,-2.7299,-2.7299,-2.7299,-2.7299,-2.7299,-2.7299,-2.7299,-2.7299,-2.7299,-2.7218,-2.699,-2.6599,-2.6213,-2.6117,-2.5125,-2.4185,-2.3758,-2.2953,-2.2125,-2.1405,-2.123,-2.1103,-2.0827,-2.0794,-2.1298,-2.2634,-2.3607,-2.4295,-2.4744,-2.4926,-2.4846,-2.4564,-2.4589,-2.4508,-2.4302,-2.4302,-2.4764,-2.5718,-2.5749,-2.6441,-2.7811,-2.7426,-2.7642,-2.8396,-2.7996,-2.8027,-1.9077,-2.0413,-2.1388,-2.181,-2.2057,-2.2508,-2.3624,-2.3988,-2.4241,-2.4791,-2.5882,-2.6645,-2.6273,-2.6199,-2.6294,-2.6664,-2.5811,-2.5099,-2.5103,-2.4473,-2.4341,-2.5207,-2.5572,-2.6346,-2.7923,-2.9445,-3.0508,-3.0879,-3.0898,-3.0761,-3.0478,-3.0388,-3.0224,-2.994,-2.9904,-2.9998,-3.023,-3.0021,-3.0016,-3.0247,-2.9981,-2.9823,-2.9751,-2.9513,-2.9351,-2.9262,-2.8646,-2.8402,-2.835,-2.7897,-2.7701,-2.7701,-2.7701,-2.7701,-2.7701,-2.7701,-2.7701,-2.7701,-2.7701,-2.7701,-2.7701,-2.7701,-2.763,-2.7526,-2.7496,-2.7421,-2.7313,-2.7299,-2.7218,-2.7137,-2.7137,-2.7055,-2.6957,-2.6957,-2.6957,-2.6875,-2.6624,-2.6068,-2.5765,-2.6023,-2.5043,-2.405,-2.3836,-2.3177,-2.2327,-2.1311,-2.0958,-2.0794,-2.0794,-2.1126,-2.1708,-2.2645,-2.4052,-2.4846,-2.467,-2.4806,-2.4766,-2.4498,-2.4564,-2.4467,-2.4302,-2.4302,-2.4625,-2.5302,-2.5318,-2.5995,-2.7396,-2.6903,-2.7272,-2.8396,-2.7904,-2.7934,-1.8718,-1.8508,-1.8142,-2.0528,-2.0552,-2.0318,-2.1522,-2.1937,-2.2096,-2.2118,-2.3577,-2.4648,-2.3855,-2.5031,-2.5854,-2.511,-2.494,-2.4936,-2.5072,-2.4358,-2.4173,-2.5178,-2.6054,-2.6938,-2.7903,-2.8868,-2.9842,-3.0839,-3.0898,-3.0527,-2.9687,-2.9503,-2.907,-2.8305,-2.8151,-2.847,-2.9321,-2.9013,-2.9268,-3.0089,-2.9841,-2.972,-2.9683,-2.9293,-2.9079,-2.898,-2.8368,-2.8112,-2.8102,-2.7829,-2.7701,-2.7701,-2.7701,-2.7701,-2.7701,-2.7701,-2.7701,-2.7701,-2.7701,-2.7701,-2.7701,-2.7701,-2.7659,-2.7587,-2.7526,-2.7452,-2.7376,-2.733,-2.7023,-2.6725,-2.6725,-2.6436,-2.6139,-2.6139,-2.6139,-2.6123,-2.6139,-2.6106,-2.6106,-2.6087,-2.5473,-2.4643,-2.3681,-2.2848,-2.1955,-2.0955,-2.0794,-2.0794,-2.0794,-2.1979,-2.2833,-2.288,-2.4029,-2.4782,-2.4782,-2.4686,-2.4564,-2.4498,-2.4498,-2.4457,-2.4302,-2.4302,-2.4625,-2.5302,-2.5318,-2.5995,-2.7396,-2.738,-2.7719,-2.8411,-2.8381,-2.8381,-1.4739,-1.5556,-1.6346,-1.7762,-1.791,-1.8058,-1.9345,-1.9686,-1.9919,-2.0535,-2.2009,-2.3106,-2.2794,-2.3381,-2.417,-2.4968,-2.4463,-2.4172,-2.4695,-2.4715,-2.5,-2.5926,-2.6877,-2.8039,-2.9519,-3.0017,-3.0412,-3.081,-3.0878,-3.0507,-2.9581,-2.9452,-2.9017,-2.8157,-2.8051,-2.815,-2.8431,-2.8149,-2.8414,-2.9235,-2.9559,-2.9683,-2.9626,-2.9272,-2.906,-2.8966,-2.835,-2.8102,-2.8075,-2.7829,-2.7701,-2.7701,-2.7701,-2.7701,-2.7701,-2.7701,-2.7701,-2.7701,-2.7701,-2.7701,-2.7701,-2.7701,-2.763,-2.7526,-2.7496,-2.7421,-2.7282,-2.699,-2.6808,-2.6657,-2.635,-2.621,-2.6104,-2.6104,-2.6104,-2.6016,-2.5762,-2.5689,-2.5631,-2.5422,-2.4783,-2.4003,-2.3243,-2.2521,-2.1752,-2.0922,-2.0794,-2.0794,-2.0794,-2.2011,-2.288,-2.2791,-2.3974,-2.4742,-2.462,-2.4605,-2.4508,-2.4359,-2.4457,-2.4457,-2.4302,-2.4302,-2.441,-2.4641,-2.4656,-2.5333,-2.6734,-2.6257,-2.6842,-2.8396,-2.7934,-2.798,-1.1265,-1.2582,-1.3795,-1.4727,-1.5133,-1.5594,-1.671,-1.7334,-1.7912,-1.8608,-2.0398,-2.1822,-2.1804,-2.2558,-2.3593,-2.482,-2.4542,-2.442,-2.5201,-2.528,-2.5777,-2.7122,-2.7585,-2.8506,-3.0298,-3.0556,-3.0661,-3.0755,-3.0832,-3.0332,-2.9134,-2.9006,-2.8437,-2.7243,-2.7133,-2.7387,-2.7995,-2.7772,-2.8192,-2.9208,-2.9544,-2.9664,-2.9588,-2.9148,-2.8929,-2.8814,-2.8237,-2.7954,-2.7936,-2.7771,-2.7701,-2.7701,-2.7701,-2.7701,-2.7701,-2.7701,-2.7701,-2.7701,-2.7701,-2.7701,-2.7701,-2.7701,-2.76,-2.7434,-2.7307,-2.7166,-2.694,-2.659,-2.6385,-2.621,-2.5944,-2.5815,-2.5705,-2.5705,-2.5705,-2.5647,-2.5384,-2.5329,-2.5205,-2.4712,-2.4223,-2.3623,-2.2675,-2.1948,-2.1347,-2.0857,-2.0794,-2.0794,-2.0794,-2.2011,-2.288,-2.2791,-2.3974,-2.4742,-2.4564,-2.4564,-2.4482,-2.4302,-2.4359,-2.44,-2.4302,-2.4302,-2.4302,-2.4302,-2.4302,-2.4995,-2.638,-2.5918,-2.6626,-2.8396,-2.7965,-2.7996,-0.8504,-0.9701,-1.0588,-1.1574,-1.2324,-1.3019,-1.3765,-1.5021,-1.6122,-1.6433,-1.8789,-2.0776,-2.0831,-2.2524,-2.4082,-2.4644,-2.5074,-2.564,-2.6556,-2.6116,-2.65,-2.8613,-2.821,-2.8441,-3.0221,-3.0453,-3.0547,-3.0687,-3.0757,-3.0068,-2.8398,-2.8276,-2.7441,-2.566,-2.5628,-2.6362,-2.7909,-2.7874,-2.8524,-2.9832,-2.9736,-2.9683,-2.9588,-2.8997,-2.8676,-2.8554,-2.7982,-2.7713,-2.7701,-2.7701,-2.7701,-2.7701,-2.7701,-2.7701,-2.7701,-2.7701,-2.7701,-2.7701,-2.7701,-2.7701,-2.7701,-2.7701,-2.7569,-2.7355,-2.7002,-2.6723,-2.6471,-2.6158,-2.5799,-2.5503,-2.5465,-2.523,-2.5005,-2.5005,-2.5005,-2.5005,-2.5005,-2.5005,-2.4799,-2.4049,-2.386,-2.3386,-2.1976,-2.1237,-2.0794,-2.0794,-2.0794,-2.081,-2.0842,-2.2043,-2.2896,-2.2927,-2.4044,-2.4742,-2.463,-2.4523,-2.4457,-2.4317,-2.4302,-2.4287,-2.4256,-2.4256,-2.4256,-2.4256,-2.4287,-2.4995,-2.638,-2.6426,-2.7119,-2.8411,-2.8411,-2.8411,-0.6336,-0.7349,-0.8266,-0.9223,-0.989,-1.0791,-1.2621,-1.4036,-1.5296,-1.6403,-1.8656,-2.0368,-2.0119,-2.2173,-2.4186,-2.5083,-2.5596,-2.6267,-2.7337,-2.7468,-2.7737,-2.8452,-2.9068,-2.9645,-3.0138,-3.0344,-3.0481,-3.0623,-3.0696,-3.0027,-2.8398,-2.8801,-2.8022,-2.5679,-2.6754,-2.7252,-2.7039,-2.8038,-2.8698,-2.9014,-2.9472,-2.9701,-2.9645,-2.9191,-2.8865,-2.8652,-2.8192,-2.7869,-2.7701,-2.7701,-2.7701,-2.7701,-2.7701,-2.7701,-2.7701,-2.7701,-2.7701,-2.7701,-2.7701,-2.7701,-2.7701,-2.7701,-2.763,-2.7478,-2.7034,-2.6824,-2.6556,-2.5872,-2.5577,-2.5427,-2.5208,-2.5068,-2.5005,-2.5005,-2.5005,-2.5005,-2.5005,-2.5005,-2.4799,-2.4049,-2.3101,-2.2122,-2.1221,-2.0905,-2.0794,-2.0794,-2.0794,-2.0984,-2.1537,-2.2359,-2.3085,-2.3591,-2.4343,-2.4782,-2.4742,-2.458,-2.4498,-2.4457,-2.4359,-2.4087,-2.3579,-2.3548,-2.3548,-2.3548,-2.4056,-2.4995,-2.638,-2.6888,-2.758,-2.8411,-2.8411,-2.8411,-0.4923,-0.5692,-0.645,-0.7405,-0.8119,-0.9078,-1.1065,-1.2886,-1.4589,-1.6006,-1.8371,-2.0192,-2.0169,-2.1924,-2.3763,-2.4975,-2.562,-2.6471,-2.7903,-2.8272,-2.8547,-2.8876,-2.95,-2.9943,-3.0095,-3.0203,-3.0351,-3.0586,-3.0653,-2.9994,-2.8398,-2.8656,-2.8037,-2.6221,-2.7013,-2.7594,-2.7851,-2.8859,-2.936,-2.9311,-2.9581,-2.9701,-2.9701,-2.9263,-2.8953,-2.8676,0.0,-2.7954,-2.7701,-2.7701,-2.7701,-2.7701,-2.7701,-2.7701,-2.7701,-2.7701,-2.7701,-2.7701,-2.7701,-2.7701,-2.7701,-2.7701,-2.7539,-2.7244,-2.6807,-2.6488,-2.612,-2.546,-2.5269,-2.523,-2.5045,-2.5005,-2.5005,-2.5005,-2.5005,-2.5005,-2.5005,-2.5005,-2.4705,-2.3654,-2.2359,-2.1284,-2.0857,-2.0794,-2.0794,-2.0794,-2.0794,-2.1158,-2.2201,-2.2659,-2.3038,-2.3417,-2.4327,-2.4611,-2.3881,-2.4262,-2.4275,-2.359,-2.3742,-2.3563,-2.2886,-2.2855,-2.2994,-2.3286,-2.3963,-2.4995,-2.638,-2.7072,-2.775,-2.8411,-2.8411,-2.8411,-0.4118,-0.4716,-0.5244,-0.6129,-0.6966,-0.8038,-0.9654,-1.1919,-1.408,-1.5549,-1.8014,-2.0051,-2.0488,-2.1684,-2.3126,-2.4655,-2.5472,-2.6512,-2.8254,-2.8664,-2.8989,-2.9474,-2.957,-2.9715,-3.0003,-3.0061,-3.0222,-3.0548,-3.0633,-3.0026,-2.8534,-2.851,-2.8193,-2.7415,-2.7226,-2.7896,-2.9457,-2.992,-3.0122,-3.0103,-2.9859,-2.972,-2.9683,-2.9307,-2.8987,-2.8676,-2.8298,-2.7982,-2.7701,-2.7701,-2.7701,-2.7701,-2.7701,-2.7701,-2.7701,-2.7701,-2.7701,-2.7701,-2.7701,-2.7701,-2.7701,-2.7701,-2.7413,-2.7021,-2.6556,-2.6085,-2.5605,-2.5123,-2.5005,-2.5005,-2.5005,-2.5005,-2.5005,-2.5005,-2.5005,-2.5005,-2.5005,-2.4863,-2.4372,-2.3154,-2.1758,-2.0794,-2.0794,-2.0794,-2.0794,-2.0794,-2.0794,-2.1268,-2.258,-2.2817,-2.2912,-2.3006,-2.4151,-2.4263,-2.277,-2.3678,-2.3771,-2.2439,-2.2879,-2.2894,-2.2194,-2.224,-2.2563,-2.3148,-2.3917,-2.4995,-2.638,-2.7072,-2.775,-2.8411,-2.8411,-2.8411,-0.423,-0.4816,-0.5376,-0.5921,-0.7094,-0.8467,-0.991,-1.2191,-1.4439,-1.5901,-1.7623,-1.9176,-2.0175,-2.1358,-2.2773,-2.455,-2.5732,-2.6943,-2.8322,-2.8676,-2.891,-2.9178,-2.9415,-2.9607,-2.968,-2.9943,-3.0171,-3.0342,-3.0525,-3.0239,-2.934,-2.9959,-3.0228,-2.9972,-2.9253,-2.9358,-3.0366,-3.0306,-3.0209,-3.0101,-2.9931,-2.9814,-2.9683,-2.9397,-2.9049,-2.87,-2.8438,0.0,-2.7701,-2.7701,-2.7701,-2.7701,-2.7701,-2.7701,-2.7701,-2.7701,-2.7701,-2.7701,-2.7701,-2.7701,-2.7701,-2.7701,-2.7624,-2.7444,-2.664,-2.635,-2.6087,-2.5262,-2.5005,-2.5005,-2.5005,-2.5005,-2.5005,-2.5005,-2.5005,-2.5005,-2.5005,-2.4103,-2.3164,-2.2964,-2.1758,-2.0794,-2.0794,-2.0794,-2.0794,-2.0794,-2.0794,-2.1094,-2.1948,-2.2548,-2.3101,-2.367,-2.3954,-2.3765,-2.2923,-2.2975,-2.2895,-2.2565,-2.2568,-2.2207,-2.1486,-2.1993,-2.2332,-2.2455,-2.3686,-2.4995,-2.638,-2.7072,-2.775,-2.8411,-2.8411,-2.8411,-0.4551,-0.495,-0.5463,-0.6183,-0.7302,-0.8618,-1.0213,-1.2405,-1.4515,-1.6047,-1.7563,-1.8974,-2.0159,-2.1019,-2.2074,-2.3789,-2.483,-2.5985,-2.7705,-2.8064,-2.8434,-2.9163,-2.9411,-2.9513,-2.9589,-2.9851,-3.008,-3.0234,-3.0051,-2.9796,-2.9523,-2.9467,-2.9609,-2.9964,-2.9552,-2.9727,-3.0598,-3.0394,-3.0234,-3.0107,-2.9967,-2.9833,-2.9701,-2.9411,-2.9079,-2.87,-2.8482,-2.8128,-2.7701,-2.7701,-2.7701,-2.7701,-2.7701,-2.7701,-2.7701,-2.7701,-2.7701,-2.7701,-2.7701,-2.7701,-2.7701,-2.7701,-2.7612,-2.74,-2.664,-2.6298,-2.6033,-2.5208,-2.5005,-2.5005,-2.5005,-2.5005,-2.5005,-2.5005,-2.5005,-2.5005,-2.5005,-2.416,-2.3307,-2.2995,-2.2058,-2.1252,-2.0857,-2.0794,-2.0794,-2.0794,-2.0794,-2.1063,-2.1805,-2.2169,-2.2485,-2.2833,-2.3496,-2.3317,-2.1862,-2.2346,-2.2473,-2.202,-2.2257,-2.2229,-2.1861,-2.2117,-2.2455,-2.2809,-2.3794,-2.481,-2.5841,-2.6888,-2.7565,-2.7888,-2.8242,-2.8411,-0.514,-0.5368,-0.5805,-0.6601,-0.7667,-0.8961,-1.058,-1.2657,-1.4672,-1.623,-1.7482,-1.8722,-1.9984,-2.0545,-2.1316,-2.2949,-2.3831,-2.4994,-2.7055,-2.7482,-2.804,-2.9191,-2.9386,-2.945,-2.9551,-2.9769,-2.9965,-3.0128,-2.9465,-2.9095,-2.9238,-2.8405,-2.831,-2.9124,-2.8888,-2.9166,-3.0027,-2.9863,-2.9691,-2.9564,-2.9628,-2.957,-2.942,-2.9353,-2.9093,-2.87,-2.8507,-2.8138,-2.7701,-2.7701,-2.7701,-2.7701,-2.7701,-2.7701,-2.7701,-2.7701,-2.7701,-2.7701,-2.7701,-2.7596,-2.749,-2.7648,-2.7582,-2.7355,-2.6657,-2.628,-2.5924,-2.5262,-2.5045,-2.5005,-2.5005,-2.5005,-2.5005,-2.5005,-2.5005,-2.4974,-2.4815,-2.4191,-2.3496,-2.2801,-2.2122,-2.1474,-2.0889,-2.0794,-2.0794,-2.0794,-2.0794,-2.1,-2.1584,-2.179,-2.1837,-2.1679,-2.2754,-2.2781,-2.1054,-2.1886,-2.2254,-2.1667,-2.2112,-2.2384,-2.2286,-2.2424,-2.2748,-2.3286,-2.3963,-2.4641,-2.5318,-2.6565,-2.7257,-2.7411,-2.8088,-2.8319,-0.6127,-0.6403,-0.6738,-0.7077,-0.8363,-0.9896,-1.1143,-1.3092,-1.509,-1.6712,-1.7246,-1.7887,-1.9382,-1.9896,-2.0671,-2.239,-2.3598,-2.4961,-2.6874,-2.7387,-2.7972,-2.8997,-2.9283,-2.9407,-2.9427,-2.9717,-2.9902,-2.9934,-2.8859,-2.8275,-2.8398,-2.7535,-2.7418,-2.829,-2.7413,-2.7359,-2.824,-2.8107,-2.7962,-2.7835,-2.8504,-2.8708,-2.8554,-2.9116,-2.9138,-2.87,-2.8496,-2.8129,0.0,-2.7701,-2.7701,-2.7701,-2.7701,-2.7701,-2.7701,-2.7701,-2.7701,-2.7701,-2.7701,-2.7262,-2.6823,-2.7473,-2.7701,-2.7552,-2.6891,-2.6539,-2.621,-2.5492,-2.5123,-2.5005,-2.5005,-2.5005,-2.5005,-2.5005,-2.5005,-2.4831,-2.416,-2.3465,-2.2769,-2.2122,-2.1395,-2.0873,-2.081,-2.0794,-2.0794,-2.0794,-2.0794,-2.081,-2.0889,-2.1489,-2.1632,-2.0968,-2.1568,-2.1878,-2.1635,-2.171,-2.1936,-2.2282,-2.2375,-2.2384,-2.2286,-2.2871,-2.324,-2.3302,-2.3963,-2.4641,-2.5318,-2.6103,-2.6795,-2.7411,-2.8088,-2.8073,-0.706,-0.7099,-0.734,-0.8111,-0.9125,-1.0351,-1.1883,-1.3506,-1.5061,-1.6255,-1.6781,-1.7443,-1.8868,-1.926,-1.9947,-2.1619,-2.2499,-2.3578,-2.5361,-2.5858,-2.6622,-2.8184,-2.8458,-2.8727,-2.933,-2.9699,-2.9389,-2.8124,-2.7586,-2.6688,-2.5254,-2.532,-2.5779,-2.6615,-2.6215,-2.6369,-2.7205,-2.711,-2.7254,-2.7611,-2.7311,-2.737,-2.771,-2.8371,-2.8463,-2.8114,-2.8304,-2.8201,0.0,-2.7256,-2.7297,-2.7648,-2.721,-2.7052,-2.7087,-2.7543,-2.7104,-2.6384,-2.6876,-2.6542,-2.5928,-2.6226,-2.6314,-2.6359,-2.6601,-2.6219,-2.5628,-2.5379,-2.5178,-2.5005,-2.5005,-2.465,-2.4444,-2.491,-2.4356,-2.3787,-2.3891,-2.337,-2.269,-2.2027,-2.1663,-2.1316,-2.0873,-2.0794,-2.0794,-2.0794,-2.0794,-2.0794,-2.0794,-2.1047,-2.1126,-2.0826,-2.1358,-2.1749,-2.1678,-2.1659,-2.202,-2.2948,-2.301,-2.3134,-2.3486,-2.3763,-2.3902,-2.3902,-2.4164,-2.4441,-2.4718,-2.541,-2.6103,-2.6795,-2.7488,-2.7657,-0.8379,-0.8205,-0.8276,-0.9131,-0.9982,-1.1008,-1.2512,-1.396,-1.5242,-1.6087,-1.6644,-1.7346,-1.837,-1.8998,-1.9788,-2.1022,-2.1914,-2.297,-2.445,-2.5095,-2.6034,-2.7708,-2.816,-2.8614,-2.933,-2.9473,-2.8637,-2.6573,-2.617,-2.4966,-2.2499,-2.2946,-2.3749,-2.4803,-2.4535,-2.4762,-2.5561,-2.5466,-2.565,-2.6129,-2.5626,-2.5637,-2.6134,-2.71,-2.736,-2.7093,-2.7822,-2.7841,0.0,-2.7049,-2.6964,-2.6981,-2.6718,-2.6455,-2.6314,-2.6823,-2.6332,-2.5489,-2.6051,-2.5735,-2.5103,-2.5331,-2.5049,-2.4826,-2.5797,-2.5729,-2.528,-2.5171,-2.508,-2.5005,-2.5005,-2.4602,-2.4349,-2.4894,-2.4103,-2.3259,-2.3559,-2.307,-2.239,-2.1711,-2.1568,-2.141,-2.0889,-2.0794,-2.0794,-2.0794,-2.0794,-2.0794,-2.0794,-2.0794,-2.0794,-2.0794,-2.1324,-2.1772,-2.1941,-2.2108,-2.2605,-2.3621,-2.3659,-2.3875,-2.4287,-2.4302,-2.4302,-2.4302,-2.4302,-2.4302,-2.4302,-2.4979,-2.558,-2.6087,-2.678,-2.698,-1.022,-0.9967,-0.9743,-1.0026,-1.0948,-1.2041,-1.2993,-1.4486,-1.5844,-1.6459,-1.7075,-1.7592,-1.7956,-1.9258,-2.0394,-2.074,-2.22,-2.3632,-2.4651,-2.5705,-2.6768,-2.7782,-2.8783,-2.9388,-2.9407,-2.8929,-2.7752,-2.5673,-2.4702,-2.317,-2.074,-2.0625,-2.1361,-2.2975,-2.2191,-2.214,-2.2924,-2.2747,-2.2658,-2.2665,-2.3243,-2.3539,-2.3596,-2.5268,-2.5831,-2.5595,-2.6926,-2.6862,0.0,-2.7176,-2.6788,-2.5507,-2.6297,-2.6121,-2.5419,-2.5419,-2.5419,-2.5401,-2.5419,-2.4927,-2.4444,-2.5156,-2.4208,-2.3058,-2.4333,-2.506,-2.5411,-2.4924,-2.489,-2.5005,-2.5005,-2.5005,-2.5005,-2.5005,-2.4428,-2.3717,-2.3038,-2.2374,-2.1679,-2.0952,-2.081,-2.081,-2.0794,-2.0794,-2.0794,-2.0794,-2.0794,-2.0794,-2.0794,-2.0794,-2.0794,-2.0794,-2.1324,-2.1941,-2.2518,-2.321,-2.3763,-2.4256,-2.4302,-2.4302,-2.4302,-2.4302,-2.4302,-2.4302,-2.4302,-2.4302,-2.4302,-2.4979,-2.5318,-2.5349,-2.6072,-2.601,-1.219,-1.1966,-1.1663,-1.188,-1.2475,-1.3323,-1.4394,-1.5328,-1.6138,-1.6747,-1.7183,-1.7566,-1.7997,-1.9044,-2.0223,-2.1494,-2.2668,-2.3892,-2.5227,-2.5877,-2.6568,-2.757,-2.8268,-2.8465,-2.8007,-2.7403,-2.6129,-2.3947,-2.3533,-2.2574,-2.0701,-2.0605,-2.0815,-2.1279,-2.1593,-2.187,-2.2088,-2.1927,-2.2087,-2.2588,-2.2147,-2.2192,-2.2717,-2.3802,-2.4482,-2.4855,-2.5702,-2.6034,-2.5973,-2.5697,-2.5508,-2.5384,-2.5121,-2.4857,-2.4699,-2.5208,-2.4734,-2.3909,-2.4453,-2.4137,-2.3523,-2.3769,-2.3455,-2.3014,-2.3158,-2.3439,-2.38,-2.4243,-2.4681,-2.4894,-2.4381,-2.4255,-2.4255,-2.4255,-2.337,-2.2596,-2.2833,-2.1963,-2.1079,-2.0842,-2.0794,-2.0794,-2.0794,-2.0794,-2.0794,-2.0794,-2.0794,-2.0794,-2.0794,-2.0794,-2.0984,-2.1489,-2.2118,-2.2571,-2.2666,-2.3188,-2.3809,-2.441,-2.4359,-2.4302,-2.4302,-2.4302,-2.4302,-2.4302,-2.4302,-2.4302,-2.4302,-2.4518,-2.4856,-2.5318,-2.5549,-2.5533,-1.3737,-1.333,-1.3091,-1.3326,-1.3825,-1.4457,-1.5271,-1.5973,-1.656,-1.6926,-1.7288,-1.7748,-1.8422,-1.9359,-2.052,-2.1941,-2.2936,-2.3963,-2.5254,-2.5865,-2.6741,-2.8103,-2.8293,-2.8029,-2.738,-2.642,-2.5041,-2.3112,-2.2683,-2.1955,-2.0661,-2.0605,-2.0563,-2.0497,-2.1039,-2.1273,-2.1202,-2.1077,-2.1222,-2.1645,-2.1016,-2.0946,-2.1384,-2.2192,-2.2974,-2.3726,-2.4579,-2.5142,0.0,-2.5153,-2.4892,-2.4678,-2.44,-2.4128,-2.3892,-2.4366,-2.3927,-2.319,-2.3664,-2.3523,-2.3095,-2.302,-2.2833,-2.2607,-2.2358,-2.2685,-2.3309,-2.4333,-2.4598,-2.4523,-2.4349,-2.4112,-2.3923,-2.3923,-2.307,-2.2311,-2.2453,-2.16,-2.0794,-2.0794,-2.0794,-2.0794,-2.0794,-2.0794,-2.0794,-2.0794,-2.0794,-2.0794,-2.0794,-2.0794,-2.1079,-2.1821,-2.2485,-2.2954,-2.3095,-2.3616,-2.4073,-2.4482,-2.4359,-2.4302,-2.4302,-2.4302,-2.4302,-2.4302,-2.4302,-2.4302,-2.4302,-2.4302,-2.4518,-2.4933,-2.4933,-2.4933,0.0,-1.4355,-1.416,-1.4436,-1.4959,-1.5476,-1.5732,-1.6433,0.0,-1.7108,-1.7538,-1.8206,-1.9189,-2.0201,-2.1238,-2.221,-2.3106,-2.4014,-2.5032,-2.5994,-2.7276,-2.9087,-2.8633,-2.7859,-2.7116,-2.5716,-2.4254,-2.2829,-2.2037,-2.1312,-2.064,-2.0605,-2.0566,-2.0518,-2.0497,-2.0464,-2.04,-2.0276,-2.0175,-2.0098,-1.9981,-1.9881,-1.9838,-2.0577,-2.1384,0.0,-2.3504,-2.4118,0.0,-2.5275,-2.4825,-2.3552,-2.406,-2.3776,-2.3095,-2.3095,-2.3095,-2.3095,-2.3095,-2.3095,-2.307,-2.2868,-2.2381,-2.1899,-2.1949,-2.2635,-2.364,-2.4762,-2.4471,-2.3986,-2.4586,-2.4286,-2.3828,-2.3781,-2.3275,-2.2627,-2.1929,-2.1284,-2.0794,-2.0794,-2.0794,-2.0794,-2.0794,-2.0794,-2.0794,-2.0794,-2.0794,-2.0794,-2.0794,-2.0842,-2.1158,-2.1884,-2.2564,-2.3206,-2.3802,-2.4311,-2.4564,-2.4498,-2.4359,-2.4302,-2.4302,-2.4302,-2.4302,-2.4302,-2.4302,-2.4302,-2.4302,-2.4302,-2.4302,-2.4302,-2.4302,-2.4302,-1.6793,0.0,-1.6174,-1.5812,-1.6138,-1.6612,0.0,-1.7043,-1.7535,-1.8037,-1.8576,-1.9183,-1.9987,-2.1141,-2.2224,-2.3066,-2.4373,-2.5607,-2.6634,-2.7739,-2.8448,-2.84,-2.7358,-2.6035,-2.4606,-2.3179,-2.1968,-2.1065,-2.0802,-2.0672,-2.0601,-2.0605,-2.0586,-2.0585,-2.0523,-2.0464,-2.04,-2.0365,-2.028,-2.0175,-2.0088,-2.0,-1.9881,-2.0013,-2.0539,-2.1347,-2.2215,-2.2871,-2.3362,-2.4165,-2.4097,-2.3522,-2.3631,-2.3454,-2.3095,-2.3095,-2.3095,-2.3095,-2.3095,-2.3095,-2.307,-2.2868,-2.2281,-2.1787,-2.2318,-2.2459,-2.2499,-2.2767,-2.2992,-2.3038,-2.2659,-2.2848,-2.3006,-2.2485,-2.2216,-2.2043,-2.19,-2.1316,-2.0794,-2.0794,-2.0794,-2.0794,-2.0794,-2.0794,-2.0794,-2.0794,-2.0794,-2.0794,-2.0794,-2.1284,-2.19,-2.258,-2.3259,-2.3916,-2.4524,-2.4592,-2.4564,-2.4498,-2.4359,-2.4302,-2.4302,-2.4302,-2.4302,-2.4302,-2.4302,-2.4302,-2.4302,-2.4302,-2.4302,-2.4302,-2.4302,-2.4302,-1.7635,-1.7462,-1.7267,-1.7074,-1.7253,-1.7627,-1.8098,-1.807,-1.8153,-1.8856,-1.9344,-1.9857,-2.0592,-2.1493,-2.2503,-2.3691,-2.4748,-2.5895,-2.7242,-2.8328,-2.8713,-2.8036,-2.6782,-2.5326,-2.3761,-2.2333,-2.1189,-2.0468,-2.0398,-2.0461,-2.0581,-2.0566,-2.0544,-2.0544,-2.0489,-2.0453,-2.0449,-2.0413,-2.0327,-2.0208,-2.0159,-2.006,-1.9907,-1.9858,-2.0277,-2.1039,-2.1778,0.0,-2.3189,-2.3824,-2.3961,-2.3753,-2.3576,-2.3412,-2.3271,-2.3144,-2.3095,-2.3095,-2.3095,-2.3045,-2.2927,-2.2842,-2.2254,-2.1664,-2.2059,-2.1875,-2.1625,-2.2277,-2.2445,-2.2406,-2.2327,-2.2374,-2.2343,-2.1979,-2.1869,-2.1774,-2.1458,-2.1079,-2.0794,-2.0794,-2.0794,-2.0794,-2.0794,-2.0794,-2.0794,-2.0794,-2.0794,-2.0794,-2.0794,-2.1426,-2.2122,-2.2817,-2.3496,-2.413,-2.4664,-2.463,-2.4564,-2.4498,-2.4359,-2.4302,-2.4302,-2.4302,-2.4302,-2.4302,-2.4302,-2.4302,-2.4302,-2.4302,-2.4302,-2.4302,-2.4302,-2.4302,-1.8129,-1.8095,-1.813,-1.8146,-1.8264,-1.8561,-1.9398,-1.9121,-1.884,-1.9468,-1.9906,-2.0382,-2.1044,-2.1769,-2.274,-2.4144,-2.495,-2.5964,-2.7597,-2.8338,-2.8384,-2.758,-2.6265,-2.4854,-2.3364,-2.2055,-2.1031,-2.0434,-2.0385,-2.0432,-2.0579,-2.0527,-2.0501,-2.0495,-2.0432,-2.0445,-2.0471,-2.0424,-2.0334,-2.0231,-2.0215,-2.0105,-1.9939,-1.9915,-2.0231,-2.0843,0.0,0.0,-2.3172,-2.386,-2.4135,-2.4059,-2.3689,-2.3526,-2.3481,-2.3199,-2.3095,-2.3095,-2.3095,-2.297,-2.279,-2.2764,-2.2226,-2.1582,-2.1568,-2.1214,-2.1047,-2.2232,-2.2153,-2.1853,-2.2422,-2.2153,-2.1726,-2.1726,-2.1726,-2.1553,-2.0921,-2.0794,-2.0794,-2.0794,-2.0794,-2.0794,-2.0794,-2.0794,-2.0794,-2.0794,-2.0794,-2.0794,-2.0794,-2.1489,-2.2216,-2.2817,-2.3591,-2.4202,-2.4583,-2.4589,-2.4564,-2.4457,-2.4359,-2.4302,-2.4302,-2.4302,-2.4302,-2.4302,-2.4302,-2.4302,-2.4302,-2.4302,-2.4302,-2.4302,-2.4302,-2.4302,-1.9278,-1.9693,-1.9753,-1.8701,-1.8904,-1.9398,-1.9568,-1.9502,-1.9452,-1.9584,-2.0307,-2.1053,-2.1464,-2.284,-2.4098,-2.4562,-2.608,-2.7579,-2.8713,-2.8476,-2.7655,-2.6191,-2.4694,-2.3182,-2.1632,-2.0773,-2.0329,-2.0328,-2.0319,-2.0361,-2.0501,-2.0513,-2.0507,-2.0497,-2.0492,-2.046,-2.0409,-2.0402,-2.0392,-2.0366,-2.0246,-2.0159,-2.0069,-1.9958,-1.9892,-1.9982,0.0,-2.217,-2.2393,-2.3851,-2.4284,-2.4078,-2.3858,-2.3664,-2.3481,-2.3199,-2.3095,-2.3095,-2.3095,-2.297,-2.2764,-2.2605,-2.213,-2.1568,-2.1386,-2.1087,-2.0842,-2.1047,-2.1047,-2.0984,-2.1094,-2.1047,-2.0968,-2.0968,-2.0968,-2.0936,-2.081,-2.0794,-2.0794,-2.0794,-2.0794,-2.0794,-2.0794,-2.0794,-2.0794,-2.0794,-2.0794,-2.0794,-2.0794,-2.1916,-2.2754,-2.29,-2.4071,-2.4776,-2.463,-2.4589,-2.4508,-2.4343,-2.4302,-2.4302,-2.4302,-2.4302,-2.4302,-2.4302,-2.4302,-2.4302,-2.4302,-2.4302,-2.4302,-2.4302,-2.4302,-2.4302,-1.8911,-1.9343,-1.9681,-1.921,-1.9898,-2.0711,-2.0788,-2.0583,-2.0498,-2.0749,-2.1166,-2.158,-2.1881,-2.3083,-2.4515,-2.6009,-2.7022,-2.7785,-2.8331,-2.7279,-2.6068,-2.5023,-2.3535,-2.2196,-2.1185,-2.0496,-2.015,-2.0289,-2.0301,-2.0362,-2.0489,-2.0474,-2.0468,-2.05,-2.0464,-2.0422,-2.04,-2.0396,-2.0399,-2.0399,-2.0346,-2.025,-2.0142,-2.0021,-1.9885,-1.9813,0.0,-2.1637,-2.2139,-2.3312,-2.4003,-2.4284,-2.4058,-2.3837,-2.362,-2.3247,-2.3095,-2.3095,-2.3095,-2.3045,-2.2919,-2.2605,-2.2243,-2.1849,-2.1417,-2.1151,-2.0925,-2.0827,-2.0794,-2.0794,-2.0794,-2.0794,-2.0794,-2.0794,-2.0794,-2.0794,-2.0794,-2.0794,-2.0794,-2.0794,-2.0794,-2.0794,-2.0794,-2.0794,-2.0921,-2.13,-2.1031,-2.1063,-2.1821,-2.2485,-2.3022,-2.3401,-2.4404,-2.4926,-2.4726,-2.463,-2.4508,-2.4302,-2.4302,-2.4302,-2.4302,-2.4302,-2.4302,-2.4302,-2.4302,-2.4302,-2.4302,-2.4302,-2.4302,-2.4302,-2.4302,-2.4302,-1.8759,-1.9007,-1.9452,-1.9723,-2.0475,-2.1292,-2.1915,-2.164,-2.1446,-2.2057,-2.2149,-2.217,-2.2309,-2.3219,-2.4689,-2.6949,-2.736,-2.7354,-2.7306,-2.5952,-2.4644,-2.3787,-2.2504,-2.1456,-2.0876,-2.0191,-1.9931,-2.0269,-2.0102,-2.0147,-2.0451,-2.043,-2.0428,-2.0502,-2.0458,-2.0409,-2.04,-2.0396,-2.0399,-2.0399,-2.0399,-2.0327,-2.0208,-2.006,-1.9931,-1.9835,-2.0513,-2.1269,-2.2052,-2.2868,-2.3721,-2.4464,-2.4192,-2.3959,-2.3667,-2.3271,-2.3095,-2.3095,-2.3095,-2.3095,-2.3045,-2.2685,-2.2409,-2.2108,-2.1524,-2.1246,-2.1071,-2.086,-2.0794,-2.0794,-2.0794,-2.0794,-2.0794,-2.0794,-2.0794,-2.0794,-2.0794,-2.0794,-2.0842,-2.1,-2.0905,-2.0889,-2.1221,-2.1158,-2.1284,-2.1979,-2.1616,-2.1663,-2.2738,-2.3022,-2.3322,-2.386,-2.4555,-2.4942,-2.4822,-2.4645,-2.4508,-2.4359,-2.4317,-2.4302,-2.4302,-2.4302,-2.4302,-2.4302,-2.4302,-2.4302,-2.4302,-2.4302,-2.4302,-2.4302,-2.4302,-2.4302,-1.9867,-1.9834,-1.978,-2.0241,-2.0044,-2.0268,-2.2344,-2.2275,-2.2032,-2.3064,-2.3228,-2.3078,-2.2737,-2.3646,-2.4903,-2.6245,-2.6588,-2.6477,-2.5931,-2.5096,-2.3964,-2.2351,-2.1521,-2.079,-2.0066,-1.9326,-1.9282,-2.0235,-1.9557,-1.9478,-2.0351,-2.0391,-2.0423,-2.0503,-2.0497,-2.046,-2.04,-2.0396,-2.0399,-2.0399,-2.0399,-2.0327,-2.0208,-2.0059,-1.9933,-1.9835,-2.0522,-2.1247,-2.2052,-2.2868,-2.3721,-2.4464,-2.4192,-2.3858,-2.3504,-2.3199,-2.3095,-2.3095,-2.3095,-2.3095,-2.3052,-2.2868,-2.2517,-2.2136,-2.1702,-2.1339,-2.1071,-2.086,-2.0794,-2.0794,-2.0794,-2.0794,-2.0794,-2.0794,-2.0794,-2.0794,-2.0794,-2.0794,-2.0984,-2.1597,-2.1237,-2.1205,-2.2501,-2.2216,-2.2043,-2.2706,-2.2769,-2.2769,-2.29,-2.3433,-2.386,-2.3869,-2.4555,-2.4942,-2.4822,-2.462,-2.4498,-2.4498,-2.4359,-2.4302,-2.4302,-2.4302,-2.4302,-2.4302,-2.4302,-2.4302,-2.4302,-2.4302,-2.4302,-2.4302,-2.4302,-2.4302,-1.9376,-1.9575,-1.9885,-2.0082,-2.0043,-2.0193,-2.1275,-2.2145,-2.2798,-2.304,-2.3194,-2.3232,-2.298,-2.4046,-2.5085,-2.5582,-2.5443,-2.5227,-2.4984,-2.3349,-2.1956,-2.1328,-2.062,-2.0107,-1.9915,-1.9231,-1.9216,-2.0227,-1.9485,-1.94,-2.0361,-2.0394,-2.0444,-2.0566,-2.052,-2.0497,-2.046,-2.0415,-2.0408,-2.0399,-2.0399,-2.0327,-2.0208,-2.0139,-2.0022,-1.9809,-2.007,-2.0602,-2.1309,-2.2126,-2.2943,-2.3722,-2.3989,-2.3939,-2.3664,-2.3417,-2.3247,-2.3095,-2.3095,-2.3095,-2.307,-2.2868,-2.2668,-2.2392,-2.1807,-2.1477,-2.1293,-2.0909,-2.0794,-2.0794,-2.0794,-2.0794,-2.0794,-2.0794,-2.0794,-2.0794,-2.0794,-2.1158,-2.1553,-2.1821,-2.1979,-2.2299,-2.2821,-2.2675,-2.2738,-2.3417,-2.3164,-2.3233,-2.4103,-2.4033,-2.4081,-2.4523,-2.4784,-2.4806,-2.462,-2.4539,-2.4457,-2.4359,-2.4317,-2.4302,-2.4302,-2.4302,-2.4302,-2.4302,-2.4302,-2.4302,-2.4302,-2.4302,-2.4302,-2.4302,-2.4302,-2.4302,-1.9164,-1.9651,-2.0281,-2.0004,-2.0271,-2.0645,-2.0814,-2.1692,-2.2593,-2.2976,-2.3009,-2.3016,-2.3207,-2.3897,-2.4458,-2.4387,-2.4173,-2.3855,-2.3336,-2.1832,-2.0604,-2.0066,-1.9632,-1.9307,-1.913,-1.8477,-1.8463,-1.94,-1.8689,-1.8616,-1.9522,-1.986,-2.0062,-2.0168,-2.0371,-2.0492,-2.05,-2.0422,-2.039,-2.0399,-2.0399,-2.0327,-2.0208,-2.0175,-2.0031,-1.9809,-1.9788,-2.0148,-2.0864,-2.1662,-2.2627,-2.3631,-2.3971,-2.3979,-2.3774,-2.3576,-2.3342,-2.3095,-2.3095,-2.3095,-2.3095,-2.2944,-2.2816,-2.2615,-2.1924,-2.1628,-2.1415,-2.0942,-2.0794,-2.0794,-2.0794,-2.0794,-2.0794,-2.0794,-2.0794,-2.0794,-2.0794,-2.1363,-2.1932,-2.2169,-2.258,-2.3059,-2.3502,-2.3354,-2.3449,-2.4144,-2.3844,-2.3929,-2.4894,-2.4555,-2.4428,-2.4958,-2.4902,-2.4742,-2.462,-2.4539,-2.4457,-2.4359,-2.4317,-2.4302,-2.4302,-2.4302,-2.4302,-2.4302,-2.4302,-2.4302,-2.4302,-2.4302,-2.4302,-2.4302,-2.4302,-2.4302,-1.9537,-2.0224,-2.1077,-2.0067,-2.078,-2.1631,-2.1285,-2.0958,-2.1216,-2.2992,-2.279,-2.2537,-2.3324,-2.3153,-2.2805,-2.2602,-2.2793,-2.2426,-2.0823,-2.0696,-2.0158,-1.8506,-1.8535,-1.8345,-1.7482,-1.6854,-1.683,-1.7645,-1.6946,-1.6887,-1.7747,-1.8686,-1.9185,-1.9181,-2.0039,-2.0494,-2.048,-2.0422,-2.039,-2.0399,-2.0399,-2.0327,-2.0208,-2.0134,-1.9991,-1.9809,-1.9732,-2.0113,-2.0845,-2.1662,-2.2996,-2.4464,-2.4192,-2.3979,-2.3774,-2.3576,-2.3342,-2.3102,-2.3095,-2.3095,-2.3095,-2.3095,-2.2952,-2.2694,-2.2169,-2.1807,-2.1507,-2.0942,-2.0794,-2.0794,-2.0794,-2.0794,-2.0794,-2.0794,-2.0794,-2.081,-2.081,-2.1347,-2.2023,-2.2754,-2.2932,-2.3375,-2.4768,-2.4381,-2.416,-2.491,-2.5005,-2.5005,-2.5005,-2.5005,-2.5005,-2.5005,-2.4902,-2.4782,-2.4782,-2.462,-2.4498,-2.4498,-2.4359,-2.4302,-2.4302,-2.4302,-2.4302,-2.4302,-2.4302,-2.4302,-2.4302,-2.4302,-2.4302,-2.4302,-2.4302,-2.4302,-1.983,-2.0663,-2.1636,-2.0966,-2.1917,-2.2762,-2.1707,-2.1632,-2.1826,-2.2029,-2.1893,-2.1589,-2.1128,-2.1468,-2.1639,-2.1004,-2.115,-2.1154,-2.0675,-1.9697,-1.8859,-1.8358,-1.799,-1.7691,-1.7425,-1.6854,-1.683,-1.7645,-1.6946,-1.6887,-1.7747,-1.8063,-1.8236,-1.8282,-1.9133,-1.959,-1.9589,-2.0169,-2.0445,-2.0395,-2.0404,-2.0327,-2.0208,-2.0184,-2.0022,-1.9809,-1.9774,-1.9851,-2.0066,-2.1421,-2.2996,-2.4464,-2.4192,-2.4059,-2.3979,-2.3642,-2.3458,-2.3365,-2.3168,-2.3095,-2.3095,-2.3095,-2.3045,-2.285,-2.2429,-2.2051,-2.1735,-2.1277,-2.099,-2.0794,-2.0794,-2.0794,-2.0794,-2.0794,-2.1173,-2.1537,-2.1553,-2.2469,-2.3317,-2.3575,-2.4002,-2.4515,-2.4942,-2.4831,-2.4768,-2.4974,-2.5005,-2.5005,-2.5005,-2.5005,-2.4926,-2.4766,-2.4686,-2.4605,-2.4482,-2.44,-2.4359,-2.4359,-2.4317,-2.4302,-2.4302,-2.4302,-2.4302,-2.4302,-2.4302,-2.4302,-2.4302,-2.4302,-2.4302,-2.4302,-2.4302,-2.4302,-2.0946,-2.1924,-2.294,-2.2172,-2.2645,-2.2932,-2.161,-2.1152,-2.0935,-2.068,-2.0601,-2.0553,-2.0456,-2.0805,-2.0898,-2.0225,-2.0062,-1.9865,-1.9538,-1.8531,-1.7696,-1.7355,-1.7077,-1.6791,-1.6439,-1.6146,-1.6176,-1.6676,-1.6253,-1.6214,-1.6742,-1.7098,-1.7461,-1.7858,-1.8732,-1.9345,-1.9665,-2.0196,-2.0438,-2.04,-2.0396,-2.036,-2.0272,-2.0223,-2.005,-1.9809,-1.9744,-1.9894,-2.0243,-2.1488,-2.2792,-2.3982,-2.4081,-2.4116,-2.4058,-2.3664,-2.3504,-2.3458,-2.3199,-2.3095,-2.3095,-2.3095,-2.3052,-2.2977,-2.2546,-2.2275,-2.1982,-2.1448,-2.1151,-2.0958,-2.0827,-2.0794,-2.0794,-2.0794,-2.111,-2.1505,-2.1821,-2.2738,-2.3591,-2.386,-2.4492,-2.5005,-2.5005,-2.5005,-2.5005,-2.5005,-2.5005,-2.5005,-2.5005,-2.5005,-2.4926,-2.4686,-2.463,-2.4549,-2.44,-2.4317,-2.4302,-2.4302,-2.4302,-2.4302,-2.4302,-2.4302,-2.4302,-2.4302,-2.4302,-2.4302,-2.4302,-2.4302,-2.4302,-2.4302,-2.4302,-2.4302,-2.2494,-2.3556,-2.4478,-2.3475,-2.3027,-2.2499,-2.1313,-2.0193,-1.9394,-1.9433,-1.932,-1.9608,-2.0776,-2.0672,-2.0269,-1.9838,-1.9272,-1.861,-1.7788,-1.7289,-1.6688,-1.5888,-1.5966,-1.5769,-1.4963,-1.5061,-1.5177,-1.5183,-1.5183,-1.5183,-1.5189,-1.595,-1.6784,-1.7656,-1.8582,-1.9456,-2.0272,-2.0368,-2.0419,-2.0405,-2.0402,-2.0405,-2.0399,-2.0265,-2.005,-1.9821,-1.9655,-2.0131,-2.1057,-2.1723,-2.2479,-2.326,-2.386,-2.4098,-2.4097,-2.3685,-2.3526,-2.3486,-2.3223,-2.3102,-2.3095,-2.3095,-2.3095,-2.3028,-2.2573,-2.2422,-2.2258,-2.1524,-2.1309,-2.1214,-2.0893,-2.0794,-2.0794,-2.0794,-2.0842,-2.1079,-2.1742,-2.2469,-2.3164,-2.3796,-2.4492,-2.5005,-2.5005,-2.5005,-2.5005,-2.5005,-2.5005,-2.5005,-2.5005,-2.5005,-2.4942,-2.4822,-2.4686,-2.4549,-2.4498,-2.4359,-2.4302,-2.4302,-2.4302,-2.4302,-2.4302,-2.4302,-2.4302,-2.4302,-2.4302,-2.4302,-2.4302,-2.4302,-2.4302,-2.4302,-2.4302,-2.4302,-2.2735,-2.3348,-2.3923,-2.3609,-2.3196,-2.2738,-2.219,-2.1399,-2.0717,-2.0525,-1.9969,-1.9664,-2.0158,-1.9161,-1.8235,-1.8128,-1.7581,-1.7062,-1.6884,-1.6405,-1.6011,-1.5833,-1.539,-1.5019,-1.484,-1.4914,-1.5018,-1.5113,-1.512,-1.514,-1.5209,-1.538,-1.5882,-1.675,-1.7635,-1.8546,-1.9458,-2.0136,-2.0479,0.0,-2.0424,-2.0394,-2.0399,-2.0265,-2.0114,-1.9931,-1.9694,-2.0131,-2.1057,-2.1723,-2.2479,-2.326,-2.386,-2.4229,-2.4357,-2.3899,-2.3732,-2.3689,-2.3486,-2.3271,-2.3095,-2.3095,-2.3095,-2.3052,-2.2833,-2.2616,-2.2286,-2.1823,-2.1495,-2.1214,-2.0893,-2.0794,-2.0794,-2.0794,-2.1237,-2.1695,-2.1787,-2.2817,-2.3733,-2.3891,-2.4492,-2.5005,-2.5005,-2.5005,-2.5005,-2.5005,-2.5005,-2.5005,-2.5005,-2.5005,-2.4942,-2.4822,-2.4686,-2.4549,-2.4498,-2.4359,-2.4302,-2.4302,-2.4302,-2.4302,-2.4302,-2.4302,-2.4302,-2.4302,-2.4302,-2.4302,-2.4302,-2.4302,-2.4302,-2.4302,-2.4302,-2.4302,-2.3372,-2.4019,-2.4319,-2.3271,-2.3386,-2.3359,-2.1808,-2.2004,-2.2357,-2.1708,-2.0891,-2.0149,-1.9536,-1.8735,-1.7914,-1.7147,-1.6453,-1.6038,-1.6038,-1.5537,-1.5175,-1.5175,-1.4959,-1.4804,-1.4804,-1.4865,-1.4938,-1.4996,-1.5052,-1.5092,-1.5061,-1.5159,-1.5759,-1.6996,-1.7526,-1.845,-1.9763,-2.022,-2.0469,-2.0494,-2.0422,-2.041,-2.0399,-2.0231,-2.0103,-2.005,-1.9828,-1.9982,-2.0476,-2.161,-2.23,-2.2722,-2.3713,-2.4266,-2.4429,-2.3959,-2.3795,-2.3774,-2.3576,-2.3319,-2.3095,-2.3095,-2.3095,-2.3028,-2.2944,-2.2756,-2.2527,-2.2096,-2.1764,-2.1464,-2.1119,-2.0925,-2.0794,-2.0794,-2.1079,-2.1458,-2.179,-2.269,-2.3528,-2.386,-2.4492,-2.5005,-2.5005,-2.5005,-2.5005,-2.5005,-2.5005,-2.5005,-2.5005,-2.5005,-2.4942,-2.4822,-2.4726,-2.4645,-2.4498,-2.4457,-2.4359,-2.4302,-2.4302,-2.4302,-2.4302,-2.4302,-2.4302,-2.4302,-2.4302,-2.4302,-2.4302,-2.4302,-2.4302,-2.4302,-2.4302,-2.4302,-2.3806,-2.4581,-2.4799,-2.3252,-2.3798,-2.4061,-2.1482,-2.2428,-2.3579,-2.2682,-2.1765,-2.068,-1.927,-1.8681,-1.7931,-1.6451,-1.5645,-1.5225,-1.5211,-1.4794,-1.4501,-1.4501,-1.4678,-1.4776,-1.4776,-1.483,-1.4881,-1.4879,-1.4981,-1.4996,-1.4904,-1.5188,-1.6066,-1.7547,-1.785,-1.8763,-2.0376,-2.0399,-2.044,-2.0508,-2.0438,-2.0395,-2.0398,-2.0212,-2.0137,-2.0129,-1.9972,-1.9843,-1.9894,-2.1521,-2.2129,-2.2179,-2.3602,-2.4284,-2.4446,-2.4077,-2.3899,-2.3816,-2.362,-2.3371,-2.3151,-2.3119,-2.3052,-2.2995,-2.2919,-2.285,-2.2721,-2.232,-2.2027,-2.1721,-2.1371,-2.1055,-2.0794,-2.0794,-2.0794,-2.0968,-2.1568,-2.2327,-2.3054,-2.3623,-2.4413,-2.5005,-2.5005,-2.5005,-2.5005,-2.5005,-2.5005,-2.5005,-2.5005,-2.5005,-2.4966,-2.4862,-2.4822,-2.4742,-2.4539,-2.4498,-2.4457,-2.4302,-2.4302,-2.4302,-2.4302,-2.4302,-2.4302,-2.4302,-2.4302,-2.4302,-2.4302,-2.4302,-2.4302,-2.4302,-2.4302,-2.4302,-2.3001,-2.3743,-2.4347,-2.4664,-2.4753,-2.4454,-2.321,-2.3073,-2.3159,-2.2959,-2.2005,-2.0918,-2.0021,-1.8233,-1.6576,-1.5592,-1.4936,-1.4483,-1.4376,-1.4447,-1.4501,-1.4501,-1.4643,-1.4714,-1.4714,-1.4724,-1.4755,-1.4822,-1.484,-1.4856,-1.4896,-1.5632,-1.6538,-1.757,-1.8348,-1.9283,-2.0399,-2.04,-2.0431,-2.0508,-2.0438,-2.0395,-2.0405,-2.0315,-2.026,-2.0253,-2.0012,-1.996,-2.0164,-2.1601,-2.2187,-2.2327,-2.3847,-2.4482,-2.45,-2.4429,-2.4248,-2.4039,-2.3837,-2.3602,-2.3412,-2.3193,-2.3052,-2.2995,-2.2919,-2.285,-2.2721,-2.232,-2.2027,-2.1721,-2.1371,-2.1055,-2.0794,-2.0794,-2.0794,-2.0826,-2.0921,-2.1963,-2.2948,-2.3006,-2.4119,-2.5005,-2.5005,-2.5005,-2.5005,-2.5005,-2.5005,-2.5005,-2.5005,-2.5005,-2.5005,-2.4982,-2.4862,-2.4726,-2.4589,-2.4523,-2.4457,-2.4302,-2.4302,-2.4302,-2.4302,-2.4302,-2.4302,-2.4302,-2.4302,-2.4302,-2.4302,-2.4302,-2.4302,-2.4302,-2.4302,-2.4302,-2.4147,-2.4654,-2.4794,-2.4629,-2.4779,-2.4587,-2.3129,-2.303,-2.3247,-2.3097,-2.1894,-2.0623,-1.9771,-1.8424,-1.686,-1.509,-1.4574,-1.4399,-1.4374,-1.4444,-1.453,-1.4592,-1.4661,-1.4701,-1.4701,-1.4701,-1.4703,-1.4746,-1.4766,-1.4982,-1.5441,-1.5923,-1.68,-1.8127,-1.8644,-1.9362,-2.0328,-2.0385,-2.0422,-2.0508,-2.043,-2.0406,-2.0395,-2.0328,-2.0253,-2.0188,-2.0143,-2.0069,-2.0104,-2.1664,-2.2257,-2.2356,-2.3899,-2.45,-2.45,-2.45,-2.4339,-2.4078,-2.3878,-2.3685,-2.3458,-2.3175,-2.3052,-2.2995,-2.2919,-2.285,-2.2764,-2.2544,-2.2141,-2.1768,-2.1617,-2.1198,-2.0794,-2.0794,-2.0794,-2.0794,-2.0794,-2.19,-2.3117,-2.3929,-2.4594,-2.5005,-2.5005,-2.5005,-2.5005,-2.5005,-2.5005,-2.5005,-2.5005,-2.5005,-2.5005,-2.5005,-2.4942,-2.4846,-2.463,-2.4937,-2.4916,-2.4333,-2.4656,-2.4702,-2.4317,-2.4302,-2.4302,-2.4302,-2.4302,-2.4302,-2.4302,-2.4302,-2.4302,-2.4317,-2.4702,-2.4671,-2.4898,-2.5219,-2.5046,-2.4622,-2.4852,-2.4758,-2.3179,-2.3202,-2.3455,-2.3068,-2.184,-2.0541,-1.967,-1.8601,-1.709,-1.4811,-1.4497,-1.4541,-1.4577,-1.4598,-1.4637,-1.4724,-1.4732,-1.4732,-1.4732,-1.4712,-1.4701,-1.4701,-1.4755,-1.5092,-1.5863,-1.6259,-1.7112,-1.8541,-1.8983,-1.9537,-2.0277,-2.0369,-2.0432,-2.0505,-2.0448,-2.0423,-2.0418,-2.0369,-2.0262,-2.0164,-2.0265,-2.019,-2.0124,-2.1744,-2.2337,-2.2398,-2.3915,-2.45,-2.45,-2.45,-2.4357,-2.4154,-2.3899,-2.3689,-2.3508,-2.3199,-2.3028,-2.297,-2.2919,-2.2842,-2.2764,-2.2712,-2.2287,-2.1797,-2.1797,-2.1293,-2.0794,-2.0794,-2.0794,-2.0889,-2.1252,-2.2153,-2.3343,-2.4736,-2.5005,-2.5005,-2.5005,-2.5005,-2.5005,-2.5005,-2.5005,-2.5005,-2.5005,-2.5005,-2.5005,-2.5005,-2.5163,-2.5154,-2.4911,-2.555,-2.5575,-2.461,-2.5041,-2.501,-2.4333,-2.4302,-2.4302,-2.4302,-2.4302,-2.4302,-2.4302,-2.4302,-2.4302,-2.4317,-2.4825,-2.4795,-2.4195,-2.4453,-2.4601,-2.5262,-2.5418,-2.5135,-2.413,-2.3938,-2.3725,-2.2881,-2.1981,-2.1091,-2.0222,-1.8478,-1.6599,-1.4863,-1.4748,-1.4849,-1.4785,-1.484,-1.4867,-1.4794,-1.4794,-1.4793,-1.4793,-1.4743,-1.4701,-1.4701,-1.4693,-1.5046,-1.5852,-1.6676,-1.7581,-1.8566,-1.9473,-2.0031,-2.0208,-2.0324,-2.0426,-2.0506,-2.0504,-2.0481,-2.0497,-2.0434,-2.0351,-2.0287,-2.0308,-2.0285,-2.0395,-2.1802,-2.2407,-2.252,-2.3948,-2.45,-2.45,-2.45,-2.45,-2.4411,-2.3959,-2.3795,-2.371,-2.3247,-2.302,-2.2902,-2.2893,-2.2816,-2.2712,-2.2712,-2.2287,-2.1797,-2.1797,-2.1293,-2.0794,-2.0794,-2.0794,-2.1158,-2.2485,-2.2869,-2.3343,-2.4736,-2.5005,-2.5005,-2.5005,-2.5005,-2.5005,-2.5005,-2.5005,-2.5005,-2.5005,-2.5005,-2.5005,-2.5005,-2.555,-2.5879,-2.5659,-2.6268,-2.6259,-2.5302,-2.5287,-2.501,-2.4333,-2.4302,-2.4302,-2.4302,-2.4302,-2.4302,-2.4302,-2.4302,-2.4302,-2.4302,-2.4348,-2.4333,-2.4869,-2.5132,-2.5233,-2.5508,-2.5509,-2.5379,-2.5051,-2.4455,-2.4079,-2.4321,-2.2794,-2.1309,-2.0985,-1.9002,-1.7037,-1.5872,-1.5283,-1.4933,-1.4866,-1.4917,-1.4944,-1.4876,-1.4902,-1.4902,-1.4877,-1.4832,-1.5048,-1.5552,-1.5516,-1.6056,-1.7374,-1.7733,-1.8317,-1.922,-1.9722,-2.0098,-2.0269,-2.0308,-2.0363,-2.0445,-2.0449,-2.0468,-2.0501,-2.0422,-2.0395,-2.0359,-2.0321,-2.0299,-2.0373,-2.1217,-2.1897,-2.2476,-2.3332,-2.3999,-2.45,-2.45,-2.45,-2.4429,-2.3959,-2.3795,-2.3732,-2.3253,-2.3045,-2.297,-2.2902,-2.2842,-2.2764,-2.2712,-2.2381,-2.2027,-2.184,-2.1448,-2.1055,-2.086,-2.0958,-2.1327,-2.2096,-2.258,-2.3164,-2.4112,-2.4665,-2.5005,-2.5005,-2.5169,-2.5329,-2.5329,-2.5329,-2.5329,-2.5329,-2.5146,-2.5005,-2.5005,-2.5227,-2.5478,-2.5754,-2.6358,-2.6507,-2.6096,-2.6024,-2.5687,-2.4979,-2.4533,-2.4302,-2.4302,-2.4302,-2.4302,-2.4302,-2.4302,-2.4302,-2.4317,-2.4748,-2.4718,-2.5343,-2.5522,-2.5573,-2.5583,-2.5566,-2.5534,-2.5558,-2.5036,-2.4613,-2.4904,-2.3339,-2.1847,-2.1548,-1.9656,-1.7747,-1.6551,-1.5649,-1.5047,-1.5011,-1.504,-1.504,-1.4981,-1.5015,-1.5008,-1.4944,-1.5184,-1.5545,-1.6062,-1.6228,0.0,-1.8228,-1.8328,-1.8746,-1.9713,-1.9926,-2.0108,-2.0254,-2.0296,-2.0334,-2.04,-2.0428,-2.0459,-2.0508,-2.0486,-2.0434,-2.0394,-2.0344,-2.0328,-2.0373,-2.1251,-2.1926,-2.2495,-2.3359,-2.4031,-2.45,-2.45,-2.45,-2.4429,-2.4039,-2.3858,-2.3732,-2.3348,-2.3102,-2.297,-2.2902,-2.2842,-2.2764,-2.2712,-2.2463,-2.2164,-2.1969,-2.1691,-2.1402,-2.1198,-2.1214,-2.1391,-2.1646,-2.2128,-2.2817,-2.3749,-2.4302,-2.4759,-2.5098,-2.5329,-2.554,-2.5689,-2.5689,-2.5652,-2.554,-2.5307,-2.5107,-2.5005,-2.5211,-2.5543,-2.5955,-2.654,-2.6726,-2.6373,-2.6302,-2.5877,-2.501,-2.4548,-2.4302,-2.4302,-2.4302,-2.4302,-2.4302,-2.4302,-2.4302,-2.4317,-2.4779,-2.4733,0.0,0.0,0.0,-2.5578,-2.5595,-2.5619,-2.5683,-2.5631,-2.5339,-2.4514,-2.3611,-2.2705,-2.1885,-2.0351,-1.861,-1.6858,-1.5851,-1.5287,-1.5281,-1.5287,-1.5251,-1.5184,-1.5184,-1.5162,-1.5095,-1.5786,-1.6243,-1.6185,-1.6787,-1.7485,-1.8284,-1.8398,-1.8906,-1.9963,-2.0058,-2.0126,-2.0197,-2.0254,-2.0328,-2.04,-2.0464,-2.0508,-2.0508,-2.0565,-2.0533,-2.0399,-2.0425,-2.039,-2.0458,-2.1962,-2.2502,-2.2584,-2.4076,-2.4613,-2.45,-2.45,-2.45,-2.4446,-2.4192,-2.3979,-2.3774,-2.3553,-2.3223,-2.2893,-2.2893,-2.2816,-2.2712,-2.2712,-2.2463,-2.222,-2.2192,-2.2027,-2.1811,-2.1797,-2.1556,-2.1309,-2.1309,-2.1598,-2.2264,-2.3623,-2.3907,-2.4227,-2.5314,-2.554,-2.5689,-2.6052,-2.6139,-2.598,-2.5577,-2.5503,-2.5368,-2.5045,-2.5566,-2.6084,-2.635,-2.6951,-2.6955,-2.6163,-2.6002,-2.544,-2.4405,-2.4317,-2.4302,-2.4302,-2.4302,-2.4302,-2.4302,-2.4302,-2.4302,-2.4302,-2.4302,-2.4302,-2.5339,0.0,0.0,0.0,0.0,0.0,-2.5618,-2.5132,-2.4785,-2.5227,-2.3583,-2.2174,-2.2578,-2.0722,-1.8964,-1.8469,-1.7657,-1.7076,-1.7086,-1.7127,-1.7123,-1.7054,-1.7106,-1.7092,-1.7035,-1.7183,-1.7502,0.0,-1.809,-1.8416,-1.9127,-1.9197,-1.9439,-1.9982,-2.0015,-2.0078,-2.0188,-2.0214,-2.0294,-2.04,-2.0464,-2.0499,-2.0502,-2.0566,-2.0523,-2.0448,-2.1075,-2.1275,-2.1207,-2.157,-2.2342,-2.3296,-2.3677,-2.4108,-2.45,-2.45,-2.45,-2.4446,-2.4192,-2.3979,-2.3753,-2.3508,-2.3199,-2.2893,-2.2842,-2.2764,-2.2712,-2.2712,-2.2642,-2.2517,-2.2248,-2.2136,-2.2039,-2.184,-2.1738,-2.1661,-2.1661,-2.1359,-2.1505,-2.2896,-2.3818,-2.46,-2.5389,-2.598,-2.6401,-2.6505,-2.6539,-2.6401,-2.598,-2.5689,-2.5368,-2.5045,-2.5179,-2.5496,-2.6068,-2.6413,-2.6709,-2.6955,-2.6313,-2.5784,-2.5472,-2.4715,-2.4302,-2.4302,-2.4302,-2.4302,-2.4302,-2.4302,-2.4302,-2.4302,-2.4302,-2.4302,-2.5303,-2.5331,-2.5365,-2.5379,0.0,0.0,-2.5532,-2.5177,-2.4854,-2.5072,-2.3571,-2.2284,-2.2422,-2.0918,-1.9629,-1.9609,-1.9165,-1.8611,-1.7946,-1.7882,-1.789,-1.7844,-1.7882,-1.7878,-1.7808,-1.8095,-1.8432,-1.8771,-1.8949,-1.92,-1.9561,-1.958,-1.9707,-1.9982,-2.0012,-2.0057,-2.0153,-2.0199,-2.0246,-2.0351,-2.0457,-2.0497,-2.05,-2.0566,-2.0525,-2.0456,-2.1328,-2.183,-2.2053,-2.2307,-2.2867,-2.3631,-2.3955,-2.4245,-2.45,-2.45,-2.45,-2.4482,-2.4321,-2.4039,-2.3714,-2.358,-2.3212,-2.2868,-2.2816,-2.2764,-2.2712,-2.2712,-2.2712,-2.2659,-2.2463,-2.2419,-2.2364,-2.2215,-2.1986,-2.1797,-2.1797,-2.1386,-2.1471,-2.3001,-2.3719,-2.4495,-2.5779,-2.6401,-2.6775,-2.6925,-2.6957,-2.6725,-2.6175,-2.5908,-2.5556,-2.5045,-2.5005,-2.5282,-2.5963,-2.6121,-2.6377,-2.6906,-2.6322,-2.5846,-2.5519,-2.4883,-2.4451,-2.4302,-2.4302,-2.4302,-2.4302,-2.4302,-2.4302,-2.4302,-2.4302,-2.4302,-2.5303,-2.5303,-2.5313,-2.5374,-2.5398,0.0,-2.5331,-2.5253,-2.498,-2.4261,-2.333,-2.2465,-2.1798,-2.0943,-2.0336,-2.0298,-2.0282,-1.9783,-1.8361,-1.8163,-1.8163,-1.818,-1.8178,-1.8142,-1.8099,-1.8785,-1.9156,-1.8986,-1.9485,-1.9783,-1.975,-1.9713,-1.9811,-2.0004,-1.9993,-2.0036,-2.0098,-2.0162,-2.0238,-2.033,-2.043,-2.0499,-2.0504,-2.0566,-2.0582,-2.0584,-2.1459,-2.2256,-2.3004,-2.3686,-2.3888,-2.3814,-2.4571,-2.4719,-2.45,-2.45,-2.45,-2.45,-2.45,-2.4154,-2.3692,-2.3692,-2.3283,-2.2816,-2.279,-2.2738,-2.2712,-2.2712,-2.2712,-2.2712,-2.2712,-2.2712,-2.2712,-2.2712,-2.2243,-2.184,-2.184,-2.1587,-2.1856,-2.3521,-2.372,-2.4247,-2.6219,-2.6674,-2.6875,-2.725,-2.7299,-2.704,-2.628,-2.6139,-2.5815,-2.5146,-2.5045,-2.5323,-2.598,-2.5994,-2.6082,-2.6383,-2.621,-2.5762,-2.502,-2.4942,-2.4719,-2.4302,-2.4302,-2.4302,-2.4302,-2.4302,-2.4302,-2.4302,-2.4302,-2.4302,-2.5264,-2.5303,-2.5293,-2.5313,-2.5313,0.0,-2.445,-2.3747,-2.3195,-2.297,-2.1675,-2.0781,-2.1423,-2.0732,-2.0106,-2.0205,-2.023,-2.013,-1.9861,-1.9878,-1.9895,-1.9843,-1.9883,-1.9902,-1.9887,-1.9994,-2.0042,-2.0019,-1.9869,-1.9861,-2.001,-1.9828,-1.9816,-2.0078,-2.0036,-2.0067,-2.0171,-2.0188,-2.0288,-2.046,-2.0494,-2.0527,-2.0586,-2.0583,-2.0911,-2.1493,-2.2308,-2.3107,-2.3918,-2.4697,-2.4866,-2.4661,-2.4704,-2.4645,-2.45,-2.45,-2.45,-2.45,-2.4447,-2.4096,-2.3692,-2.3566,-2.3194,-2.279,-2.2738,-2.2712,-2.2712,-2.2712,-2.2712,-2.2712,-2.2712,-2.2712,-2.2712,-2.2712,-2.2392,-2.2124,-2.2124,-2.1911,-2.2076,-2.3274,-2.3944,-2.4618,-2.5576,-2.6531,-2.7218,-2.7299,-2.7299,-2.7137,-2.6657,-2.628,-2.5908,-2.5443,-2.5406,-2.5465,-2.5615,-2.6049,-2.6314,-2.6383,-2.621,-2.5872,-2.5389,-2.5082,-2.4719,-2.4302,-2.4302,-2.4302,-2.4302,-2.4302,-2.4302,-2.4302,-2.4302,-2.4302,-2.508,-2.5103,-2.5103,-2.5103,-2.5103,0.0,0.0,-2.3796,-2.3195,-2.316,-2.1819,-2.0786,-2.1262,-2.0603,-2.0012,-2.0031,-2.0046,-2.0069,-2.0102,-2.0642,-2.1198,-2.16,-2.1681,-2.1698,-2.1699,-2.1672,-2.1636,-2.1609,-2.1012,-2.0843,-2.1321,-2.0807,-2.0732,-2.1274,-2.1267,-2.1293,-2.1407,-2.1426,-2.1304,-2.1041,-2.1114,-2.0958,-2.0603,-2.1051,-2.1418,-2.1775,-2.3007,-2.3765,-2.4159,-2.4887,-2.5126,-2.4994,-2.4847,-2.4719,-2.4599,-2.4515,-2.4482,-2.443,-2.4266,-2.3941,-2.3566,-2.3369,-2.3049,-2.2738,-2.2712,-2.2712,-2.2712,-2.2712,-2.2712,-2.2712,-2.2712,-2.2712,-2.2712,-2.2712,-2.2446,-2.2192,-2.2192,-2.2096,-2.2157,-2.2699,-2.3522,-2.4496,-2.5593,-2.6296,-2.6833,-2.723,-2.7299,-2.7137,-2.6758,-2.6539,-2.6175,-2.5577,-2.5503,-2.5577,-2.5799,-2.603,-2.6295,-2.6691,-2.6505,-2.6139,-2.554,-2.5313,-2.4902,-2.4302,-2.4302,-2.4302,-2.4302,-2.4302,-2.4302,-2.4302,-2.4302,-2.4302,-2.4902,-2.4902,-2.4902,-2.4902,-2.4902,-2.4864,0.0,0.0,0.0,-2.3214,-2.2099,-2.1132,-2.0953,-2.0371,-1.9922,-1.9866,-1.9855,-1.993,-2.0093,-2.093,-2.1791,-2.2559,-2.268,-2.2766,-2.2929,-2.2836,-2.2792,-2.2886,-2.2036,-2.1853,-2.2611,-2.1943,-2.1861,-2.2509,-2.2524,-2.254,-2.262,-2.269,-2.2424,-2.1861,-2.1808,-2.1544,-2.1109,-2.1656,-2.2001,-2.2269,-2.3614,-2.4256,-2.437,-2.4913,-2.5107,-2.5072,-2.491,-2.4808,-2.4676,-2.4532,-2.4447,-2.4358,-2.4078,-2.378,-2.3477,-2.3183,-2.2917,-2.2712,-2.2712,-2.2712,-2.2712,-2.2712,-2.2712,-2.2712,-2.2712,-2.2712,-2.2712,-2.2712,-2.249,-2.2292,-2.222,-2.2248,-2.2292,-2.222,-2.3089,-2.4236,-2.5661,-2.6023,-2.6385,-2.7178,-2.7299,-2.7186,-2.6842,-2.6742,-2.6436,-2.5799,-2.5652,-2.5726,-2.6052,-2.603,-2.6241,-2.6825,-2.6775,-2.635,-2.5652,-2.5465,-2.5098,-2.4426,-2.4343,-2.4343,-2.4426,-2.4343,-2.4302,-2.4302,-2.4302,-2.4302,-2.4874,-2.4902,-2.4902,-2.4902,-2.4902,-2.4685,-2.386,0.0,-2.3074,-2.1465,0.0,-2.0644,-1.9989,0.0,0.0,-1.9701,-1.9732,-1.9995,-2.0766,-2.0885,-2.1022,-2.1271,-2.1473,-2.1891,-2.2667,-2.2193,-2.2148,-2.2845,-2.209,-2.1958,-2.2818,-2.2596,-2.2518,-2.2661,-2.2621,-2.262,-2.269,-2.2765,-2.2817,-2.2831,-2.2078,-2.2096,-2.2809,-2.2181,-2.2639,-2.3925,-2.4119,-2.4566,-2.5168,-2.5254,-2.5222,-2.5072,-2.4818,-2.4704,-2.4676,-2.4481,-2.4412,-2.4339,-2.4018,-2.3735,-2.3455,-2.3206,-2.2927,-2.2712,-2.2712,-2.2712,-2.2712,-2.2712,-2.2712,-2.2712,-2.2712,-2.2712,-2.2712,-2.2712,-2.2685,-2.2544,-2.2248,-2.2419,-2.2561,-2.2265,-2.3089,-2.4063,-2.4971,-2.5678,-2.6385,-2.7178,-2.7299,-2.7282,-2.725,-2.6859,-2.659,-2.659,-2.6208,-2.5994,-2.6104,-2.6262,-2.6383,-2.6453,-2.6624,-2.6505,-2.6052,-2.5351,-2.4942,-2.4823,-2.4492,-2.4492,-2.4823,-2.4451,-2.4302,-2.4302,-2.4302,-2.4302,-2.466,-2.4524,-2.442,-2.4626,-2.4524,-2.4329,-2.4134,-2.3332,-2.252,-2.2157,0.0,0.0,0.0,0.0,0.0,0.0,-1.9361,-1.9501,-1.9743,-1.9844,-2.0493,-2.219,-2.2451,0.0,-2.4034,-2.3542,-2.3491,-2.4348,-2.3161,-2.2979,-2.428,-2.383,-2.3744,-2.4197,-2.4187,-2.4187,-2.4216,-2.4273,-2.4115,-2.3754,-2.3413,-2.32,-2.3119,-2.3273,-2.3653,-2.4236,-2.4721,-2.5089,-2.5303,-2.5303,-2.5233,-2.5072,-2.4888,-2.4764,-2.4676,-2.4464,-2.4303,-2.4114,-2.3777,-2.3495,-2.3212,-2.2952,-2.279,-2.2712,-2.2712,-2.2712,-2.2712,-2.2712,-2.2712,-2.2712,-2.2712,-2.2712,-2.2712,-2.2712,-2.2712,-2.2642,-2.2517,-2.2588,-2.2659,-2.2517,-2.3216,-2.4046,-2.4867,-2.5609,-2.6385,-2.7178,-2.7299,-2.7299,-2.7299,-2.7122,-2.6925,-2.6674,-2.6279,-2.6101,-2.6367,-2.6191,-2.6262,-2.6791,-2.659,-2.6262,-2.5762,-2.5427,-2.5121,-2.4902,-2.4981,-2.4981,-2.4902,-2.4719,-2.4533,-2.4302,-2.4302,-2.4302,-2.4482,-2.4266,-2.4079,-2.4411,-2.4321,-2.4137,-2.4132,-2.3386,-2.2669,-2.2628,-2.1363,0.0,0.0,0.0,-1.9506,-1.9308,0.0,-1.9267,-1.8948,-1.8966,-1.9931,-2.2439,-2.3014,-2.3531,0.0,-2.3968,-2.41,-2.5026,-2.3965,-2.3903,-2.5383,-2.4875,-2.4771,-2.534,-2.5343,-2.5352,-2.5348,-2.5415,-2.5201,-2.4676,-2.4484,-2.4199,-2.3839,-2.4204,-2.444,-2.4585,-2.5208,-2.5422,-2.5303,-2.5253,-2.516,-2.5024,-2.4869,-2.4749,-2.4596,-2.4429,-2.4247,-2.3998,-2.3692,-2.3376,-2.307,-2.285,-2.2764,-2.2712,-2.2712,-2.2712,-2.2712,-2.2712,-2.2712,-2.2712,-2.2712,-2.2712,-2.2712,-2.2712,-2.2712,-2.2712,-2.2712,-2.2712,-2.2763,-2.297,-2.3598,-2.4384,-2.5178,-2.5764,-2.6385,-2.7178,-2.7299,-2.7282,-2.725,-2.725,-2.7105,-2.6759,-2.6349,-2.6227,-2.6521,-2.6191,-2.6245,-2.7006,-2.6674,-2.6227,-2.5689,-2.5652,-2.554,-2.5237,-2.5427,-2.5351,-2.5044,-2.4942,-2.4679,-2.4302,-2.4302,-2.4302,-2.4411,-2.4266,-2.4079,-2.4411,-2.45,-2.4259,-2.3425,-2.3851,-2.3892,-2.2026,-2.2191,-2.2354,-2.1267,-2.1046,-2.0795,-2.0081,-1.9917,0.0,0.0,-1.8678,-1.9206,-2.1053,-2.2301,-2.2803,-2.2255,-2.2353,-2.2892,0.0,-2.4006,-2.4433,-2.5544,-2.5449,-2.5408,-2.5492,-2.5492,-2.5483,-2.5483,-2.5554,-2.5603,-2.5641,-2.4803,-2.4824,-2.5595,-2.4709,-2.4719,-2.5459,-2.5432,-2.5365,-2.5303,-2.516,-2.5043,-2.4888,-2.47,-2.4528,-2.4412,-2.4339,-2.4266,-2.4154,-2.3878,-2.3491,-2.3095,-2.3095,-2.2919,-2.2712,-2.2712,-2.2712,-2.2712,-2.2712,-2.2712,-2.2712,-2.2712,-2.2712,-2.2712,-2.2712,-2.2712,-2.2712,-2.2712,-2.2712,-2.2892,-2.3615,-2.4419,-2.5212,-2.5954,-2.6092,-2.6385,-2.7178,-2.7299,-2.725,-2.7135,-2.7103,-2.7087,-2.7007,-2.664,-2.6383,-2.6418,-2.6383,-2.6538,-2.6893,-2.6893,-2.6657,-2.6104,-2.6087,-2.6052,-2.6052,-2.5689,-2.5503,-2.5465,-2.5098,-2.4679,-2.4302,-2.4302,-2.4302,0.0,0.0,-2.2923,-2.3929,0.0,-2.2427,-2.285,-2.2353,-2.1679,-2.1288,-2.0956,-2.0749,-2.0762,-2.0771,-2.0508,-1.9731,-1.9712,-1.9467,0.0,-1.8777,-1.9069,-1.9195,-2.0745,-2.177,-2.1721,-2.1981,-2.2527,-2.346,-2.3784,0.0,-2.5342,-2.5481,-2.5547,-2.5562,-2.5576,-2.557,-2.558,-2.559,-2.5602,-2.5623,-2.5389,-2.5403,-2.5689,-2.5327,-2.5284,-2.5498,-2.5425,-2.5357,-2.5303,-2.516,-2.4981,-2.4809,-2.4651,-2.4459,-2.4266,-2.4229,-2.4135,-2.3937,-2.3491,-2.3247,-2.307,-2.2876,-2.2764,-2.2712,-2.2712,-2.2712,-2.2712,-2.2712,-2.2712,-2.2712,-2.2712,-2.2712,-2.2712,-2.2712,-2.2712,-2.2712,-2.2712,-2.3064,-2.3495,-2.3736,-2.485,-2.5816,-2.6074,-2.654,-2.6988,-2.7247,-2.7299,-2.7282,-2.7233,-2.7152,-2.707,-2.7007,-2.6607,-2.6435,-2.6691,-2.6808,-2.6908,-2.6942,-2.6959,-2.6725,-2.6139,-2.6367,-2.635,-2.6104,-2.6245,-2.6016,-2.5503,-2.5351,-2.4942,-2.4302,-2.4302,-2.4302,-2.2926,-2.226,0.0,-2.2797,-2.2126,0.0,-2.2077,-2.1679,-2.1114,-2.0969,-2.0915,-2.0829,-2.0582,-2.0761,-2.0599,-1.9554,-1.9473,-1.9255,0.0,-1.8603,-1.8724,-1.8262,-1.9641,-2.0728,-2.0934,-2.1228,-2.1912,-2.3203,-2.3607,-2.4207,0.0,-2.5418,-2.5548,-2.5605,-2.5605,-2.5605,-2.564,-2.5644,-2.5644,-2.5643,-2.5675,-2.5683,-2.5654,-2.5598,-2.5526,-2.546,-2.5379,-2.534,-2.5283,-2.5072,-2.4917,-2.4766,-2.454,-2.4355,-2.4192,-2.4192,-2.4115,-2.3955,-2.3508,-2.3301,-2.3182,-2.2927,-2.279,-2.2712,-2.2712,-2.2712,-2.2712,-2.2712,-2.2712,-2.2712,-2.2712,-2.2712,-2.2712,-2.2712,-2.2712,-2.2754,-2.3013,-2.3443,-2.3943,-2.4494,-2.5436,-2.6195,-2.6488,-2.6954,-2.7299,-2.7299,-2.7299,-2.7282,-2.7233,-2.7201,-2.712,-2.6992,-2.6725,-2.6657,-2.6893,-2.6975,-2.7023,-2.6992,-2.6942,-2.6759,-2.6315,-2.6539,-2.6573,-2.6315,-2.659,-2.6315,-2.5503,-2.5503,-2.5098,-2.4302,-2.4302,-2.4302]},{"header":{"parameterUnit":"m.s-1","parameterCategory":1,"la1":30.6,"la2":29.2853,"lo1":-89.7004,"lo2":-87.6739,"dy":0.0162,"dx":0.0183,"nx":112,"ny":82,"refTime":"2025-08-17T06:00:00:Z","depth":0,"parameterNumber":3,"parameterNumberName":"V-component_of_WINDS"},"data":[0.0,0.0,0.0,0.0,0.0,0.0,0.0,0.0,0.0,0.0,0.0,0.0,0.0,0.0,0.0,0.0,0.0,0.0,0.0,0.0,0.0,0.0,0.0,0.0,0.0,0.0,0.0,0.0,0.0,0.0,0.0,0.0,0.0,0.0,0.0,0.0,0.0,0.0,0.0,0.0,0.0,0.0,0.0,0.0,0.0,0.0,0.0,0.0,0.0,0.0,0.0,0.0,0.0,0.0,0.0,0.0,0.0,0.0,0.0,0.0,0.0,0.0,0.0,0.0,0.0,0.0,0.0,0.0,0.0,0.0,0.0,0.0,0.0,0.0,0.0,0.0,0.0,0.0,0.0,0.0,0.0,0.0,0.0,0.0,0.0,0.0,0.0,0.0,0.0,0.0,-0.5044,-0.5407,-0.5741,-0.5888,-0.5888,-0.6214,-0.6578,-0.6924,0.0,0.0,0.0,0.0,0.0,0.0,0.0,0.0,0.0,0.0,0.0,0.0,0.0,0.0,0.0,0.0,0.0,0.0,0.0,0.0,0.0,0.0,0.0,0.0,0.0,0.0,0.0,0.0,0.0,0.0,0.0,0.0,0.0,0.0,0.0,0.0,0.0,0.0,0.0,0.0,0.0,0.0,0.0,0.0,0.0,0.0,0.0,0.0,0.0,0.0,0.0,0.0,0.0,0.0,0.0,0.0,0.0,0.0,0.0,0.0,0.0,0.0,0.0,0.0,0.0,0.0,0.0,0.0,0.0,0.0,0.0,0.0,0.0,0.0,0.0,0.0,0.0,0.0,0.0,0.0,0.0,0.0,0.0,0.0,0.0,0.0,0.0,0.0,0.0,0.0,0.0,0.0,0.0,0.0,0.0,0.0,0.0,0.0,0.0,0.0,0.0,0.0,0.0,0.0,-0.5264,-0.5549,-0.5741,-0.5888,-0.5888,-0.6741,-0.7163,-0.6778,0.0,0.0,0.0,0.0,0.0,0.0,0.0,0.0,0.0,0.0,0.0,0.0,0.0,0.0,0.0,0.0,0.0,0.0,0.0,0.0,0.0,0.0,0.0,0.0,0.0,0.0,0.0,0.0,0.0,0.0,0.0,0.0,0.0,0.0,0.0,0.0,0.0,0.0,0.0,0.0,0.0,0.0,0.0,0.0,0.0,0.0,0.0,0.0,0.0,0.0,0.0,0.0,0.0,0.0,0.0,0.0,0.0,0.0,0.0,0.0,0.0,0.0,0.0,0.0,0.0,0.0,0.0,0.0,0.0,0.0,0.0,0.0,0.0,0.0,0.0,0.0,0.0,0.0,0.0,0.0,0.0,0.0,0.0,0.0,0.0,0.0,0.0,0.0,0.0,0.0,0.0,0.0,0.0,0.0,0.0,0.0,0.0,0.0,0.0,0.0,0.0,0.0,0.0,-0.5279,-0.5519,-0.5581,-0.5951,-0.6152,-0.6086,-0.6933,-0.7404,-0.7215,-0.7641,0.0,0.0,0.0,0.0,0.0,0.0,0.0,0.0,0.0,0.0,0.0,0.0,0.0,0.0,0.0,0.0,0.0,0.0,0.0,0.0,0.0,0.0,0.0,0.0,0.0,0.0,0.0,0.0,0.0,0.0,0.0,0.0,0.0,0.0,0.0,0.0,0.0,0.0,0.0,0.0,0.0,0.0,0.0,0.0,0.0,0.0,0.0,0.0,0.0,0.0,0.0,0.0,0.0,0.0,0.0,0.0,0.0,0.0,0.0,0.0,0.0,0.0,0.0,0.0,0.0,0.0,0.0,0.0,0.0,0.0,0.0,0.0,0.0,0.0,0.0,0.0,0.0,0.0,0.0,0.0,0.0,0.0,0.0,0.0,0.0,0.0,0.0,0.0,0.0,0.0,0.0,0.0,0.0,0.0,0.0,0.0,0.0,0.0,0.0,0.0,0.0,0.0,-0.56,-0.5794,-0.572,-0.628,-0.6544,-0.6474,-0.7344,-0.7855,-0.7812,-0.8434,0.0,0.0,0.0,0.0,0.0,0.0,0.0,0.0,0.0,0.0,0.0,0.0,0.0,0.0,0.0,0.0,0.0,0.0,0.0,0.0,0.0,0.0,0.0,0.0,0.0,0.0,0.0,0.0,0.0,0.0,0.0,0.0,0.0,0.0,0.0,0.0,0.0,0.0,0.0,0.0,0.0,0.0,0.0,0.0,0.0,0.0,0.0,0.0,0.0,0.0,0.0,0.0,0.0,0.0,0.0,0.0,0.0,0.0,0.0,0.0,0.0,0.0,0.0,0.0,0.0,0.0,0.0,0.0,0.0,0.0,0.0,0.0,0.0,0.0,0.0,0.0,0.0,0.0,0.0,0.0,0.0,0.0,0.0,0.0,0.0,0.0,0.0,0.0,0.0,0.0,0.0,0.0,0.0,0.0,0.0,0.0,0.0,0.0,0.0,0.0,0.0,0.0,-0.5986,-0.6187,-0.6145,-0.6728,-0.7116,-0.7116,-0.828,-0.8847,-0.8569,-0.8903,0.0,0.0,0.0,0.0,0.0,0.0,0.0,0.0,0.0,0.0,0.0,0.0,0.0,0.0,0.0,0.0,0.0,0.0,0.0,0.0,0.0,0.0,0.0,0.0,0.0,0.0,0.0,0.0,0.0,0.0,0.0,0.0,0.0,0.0,0.0,0.0,0.0,0.0,0.0,0.0,0.0,0.0,0.0,0.0,0.0,0.0,0.0,0.0,0.0,0.0,0.0,0.0,0.0,0.0,0.0,0.0,0.0,0.0,0.0,0.0,0.0,0.0,0.0,0.0,0.0,0.0,0.0,0.0,0.0,0.0,0.0,0.0,0.0,0.0,0.0,0.0,0.0,0.0,0.0,0.0,0.0,0.0,0.0,0.0,0.0,0.0,0.0,0.0,0.0,0.0,0.0,0.0,0.0,0.0,0.0,0.0,0.0,0.0,0.0,0.0,0.0,0.0,-0.6524,-0.6985,-0.7372,-0.7772,-0.8027,-0.8027,-0.885,-0.9124,-0.8634,0.0,0.0,0.0,0.0,0.0,0.0,0.0,0.0,0.0,0.0,0.0,0.0,0.0,0.0,0.0,0.0,0.0,0.0,0.0,0.0,0.0,0.0,0.0,0.0,0.0,0.0,0.0,0.0,0.0,0.0,0.0,0.0,0.0,0.0,0.0,0.0,0.0,0.0,0.0,0.0,0.0,0.0,0.0,0.0,0.0,0.0,0.0,0.0,0.0,0.0,0.0,0.0,0.0,0.0,0.0,0.0,0.0,0.0,0.0,0.0,0.0,0.0,0.0,0.0,0.0,0.0,0.0,0.0,0.0,0.0,0.0,0.0,0.0,0.0,0.0,0.0,0.0,0.0,0.0,0.0,0.0,0.0,0.0,0.0,0.0,0.0,0.0,0.0,0.0,0.0,0.0,0.0,0.0,0.0,0.0,0.0,0.0,0.0,0.0,0.0,0.0,0.0,-0.6809,-0.7311,-0.78,-0.8215,-0.8619,-0.8807,-0.8807,-0.9382,-0.9457,-0.8999,0.0,0.0,0.0,0.0,0.0,0.0,0.0,0.0,0.0,0.0,0.0,0.0,0.0,0.0,0.0,0.0,0.0,0.0,0.0,0.0,0.0,0.0,0.0,0.0,0.0,0.0,0.0,0.0,0.0,0.0,0.0,0.0,0.0,0.0,0.0,0.0,0.0,0.0,0.0,0.0,0.0,0.0,0.0,0.0,0.0,0.0,0.0,0.0,0.0,0.0,0.0,0.0,0.0,0.0,0.0,0.0,0.0,0.0,0.0,0.0,0.0,0.0,0.0,0.0,0.0,0.0,0.0,0.0,0.0,0.0,0.0,0.0,0.0,0.0,0.0,0.0,0.0,0.0,0.0,0.0,0.0,0.0,0.0,0.0,0.0,0.0,0.0,0.0,0.0,0.0,0.0,0.0,0.0,0.0,0.0,0.0,0.0,0.0,0.0,0.0,0.0,0.0,-0.7774,-0.8194,-0.849,-0.8554,-0.9134,-0.9518,-0.9518,-0.9848,-1.0,0.0,0.0,0.0,0.0,0.0,0.0,0.0,0.0,0.0,0.0,0.0,0.0,0.0,0.0,0.0,0.0,0.0,0.0,0.0,0.0,0.0,0.0,0.0,0.0,0.0,0.0,0.0,0.0,0.0,0.0,0.0,0.0,0.0,0.0,0.0,0.0,0.0,0.0,0.0,0.0,0.0,0.0,0.0,0.0,0.0,0.0,0.0,0.0,0.0,0.0,0.0,0.0,0.0,0.0,0.0,0.0,0.0,0.0,0.0,0.0,0.0,0.0,0.0,0.0,0.0,0.0,0.0,0.0,0.0,0.0,0.0,0.0,0.0,0.0,0.0,0.0,0.0,0.0,0.0,0.0,0.0,0.0,0.0,0.0,0.0,0.0,0.0,0.0,0.0,0.0,0.0,0.0,0.0,0.0,0.0,0.0,0.0,0.0,0.0,0.0,0.0,0.0,0.0,-0.8422,-0.8939,-0.939,-0.9913,-1.0168,-1.0301,-1.0301,-1.0349,-1.0214,-0.9719,0.0,0.0,0.0,0.0,0.0,0.0,0.0,0.0,0.0,0.0,0.0,0.0,0.0,0.0,0.0,0.0,0.0,0.0,0.0,0.0,0.0,0.0,0.0,0.0,0.0,0.0,0.0,0.0,0.0,0.0,0.0,0.0,0.0,0.0,0.0,0.0,0.0,0.0,0.0,0.0,0.0,0.0,0.0,0.0,0.0,0.0,0.0,0.0,0.0,0.0,0.0,0.0,0.0,0.0,0.0,0.0,0.0,0.0,0.0,0.0,0.0,0.0,0.0,0.0,0.0,0.0,0.0,0.0,0.0,0.0,0.0,0.0,0.0,0.0,0.0,0.0,0.0,0.0,0.0,0.0,0.0,0.0,0.0,0.0,0.0,0.0,0.0,0.0,0.0,0.0,0.0,0.0,0.0,0.0,0.0,0.0,0.0,0.0,0.0,0.0,0.0,0.0,-0.9078,-0.9629,-1.0104,-1.0555,-1.0624,-1.0624,-1.0624,-1.0624,-1.0431,-1.0054,0.0,0.0,0.0,0.0,0.0,0.0,0.0,0.0,0.0,0.0,0.0,0.0,0.0,0.0,0.0,0.0,0.0,0.0,0.0,0.0,0.0,0.0,0.0,0.0,0.0,0.0,0.0,0.0,0.0,0.0,0.0,0.0,0.0,0.0,0.0,0.0,0.0,0.0,0.0,0.0,0.0,0.0,0.0,0.0,0.0,0.0,0.0,0.0,0.0,0.0,0.0,0.0,0.0,0.0,0.0,0.0,0.0,0.0,0.0,0.0,0.0,0.0,0.0,0.0,0.0,0.0,0.0,0.0,0.0,0.0,0.0,0.0,0.0,0.0,0.0,0.0,0.0,0.0,0.0,0.0,0.0,0.0,0.0,0.0,0.0,0.0,0.0,0.0,0.0,0.0,0.0,0.0,0.0,0.0,0.0,0.0,0.0,0.0,0.0,0.0,0.0,0.0,-0.9686,-1.0255,-1.0624,-1.0624,-1.0624,-1.0624,-1.0624,-1.0598,-1.0574,-1.0502,0.0,0.0,0.0,0.0,0.0,0.0,0.0,0.0,0.0,0.0,0.0,0.0,0.0,0.0,0.0,0.0,0.0,0.0,0.0,0.0,0.0,0.0,0.0,0.0,0.0,0.0,0.0,0.0,0.0,0.0,0.0,0.0,0.0,0.0,0.0,0.0,0.0,0.0,0.0,0.0,0.0,0.0,0.0,0.0,0.0,0.0,0.0,0.0,0.0,0.0,0.0,0.0,0.0,0.0,0.0,0.0,0.0,0.0,0.0,0.0,-0.668,-0.695,0.0,0.0,0.0,0.0,0.0,0.0,0.0,0.0,0.0,0.0,0.0,0.0,0.0,0.0,0.0,0.0,0.0,0.0,0.0,0.0,0.0,0.0,0.0,0.0,0.0,0.0,0.0,0.0,0.0,0.0,0.0,0.0,0.0,0.0,0.0,0.0,0.0,0.0,0.0,0.0,-0.9686,-1.0255,-1.0624,-1.0624,-1.0624,-1.0624,-1.0624,-1.0766,-1.0752,-1.0487,-1.0971,0.0,0.0,0.0,0.0,0.0,0.0,0.0,0.0,0.0,0.0,0.0,0.0,0.0,0.0,0.0,0.0,0.0,0.0,0.0,0.0,0.0,0.0,0.0,0.0,0.0,0.0,0.0,0.0,0.0,0.0,0.0,0.0,0.0,0.0,0.0,0.0,0.0,0.0,0.0,0.0,0.0,0.0,0.0,0.0,0.0,0.0,0.0,0.0,0.0,0.0,0.0,0.0,0.0,0.0,0.0,0.0,0.0,0.0,0.0,-0.7302,-0.7845,0.0,0.0,0.0,0.0,0.0,0.0,0.0,0.0,0.0,0.0,0.0,0.0,0.0,0.0,0.0,0.0,0.0,0.0,0.0,0.0,0.0,0.0,0.0,0.0,0.0,0.0,0.0,0.0,0.0,0.0,0.0,0.0,0.0,0.0,0.0,0.0,0.0,0.0,0.0,0.0,-0.9686,-1.0255,-1.0624,-1.0624,-1.087,-1.0927,-1.0773,-1.115,-1.1378,-1.1382,-1.1486,0.0,0.0,0.0,0.0,0.0,0.0,0.0,0.0,0.0,0.0,0.0,0.0,0.0,0.0,0.0,0.0,0.0,0.0,0.0,0.0,0.0,0.0,0.0,0.0,0.0,0.0,0.0,0.0,0.0,0.0,0.0,0.0,0.0,0.0,0.0,0.0,0.0,0.0,0.0,0.0,0.0,0.0,0.0,0.0,0.0,0.0,0.0,0.0,0.0,0.0,0.0,0.0,0.0,-0.5942,-0.6019,-0.6286,-0.681,-0.7329,-0.769,-0.8187,-0.8735,-0.939,-0.9769,0.0,0.0,0.0,0.0,0.0,0.0,0.0,0.0,0.0,0.0,0.0,0.0,0.0,0.0,0.0,0.0,0.0,0.0,0.0,0.0,0.0,0.0,0.0,0.0,-1.0823,-1.0654,-0.9239,0.0,0.0,0.0,0.0,0.0,0.0,0.0,0.0,0.0,0.0,0.0,-0.9753,-1.0288,-1.0604,-1.0669,-1.1093,-1.1265,-1.0989,-1.1503,-1.1979,-1.2185,-1.1987,-1.2167,0.0,0.0,0.0,0.0,0.0,0.0,0.0,0.0,0.0,0.0,0.0,0.0,0.0,0.0,0.0,0.0,0.0,0.0,0.0,0.0,0.0,0.0,0.0,0.0,0.0,0.0,0.0,0.0,0.0,0.0,0.0,0.0,0.2364,0.2804,0.0,0.0,0.0,0.0,0.0,0.0,0.0,0.0,0.0,0.0,0.0,0.0,0.0,-0.4768,-0.5075,-0.536,-0.5668,-0.5912,-0.613,-0.659,-0.7294,-0.7423,-0.8179,-0.9567,-0.9611,0.0,-0.948,-1.0032,0.0,0.0,0.0,0.0,0.0,0.0,0.0,0.0,0.0,0.0,0.0,0.0,0.0,0.0,0.0,0.0,0.0,0.0,0.0,0.0,0.0,0.0,-1.1411,-1.1242,-1.1539,-1.1663,0.0,-1.0679,-1.0242,-0.9959,-0.9906,-0.9748,0.0,0.0,0.0,0.0,0.0,0.0,-1.0027,-1.0354,-1.0642,-1.0842,-1.0934,-1.1041,-1.1249,-1.1556,-1.1738,-1.1794,-1.2272,-1.2828,-1.3357,-1.3016,0.0,0.0,0.0,0.0,0.0,0.0,0.0,0.0,0.0,0.0,0.0,0.0,0.0,0.0,0.0,0.0,0.0,0.0,0.0,0.0,0.0,0.0,0.0,0.0,0.0,0.0,0.0,0.0,0.0,0.3132,0.3294,0.3583,0.2839,0.2134,0.0,0.0,0.0,0.0,0.0,0.0,0.0,0.0,0.0,-0.2254,-0.3579,-0.453,-0.5124,-0.5334,-0.5556,-0.5712,-0.5944,-0.6479,-0.7322,-0.7936,-0.8775,-0.9916,-1.0368,-1.0525,-1.0398,-1.0509,-1.0417,-1.0176,0.0,0.0,0.0,0.0,-1.1668,-1.1913,-1.2717,-1.2778,-1.252,-1.3101,0.0,0.0,0.0,0.0,0.0,0.0,0.0,0.0,0.0,0.0,-1.1083,-1.1475,-1.1475,-1.1455,-1.1414,-1.1361,-1.1163,-1.0483,-1.0367,-1.0127,-0.9316,-0.9379,0.0,0.0,0.0,-1.0502,-1.0636,-1.1066,-1.1337,-1.142,-1.1589,-1.1615,-1.1554,-1.1971,-1.2245,-1.2245,-1.2559,-1.2961,-1.3495,-1.3496,-1.3577,0.0,0.0,0.0,0.0,0.0,0.0,0.0,0.0,0.0,0.0,0.0,0.0,0.0,0.0,0.0,0.0,0.0,0.0,0.0,0.0,0.0,0.0,0.0,0.0,0.0,0.0,0.0,0.0,0.3947,0.4015,0.4107,0.3561,0.2918,0.0,0.0,0.0,0.0,0.0,0.0,0.0,-0.1009,-0.1844,-0.2298,-0.3473,-0.4422,-0.5101,-0.5195,-0.5398,-0.5559,-0.5786,-0.6475,-0.7544,-0.8318,-0.9231,-1.0218,-1.0812,-1.1111,-1.1093,-1.09,-1.0779,-1.0773,-1.1401,-1.1411,-1.1302,-1.2388,-1.2747,-1.2787,-1.3814,-1.3727,-1.338,-1.4187,-1.3858,-1.3059,-1.266,0.0,0.0,0.0,0.0,-1.2182,-1.2814,-1.2109,-1.1334,-1.1695,-1.171,-1.173,-1.1789,-1.2058,-1.202,0.0,-1.1045,-1.0861,-1.0094,-1.015,0.0,-0.9996,-1.0755,-1.1398,-1.1481,-1.184,-1.2099,-1.2137,-1.2255,-1.2226,-1.1956,-1.2313,-1.2567,-1.2567,-1.2567,-1.285,-1.3539,-1.37,-1.3763,-1.3792,0.0,0.0,0.0,0.0,0.0,0.0,0.0,0.0,0.0,0.0,0.0,0.0,0.0,0.0,0.0,0.0,0.0,0.0,0.0,0.0,0.0,0.0,0.0,0.0,0.0,0.0,0.0,0.0,0.0,0.4115,0.3554,0.0,0.0,0.0,0.0,0.0067,0.0,0.0,0.0,-0.1583,-0.244,-0.2493,-0.4062,-0.4929,-0.5007,-0.5165,-0.5321,-0.5321,-0.5709,-0.678,-0.838,-0.8618,-0.9528,-1.1037,-1.1111,-1.1111,-1.1111,-1.1099,-1.0942,-1.0791,-1.1566,-1.1727,-1.1621,-1.2668,-1.329,-1.3661,-1.4008,-1.432,-1.4678,-1.5027,-1.478,-1.4275,-1.347,-1.281,0.0,0.0,-1.3263,-1.4413,-1.3442,-1.3355,-1.3317,-1.2312,-1.2687,-1.3193,-1.2938,-1.2924,-1.278,0.0,-1.2185,-1.2324,-1.2011,0.0,-1.1964,-1.1948,-1.203,-1.2115,-1.2379,-1.2419,-1.255,-1.2814,-1.249,-1.2382,-1.2638,-1.2324,-1.2104,-1.2104,-1.2104,-1.2614,-1.3736,-1.3237,-1.3638,-1.51,-1.3965,0.0,0.0,0.0,0.0,0.0,0.0,0.0,0.0,0.0,0.0,0.0,0.0,0.0,0.0,0.0,0.0,0.0,0.0,0.0,0.0,0.0,0.0,0.0,0.0,0.0,0.0,0.0,0.0,0.4418,0.4135,0.0,0.2248,0.1868,0.1276,0.0067,0.0,0.0,0.0,-0.1537,-0.2369,-0.239,-0.3959,-0.4784,-0.4784,-0.4933,-0.4971,-0.4971,-0.5724,-0.6829,-0.8228,-0.8781,-0.9753,-1.087,-1.1039,-1.0918,-1.0622,-1.0791,-1.09,-1.1114,-1.2428,-1.2863,-1.2955,-1.4324,-1.4773,-1.4664,-1.4797,-1.4761,-1.4744,-1.5095,-1.5377,-1.5504,-1.52,-1.5013,-1.4872,-1.4924,-1.5172,-1.5342,-1.5137,-1.4206,-1.3259,-1.2876,-1.2822,-1.2783,-1.2726,-1.3013,-1.3269,-1.3029,-1.2731,-1.2401,-1.2177,-1.2238,-1.2238,-1.1791,-1.2216,-1.2647,-1.2772,-1.2937,-1.3178,-1.3522,-1.3182,-1.3005,-1.3075,-1.2742,-1.2512,-1.2512,-1.2512,-1.2735,-1.3356,-1.3365,-1.3622,-1.4092,-1.3898,-1.3617,0.0,0.0,0.0,0.0,0.0,0.0,0.0,0.0,0.0,0.0,0.0,0.0,0.0,0.0,0.0,0.0,0.0,0.0,0.0,0.0,0.0,0.0,0.0,0.0,0.0,0.4547,0.4519,0.4558,0.4406,0.3694,0.2214,0.208,0.1483,0.0137,0.0,0.0,0.0,-0.1443,-0.2328,-0.2328,-0.3853,-0.4726,-0.4726,-0.4732,-0.4773,-0.4773,-0.5802,-0.6807,-0.7957,-0.8849,-0.9724,-1.0598,-1.0773,-1.0653,-1.0345,-1.052,-1.0832,-1.1282,-1.2827,-1.3517,-1.3866,-1.4969,-1.5172,-1.4838,-1.4838,-1.4846,-1.4906,-1.5137,-1.561,-1.6132,-1.6132,-1.6342,-1.6524,-1.6441,-1.6129,-1.5802,-1.5623,-1.4693,-1.3822,-1.3655,-1.3384,-1.3191,-1.3191,-1.3511,-1.3821,-1.3821,-1.3511,-1.3116,-1.2941,-1.304,-1.299,-1.2379,-1.2849,-1.3199,-1.3077,-1.3291,-1.3589,-1.3855,-1.3644,-1.3488,-1.3488,-1.2984,-1.2779,-1.2865,-1.2669,-1.2796,-1.3285,-1.347,-1.3585,-1.3721,-1.3941,-1.3962,-1.3591,0.0,0.0,0.0,0.0,0.0,0.0,0.0,0.0,0.0,0.0,0.0,0.0,0.0,0.0,0.0,0.0,0.0,0.0,0.0,0.0,0.0,0.0,0.0,0.4552,0.4706,0.4716,0.4464,0.4295,0.3694,0.2214,0.2079,0.1495,0.007,0.0,0.0,0.0,-0.1453,-0.2323,-0.2323,-0.3844,-0.4715,-0.4715,-0.4718,-0.472,-0.472,-0.5793,-0.6718,-0.7504,-0.8624,-0.9539,-1.0315,-1.0327,-1.0321,-1.0309,-1.0315,-1.0723,-1.143,-1.2632,-1.3461,-1.4122,-1.4547,-1.4435,-1.4093,-1.4084,-1.4564,-1.518,-1.518,-1.5653,-1.6254,-1.6245,-1.6524,-1.6798,-1.6242,-1.6048,-1.5839,-1.4818,-1.4781,-1.4983,-1.4607,-1.4515,-1.4515,-1.4515,-1.4515,-1.4515,-1.4515,-1.4515,-1.4506,-1.4497,-1.4488,-1.4341,-1.391,-1.3846,0.0,-1.3323,-1.3616,-1.3864,-1.3882,-1.3892,-1.3901,-1.3901,-1.3167,-1.2927,-1.3268,-1.2707,-1.2757,-1.3645,-1.347,-1.3607,-1.4121,-1.4184,-1.444,-1.5008,0.0,0.0,0.0,0.0,0.0,0.0,0.0,0.0,0.0,0.0,0.0,0.0,0.0,0.0,0.0,0.0,0.0,0.0,0.0,0.0,0.0,0.4716,0.5226,0.5182,0.4957,0.4752,0.4716,0.4005,0.3151,0.2213,0.1678,0.1012,0.0068,0.0,0.0,0.0,-0.1374,-0.2128,-0.2128,-0.3639,-0.4398,-0.4398,-0.448,-0.452,-0.4591,-0.5974,-0.6945,-0.7571,-0.8891,-0.9711,-0.9988,-1.0248,-1.0048,-0.9777,-1.0425,-1.1162,-1.1911,-1.2429,-1.3104,-1.3779,-1.4446,-1.4435,-1.4059,-1.3768,-1.399,-1.4401,-1.4401,-1.5103,-1.5863,-1.5588,-1.5972,-1.6395,-1.5898,-1.5579,-1.5305,-1.5005,-1.4812,-1.4643,-1.4543,-1.4515,-1.4515,-1.4515,-1.4515,-1.4515,-1.4515,-1.4515,-1.4414,-1.4112,-1.4057,-1.3818,-1.3103,-1.3055,0.0,-1.2908,-1.3204,-1.3571,-1.3855,-1.4157,-1.4341,-1.4341,-1.3855,-1.347,-1.3305,-1.3138,-1.3078,-1.3256,-1.388,-1.4614,-1.5412,-1.5412,-1.5464,0.0,0.0,0.0,0.0,0.0,0.0,0.0,0.0,0.0,0.0,0.0,0.0,0.0,0.0,0.0,0.0,0.0,0.0,0.0,0.0,0.0,0.0,0.4897,0.5287,0.5418,0.5093,0.4894,0.4831,0.3956,0.3017,0.2213,0.1478,0.0807,0.0067,0.0,0.0,0.0,-0.1344,-0.208,-0.208,-0.3558,-0.43,-0.43,-0.4365,-0.4532,-0.4866,-0.6146,-0.7076,-0.7733,-0.8964,-0.9574,-0.9718,-0.9868,-0.976,-0.956,-1.0413,-1.1175,0.0,0.0,0.0,0.0,0.0,-1.405,-1.3819,-1.3588,-1.3768,-1.4093,-1.4093,-1.4754,-1.5482,-1.5251,-1.5611,-1.5973,-1.556,-1.5276,-1.5065,-1.49,-1.468,-1.4515,-1.4515,-1.4515,-1.4515,-1.4515,-1.4515,-1.4515,-1.4515,-1.4368,0.0,-1.397,-1.3932,-1.3607,-1.2834,-1.2715,-1.2715,-1.2715,-1.303,-1.3442,-1.3837,-1.4258,-1.4515,-1.4515,-1.4121,0.0,0.0,0.0,-1.3951,-1.4266,-1.4852,0.0,0.0,0.0,0.0,0.0,0.0,0.0,0.0,-1.7198,-1.7227,0.0,0.0,0.0,0.0,0.0,0.0,0.0,0.0,0.0,0.0,0.0,0.0,0.0,0.0,0.0,0.0,0.5155,0.5206,0.5342,0.5223,0.509,0.4827,0.3956,0.3017,0.2213,0.1411,0.0673,0.0067,0.0,-0.0067,-0.0135,-0.1411,0.0,0.0,0.0,-0.43,-0.43,-0.43,-0.4628,-0.5342,-0.626,-0.7177,-0.8027,-0.8877,-0.9344,-0.9484,-0.9484,-0.9548,-0.967,-1.0358,-1.1031,-1.1794,-1.2798,-1.3512,-1.399,-1.3639,-1.3511,-1.3511,-1.3511,0.0,0.0,-1.4024,-1.4545,-1.5109,-1.5065,-1.5331,-1.5542,-1.5148,-1.5038,-1.4955,-1.4607,-1.4515,-1.4515,-1.4515,-1.4515,-1.4515,-1.4515,-1.4515,-1.4497,-1.4451,-1.4139,-1.3904,-1.3863,-1.3819,-1.3534,-1.2917,-1.2744,-1.2744,-1.2796,-1.3168,-1.3533,-1.3989,0.0,0.0,-1.4675,-1.4389,-1.4315,-1.4591,-1.472,-1.5196,-1.6089,-1.614,-1.6425,-1.6977,-1.6989,-1.7652,-1.9101,-1.917,-1.9678,-2.0649,-1.883,-1.8648,0.0,0.0,0.0,0.0,0.0,0.0,0.0,0.0,0.0,0.0,0.0,0.0,0.0,0.0,0.0,0.5094,0.5318,0.5328,0.5425,0.5362,0.5292,0.509,0.3618,0.2551,0.2348,0.1076,0.0135,0.0,0.0,-0.0269,-0.0875,-0.1678,-0.2348,-0.2948,-0.3828,-0.43,-0.43,-0.43,-0.4628,-0.5342,0.0,0.0,-0.8027,-0.8877,-0.9344,-0.9484,-0.9484,-0.9798,-1.0358,-1.1031,-1.2012,-1.3139,-1.3344,-1.35,-1.3613,-1.3536,-1.3511,-1.3511,-1.3511,-1.3554,-1.3622,-1.3622,-1.4127,-1.4639,-1.4329,-1.4709,0.0,-1.4735,-1.4625,-1.4607,-1.4533,-1.4515,-1.4515,-1.4515,-1.4515,-1.4515,-1.4515,-1.4515,-1.4414,-1.4075,-1.3937,-1.37,-1.3069,-1.2952,-1.3049,-1.338,-1.3047,-1.2949,-1.3349,-1.3791,-1.4225,-1.4722,-1.5134,-1.5537,-1.5948,-1.5887,-1.5725,-1.5462,-1.5717,-1.6375,-1.7483,-1.7591,-1.8155,-1.9183,-1.9195,-1.9547,-2.0292,-2.0687,-2.1021,-2.1176,-1.9957,-1.961,0.0,0.0,0.0,0.0,0.0,0.0,0.0,0.0,0.0,0.0,0.0,0.254,0.3719,0.0,0.4546,0.5282,0.5294,0.5247,0.5247,0.5186,0.5128,0.5071,0.3887,0.2885,0.2417,0.1277,0.0404,0.0,0.0,-0.0135,-0.0539,-0.1544,-0.228,-0.2614,-0.3692,-0.43,-0.43,-0.43,-0.4628,-0.5342,-0.6129,-0.7046,-0.8027,-0.8818,-0.928,-0.9484,-0.9484,-0.9862,-1.0611,-1.1586,-1.2573,-1.3511,-1.3511,-1.3511,-1.3511,-1.3511,-1.3511,-1.3511,-1.3511,-1.3511,-1.3511,-1.3511,-1.3883,-1.4258,-1.4063,-1.4394,-1.4763,-1.457,-1.4515,-1.4515,-1.4515,-1.4515,-1.4515,-1.4515,-1.4515,-1.4515,-1.4515,-1.4341,-1.4194,-1.4194,-1.3699,-1.3312,-1.3365,-1.2833,-1.2598,-1.3104,-1.3218,-1.3395,-1.3823,-1.4089,-1.4491,-1.5235,-1.546,-1.578,-1.627,-1.6312,-1.6434,-1.671,-1.6863,-1.7409,-1.8441,-1.8494,-1.8958,-1.9768,-1.978,-2.0177,-2.0983,-2.1272,-2.1536,-2.1801,-2.121,-2.104,0.0,0.0,0.0,0.0,0.0,0.0,0.0,0.315,0.297,0.3492,0.35,0.3616,0.4338,0.4835,0.5173,0.5281,0.5172,0.5091,0.5091,0.4992,0.4934,0.5006,0.427,0.3372,0.2528,0.1599,0.0736,0.0067,0.0,-0.0067,-0.0202,-0.1411,-0.2146,-0.228,-0.3625,-0.43,-0.43,-0.4431,-0.4824,-0.554,-0.6268,-0.7186,-0.8161,-0.8753,-0.9151,-0.9478,-0.9792,-1.0231,-1.0793,-1.2143,-1.3009,-1.3511,-1.3511,-1.3511,-1.3511,-1.3511,-1.3511,-1.3511,-1.3511,-1.3511,-1.3511,-1.3511,-1.3761,-1.401,-1.401,-1.4198,-1.4515,-1.4515,-1.4515,-1.4515,-1.4515,-1.4515,-1.4515,-1.4515,-1.4515,-1.4515,-1.4515,-1.4249,-1.4084,-1.4341,-1.3525,-1.3023,-1.3734,-1.3055,-1.255,-1.3064,-1.3409,-1.3793,-1.4293,-1.4384,-1.4753,-1.569,-1.5795,-1.6016,-1.661,-1.6652,-1.6989,-1.7831,-1.7886,-1.8213,-1.8987,-1.8987,-1.9287,-1.9925,-1.9937,-2.0478,-2.156,-2.156,-2.1777,-2.2197,-2.2197,-2.2197,0.1082,0.2237,0.248,0.412,0.4485,0.433,0.0,0.4011,0.3929,0.3367,0.3215,0.3441,0.4044,0.4179,0.4411,0.4865,0.4955,0.4942,0.4942,0.4928,0.488,0.4775,0.3964,0.3197,0.2577,0.1552,0.0654,0.0067,0.0,-0.0269,-0.0941,-0.1678,-0.2414,-0.3082,-0.3892,-0.43,-0.43,-0.4888,-0.554,-0.6264,-0.6994,-0.7847,-0.87,-0.8888,-0.9145,-0.9402,-1.071,-1.1329,-1.1516,-1.2826,-1.345,-1.3511,-1.3511,-1.3511,-1.3511,-1.3511,-1.3511,-1.3511,-1.3511,-1.3511,-1.3511,-1.3511,-1.3761,-1.401,-1.401,-1.4198,-1.4515,-1.4515,-1.4515,-1.4515,-1.4515,-1.4515,-1.4515,-1.4515,-1.4515,-1.4515,-1.4515,-1.4478,-1.4341,-1.402,-1.3561,-1.3273,-1.3459,-1.3451,-1.361,-1.4129,-1.3858,-1.3962,-1.4902,-1.5005,-1.5391,-1.6389,-1.6502,-1.6888,-1.7829,-1.7909,-1.8073,-1.8452,-1.8506,-1.8667,-1.8987,-1.8987,-1.9468,-2.0511,-2.0514,-2.1043,-2.2101,-2.2101,-2.2137,-2.2197,-2.2197,-2.2197,0.3602,0.4874,0.5594,0.5645,0.5998,0.6231,0.5761,0.5432,0.5237,0.5449,0.5191,0.5081,0.5804,0.5652,0.5532,0.5992,0.553,0.5117,0.5109,0.4748,0.4538,0.4555,0.4152,0.3441,0.243,0.1875,0.1128,0.0067,0.0,-0.0337,-0.1076,-0.1745,-0.2414,-0.3149,-0.3892,-0.43,-0.43,-0.4951,-0.5474,-0.5804,-0.6929,-0.7717,-0.8172,-0.8759,-0.9145,-0.9472,-1.0899,-1.1516,-1.1578,-1.2948,-1.3511,-1.3511,-1.3511,-1.3511,-1.3511,-1.3511,-1.3511,-1.3511,-1.3511,-1.3511,-1.3511,-1.3511,-1.3761,-1.401,-1.401,-1.4198,-1.4515,-1.4515,-1.4515,-1.4515,-1.4515,-1.4515,-1.4515,-1.4515,-1.4515,-1.4625,-1.4961,-1.482,-1.483,-1.5231,-1.48,-1.4317,-1.4346,-1.4204,-1.4163,-1.437,-1.4455,-1.464,-1.5062,-1.5108,-1.5545,-1.6596,-1.7151,-1.7732,-1.8309,-1.8193,-1.8302,-1.8679,-1.8614,-1.8721,-1.8987,-1.8987,-1.9348,-2.0093,-2.0117,-2.0658,-2.1728,-2.1428,-2.1596,-2.2185,-2.1873,-2.1897,0.6803,0.7531,0.8157,0.7139,0.7327,0.764,0.7166,0.654,0.6269,0.6933,0.6633,0.6397,0.6917,0.6654,0.6434,0.6648,0.6018,0.5449,0.5336,0.4812,0.4457,0.4501,0.4337,0.382,0.2627,0.2253,0.1532,0.0135,0.0,-0.0201,-0.0798,-0.1593,-0.2312,-0.2883,-0.3738,-0.4216,-0.4249,-0.5091,-0.5563,-0.5606,-0.706,-0.7852,-0.7972,-0.8882,-0.9466,-0.9862,-1.1212,-1.1764,-1.1888,-1.3009,-1.3511,-1.3511,-1.3511,-1.3511,-1.3511,-1.3511,-1.3511,-1.3511,-1.3511,-1.3511,-1.3511,-1.3511,-1.37,-1.395,-1.401,-1.4198,-1.4446,-1.4515,-1.4625,-1.4734,-1.4734,-1.4843,-1.502,-1.502,-1.502,-1.5128,-1.5526,-1.5432,-1.5405,-1.6182,-1.5725,-1.5248,-1.5185,-1.4837,-1.4569,-1.4578,-1.488,-1.5108,-1.5108,-1.5349,-1.5844,-1.668,-1.7635,-1.8302,-1.8506,-1.8356,-1.841,-1.8798,-1.8679,-1.8774,-1.8987,-1.8987,-1.9239,-1.9768,-1.978,-2.031,-2.1404,-2.1019,-2.1308,-2.2185,-2.1801,-2.1825,1.0861,0.9997,0.9394,0.8873,0.8566,0.8209,0.7621,0.7128,0.6755,0.6815,0.6705,0.6489,0.628,0.6415,0.6506,0.6261,0.6218,0.5987,0.5386,0.5177,0.4918,0.4553,0.4418,0.4086,0.3364,0.2589,0.1564,0.0135,0.0,0.0,0.0,-0.1288,-0.2033,-0.2041,-0.327,-0.4001,-0.4121,-0.5508,-0.6221,-0.6396,-0.7787,-0.8452,-0.8511,-0.9518,-1.0155,-1.0548,-1.1896,-1.2443,-1.2512,-1.3199,-1.3511,-1.3511,-1.3511,-1.3511,-1.3511,-1.3511,-1.3511,-1.3511,-1.3511,-1.3511,-1.3511,-1.3511,-1.364,-1.383,-1.395,-1.4139,-1.4327,-1.4455,-1.4902,-1.5352,-1.5352,-1.5806,-1.6255,-1.6255,-1.6255,-1.6244,-1.6255,-1.6234,-1.6234,-1.6301,-1.5995,-1.5699,-1.5674,-1.5339,-1.5089,-1.5085,-1.5108,-1.5108,-1.5108,-1.5969,-1.6589,-1.6623,-1.7699,-1.8422,-1.8422,-1.8518,-1.8679,-1.8798,-1.8798,-1.8851,-1.8987,-1.8987,-1.9239,-1.9768,-1.978,-2.031,-2.1404,-2.1392,-2.1656,-2.2197,-2.2173,-2.2173,1.215,1.1616,1.1182,0.9444,0.9076,0.8954,0.8311,0.8054,0.7947,0.8089,0.8393,0.8582,0.8579,0.8222,0.8029,0.8415,0.7362,0.6533,0.6617,0.582,0.5257,0.5216,0.4921,0.4504,0.3821,0.289,0.186,0.0807,0.0269,-0.02,-0.071,-0.1543,-0.222,-0.2649,-0.3444,-0.3894,-0.3996,-0.5344,-0.6104,-0.6281,-0.7782,-0.8582,-0.8705,-0.9582,-1.0148,-1.0471,-1.1888,-1.2512,-1.2573,-1.3199,-1.3511,-1.3511,-1.3511,-1.3511,-1.3511,-1.3511,-1.3511,-1.3511,-1.3511,-1.3511,-1.3511,-1.3511,-1.37,-1.395,-1.401,-1.4198,-1.4506,-1.4961,-1.5245,-1.5468,-1.5911,-1.614,-1.6312,-1.6312,-1.6312,-1.6415,-1.681,-1.6922,-1.7045,-1.739,-1.7113,-1.6729,-1.6351,-1.5917,-1.5516,-1.5131,-1.5108,-1.5108,-1.5108,-1.5992,-1.6623,-1.6711,-1.774,-1.8476,-1.8637,-1.8625,-1.8721,-1.8946,-1.8851,-1.8851,-1.8987,-1.8987,-1.9071,-1.9251,-1.9263,-1.9793,-2.0887,-2.0514,-2.0971,-2.2185,-2.1825,-2.1861,1.3974,1.3317,1.2641,1.07,1.0256,1.0127,0.9454,0.9168,0.9028,0.9076,0.9403,0.9716,0.9708,0.9286,0.9116,0.9839,0.8631,0.77,0.7886,0.707,0.6248,0.5889,0.5487,0.5026,0.4461,0.3549,0.248,0.1276,0.0673,0.0066,-0.0636,-0.1457,-0.2113,-0.2563,-0.3392,-0.3849,-0.3872,-0.5022,-0.5928,-0.6676,-0.7916,-0.8576,-0.8835,-0.9894,-1.0458,-1.0773,-1.2205,-1.2887,-1.2879,-1.3321,-1.3511,-1.3511,-1.3511,-1.3511,-1.3511,-1.3511,-1.3511,-1.3511,-1.3511,-1.3511,-1.3511,-1.3511,-1.3761,-1.413,-1.4291,-1.4597,-1.501,-1.5584,-1.5853,-1.614,-1.6528,-1.6765,-1.6933,-1.6933,-1.6933,-1.7056,-1.7446,-1.749,-1.7567,-1.779,-1.7599,-1.7163,-1.6474,-1.5946,-1.551,-1.5154,-1.5108,-1.5108,-1.5108,-1.5992,-1.6623,-1.6711,-1.774,-1.8476,-1.8679,-1.8679,-1.8786,-1.8987,-1.8946,-1.8893,-1.8987,-1.8987,-1.8987,-1.8987,-1.8987,-1.9528,-2.061,-2.0249,-2.0803,-2.2185,-2.1849,-2.1873,1.6249,1.5009,1.3737,1.2521,1.1953,1.1518,1.09,1.042,1.0025,0.9776,0.9885,1.0021,0.9769,0.9619,0.9791,1.0524,0.994,0.9332,0.9144,0.8738,0.7913,0.6474,0.6125,0.5786,0.5193,0.4483,0.3278,0.1474,0.1208,0.0787,0.0062,-0.1173,-0.1799,-0.1794,-0.2977,-0.3705,-0.3922,-0.4665,-0.5868,-0.7507,-0.8177,-0.8582,-0.8835,-1.0268,-1.108,-1.1392,-1.2826,-1.3442,-1.3511,-1.3511,-1.3511,-1.3511,-1.3511,-1.3511,-1.3511,-1.3511,-1.3511,-1.3511,-1.3511,-1.3511,-1.3511,-1.3511,-1.3821,-1.424,-1.4737,-1.5196,-1.5671,-1.6187,-1.6754,-1.7202,-1.7257,-1.7667,-1.8084,-1.8084,-1.8084,-1.8084,-1.8084,-1.8084,-1.7935,-1.7473,-1.7335,-1.6991,-1.604,-1.5429,-1.5108,-1.5108,-1.5108,-1.5119,-1.5142,-1.6015,-1.6635,-1.6658,-1.7711,-1.8476,-1.856,-1.8732,-1.8851,-1.8999,-1.8987,-1.8975,-1.8951,-1.8951,-1.8951,-1.8951,-1.8975,-1.9528,-2.061,-2.0646,-2.1187,-2.2197,-2.2197,-2.2197,1.6835,1.5494,1.4104,1.2637,1.1945,1.1622,1.1667,1.1622,1.1474,1.1168,1.1828,1.2178,1.1441,1.142,1.1536,1.1696,1.0931,1.0215,0.9748,0.9191,0.848,0.769,0.6845,0.6234,0.6063,0.5282,0.4148,0.2477,0.1676,0.0852,0.0062,-0.1257,-0.1898,-0.1796,-0.3107,-0.383,-0.38,-0.5197,-0.6362,-0.7234,-0.8104,-0.8517,-0.8641,-0.9767,-1.0577,-1.1142,-1.2258,-1.307,-1.3511,-1.3511,-1.3511,-1.3511,-1.3511,-1.3511,-1.3511,-1.3511,-1.3511,-1.3511,-1.3511,-1.3511,-1.3511,-1.3511,-1.37,-1.4001,-1.4678,-1.5099,-1.5565,-1.6641,-1.709,-1.7313,-1.7733,-1.7963,-1.8084,-1.8084,-1.8084,-1.8084,-1.8084,-1.8084,-1.7935,-1.7473,-1.6784,-1.6072,-1.5418,-1.5188,-1.5108,-1.5108,-1.5108,-1.5246,-1.5647,-1.6244,-1.6773,-1.714,-1.7931,-1.8422,-1.8476,-1.8691,-1.8798,-1.8851,-1.8946,-1.8819,-1.8422,-1.8398,-1.8398,-1.8398,-1.8794,-1.9528,-2.061,-2.1007,-2.1548,-2.2197,-2.2197,-2.2197,1.6753,1.5533,1.4317,1.3291,1.2683,1.238,1.2507,1.2607,1.2571,1.2282,1.2923,1.3302,1.2542,1.2215,1.2173,1.2589,1.1743,1.0965,1.0641,1.0151,0.9413,0.8417,0.7698,0.7051,0.6465,0.5939,0.5011,0.3282,0.2345,0.1244,0.0062,-0.0938,-0.1653,-0.1891,-0.2899,-0.3633,-0.3914,-0.5479,-0.6442,-0.6834,-0.7926,-0.8517,-0.8517,-0.9227,-1.004,-1.108,0.0,-1.2887,-1.3511,-1.3511,-1.3511,-1.3511,-1.3511,-1.3511,-1.3511,-1.3511,-1.3511,-1.3511,-1.3511,-1.3511,-1.3511,-1.3511,-1.3881,-1.441,-1.5089,-1.568,-1.6322,-1.7335,-1.7611,-1.7667,-1.803,-1.8084,-1.8084,-1.8084,-1.8084,-1.8084,-1.8084,-1.8084,-1.7867,-1.7186,-1.6244,-1.5464,-1.5154,-1.5108,-1.5108,-1.5108,-1.5108,-1.5372,-1.613,-1.6463,-1.6738,-1.7014,-1.7756,-1.8128,-1.7833,-1.8366,-1.8543,-1.8184,-1.8466,-1.841,-1.7881,-1.7857,-1.7965,-1.8193,-1.8722,-1.9528,-2.061,-2.1151,-2.168,-2.2197,-2.2197,-2.2197,1.6365,1.5306,1.4407,1.4096,1.3746,1.3444,1.341,1.3472,1.3479,1.3221,1.3513,1.3652,1.3242,1.252,1.2296,1.3247,1.2423,1.1665,1.1559,1.1219,1.0408,0.8941,0.8619,0.8032,0.6789,0.6527,0.5738,0.409,0.3017,0.1771,0.0249,-0.056,-0.1293,-0.2158,-0.2741,-0.3425,-0.414,-0.5545,-0.6334,-0.633,-0.7792,-0.8522,-0.8511,-0.882,-0.9699,-1.108,-1.2012,-1.2826,-1.3511,-1.3511,-1.3511,-1.3511,-1.3511,-1.3511,-1.3511,-1.3511,-1.3511,-1.3511,-1.3511,-1.3511,-1.3511,-1.3511,-1.4043,-1.4824,-1.5565,-1.6379,-1.719,-1.792,-1.8084,-1.8084,-1.8084,-1.8084,-1.8084,-1.8084,-1.8084,-1.8084,-1.8084,-1.7981,-1.7626,-1.6745,-1.5808,-1.5108,-1.5108,-1.5108,-1.5108,-1.5108,-1.5108,-1.5452,-1.6405,-1.6577,-1.6646,-1.6715,-1.7466,-1.7709,-1.7003,-1.7843,-1.8076,-1.7374,-1.7795,-1.7807,-1.7339,-1.7376,-1.7628,-1.8085,-1.8686,-1.9528,-2.061,-2.1151,-2.168,-2.2197,-2.2197,-2.2197,1.6356,1.5274,1.4379,1.4206,1.4228,1.4303,1.4352,1.44,1.4314,1.4068,1.3831,1.3678,1.3608,1.3217,1.3016,1.3399,1.304,1.2421,1.1804,1.1296,1.0737,1.0047,0.9134,0.842,0.8161,0.7051,0.6001,0.4942,0.3478,0.2114,0.096,-0.0327,-0.165,-0.2952,-0.3592,-0.3995,-0.4268,-0.5276,-0.5804,-0.5851,-0.7671,-0.8479,-0.8511,-0.9128,-1.0002,-1.1017,-1.1779,0.0,-1.3511,-1.3511,-1.3511,-1.3511,-1.3511,-1.3511,-1.3511,-1.3511,-1.3511,-1.3511,-1.3511,-1.3511,-1.3511,-1.3511,-1.3623,-1.3983,-1.5381,-1.5911,-1.6301,-1.7689,-1.8084,-1.8084,-1.8084,-1.8084,-1.8084,-1.8084,-1.8084,-1.8084,-1.8084,-1.7432,-1.683,-1.6608,-1.5808,-1.5108,-1.5108,-1.5108,-1.5108,-1.5108,-1.5108,-1.5326,-1.5946,-1.6382,-1.6784,-1.7197,-1.7404,-1.7266,-1.6731,-1.6923,-1.7097,-1.7081,-1.7239,-1.7195,-1.6786,-1.7183,-1.7448,-1.7544,-1.8506,-1.9528,-2.061,-2.1151,-2.168,-2.2197,-2.2197,-2.2197,1.5742,1.4902,1.4326,1.4051,1.4254,1.4486,1.4451,1.4525,1.4515,1.4197,1.3907,1.3659,1.3598,1.3134,1.2938,1.3323,1.2788,1.2117,1.1405,1.0984,1.056,0.997,0.9344,0.8882,0.8554,0.7512,0.6531,0.5672,0.3823,0.228,0.1289,-0.0579,-0.1876,-0.2621,-0.3563,-0.4178,-0.43,-0.5223,-0.5672,-0.5716,-0.7611,-0.8484,-0.8517,-0.9344,-1.0155,-1.1017,-1.1725,-1.2597,-1.3511,-1.3511,-1.3511,-1.3511,-1.3511,-1.3511,-1.3511,-1.3511,-1.3511,-1.3511,-1.3511,-1.3511,-1.3511,-1.3511,-1.3692,-1.4112,-1.5381,-1.5958,-1.6425,-1.7733,-1.8084,-1.8084,-1.8084,-1.8084,-1.8084,-1.8084,-1.8084,-1.8084,-1.8084,-1.7553,-1.6933,-1.6631,-1.6026,-1.5441,-1.5154,-1.5108,-1.5108,-1.5108,-1.5108,-1.5303,-1.5843,-1.6107,-1.6336,-1.6589,-1.7071,-1.7019,-1.603,-1.646,-1.6781,-1.6668,-1.7002,-1.7134,-1.7003,-1.7279,-1.7544,-1.782,-1.859,-1.9384,-2.0189,-2.1007,-2.1536,-2.1789,-2.2065,-2.2197,1.5251,1.4549,1.419,1.3838,1.4195,1.4552,1.4233,1.4306,1.4356,1.4047,1.3536,1.317,1.3227,1.2713,1.2493,1.2984,1.2339,1.1655,1.1137,1.0756,1.0275,0.9767,0.9548,0.9285,0.8753,0.7907,0.7125,0.6404,0.4076,0.2226,0.1085,-0.0868,-0.198,-0.21,-0.3355,-0.4099,-0.4287,-0.5199,-0.5704,-0.5747,-0.7593,-0.8479,-0.8436,-0.9396,-1.0231,-1.1017,-1.1663,-1.2528,-1.3511,-1.3511,-1.3511,-1.3511,-1.3511,-1.3511,-1.3511,-1.3511,-1.3511,-1.3511,-1.3511,-1.3459,-1.3408,-1.3485,-1.3752,-1.424,-1.5391,-1.6026,-1.6595,-1.7689,-1.803,-1.8084,-1.8084,-1.8084,-1.8084,-1.8084,-1.8084,-1.8061,-1.7947,-1.7576,-1.7071,-1.6566,-1.6072,-1.5602,-1.5177,-1.5108,-1.5108,-1.5108,-1.5108,-1.5257,-1.5682,-1.5831,-1.5866,-1.5751,-1.6531,-1.6627,-1.5579,-1.6195,-1.6617,-1.6551,-1.6967,-1.7253,-1.7412,-1.752,-1.7772,-1.8193,-1.8722,-1.9251,-1.978,-2.0754,-2.1296,-2.1416,-2.1945,-2.2125,1.5555,1.4552,1.3815,1.3667,1.4341,1.4811,1.3946,1.3856,1.3888,1.3594,1.2415,1.1616,1.2288,1.2014,1.1814,1.222,1.2024,1.1772,1.1616,1.0996,1.0458,1.0268,0.9798,0.9484,0.942,0.8172,0.7386,0.7256,0.4442,0.1915,0.0186,-0.1142,-0.1857,-0.1978,-0.3184,-0.3906,-0.4095,-0.5146,-0.5689,-0.5726,-0.7571,-0.8368,-0.8053,-0.911,-1.0104,-1.1017,-1.1586,-1.2451,0.0,-1.3511,-1.3511,-1.3511,-1.3511,-1.3511,-1.3511,-1.3511,-1.3511,-1.3511,-1.3511,-1.3297,-1.3083,-1.3399,-1.3511,-1.3812,-1.5059,-1.5633,-1.614,-1.7357,-1.792,-1.8084,-1.8084,-1.8084,-1.8084,-1.8084,-1.8084,-1.7958,-1.7553,-1.7048,-1.6543,-1.6072,-1.5544,-1.5165,-1.5119,-1.5108,-1.5108,-1.5108,-1.5108,-1.5119,-1.5177,-1.5613,-1.5716,-1.5234,-1.567,-1.6042,-1.6009,-1.6138,-1.6455,-1.7098,-1.7169,-1.7253,-1.7412,-1.7869,-1.8157,-1.8205,-1.8722,-1.9251,-1.978,-2.0394,-2.0935,-2.1416,-2.1945,-2.1933,1.6141,1.5223,1.4563,1.4709,1.4818,1.4783,1.4225,1.4109,1.3861,1.3104,1.2192,1.1545,1.1562,1.1288,1.1228,1.1799,1.134,1.0995,1.1225,1.0711,1.0219,1.005,0.9799,0.9612,0.953,0.8236,0.6583,0.4706,0.3387,0.1925,0.011,-0.0774,-0.1464,-0.1861,-0.264,-0.3355,-0.3884,-0.4841,-0.5545,-0.6121,-0.719,-0.7719,-0.788,-0.8742,-0.9662,-1.0581,-1.1436,-1.2336,0.0,-1.322,-1.3314,-1.3485,-1.3271,-1.3194,-1.3211,-1.3434,-1.322,-1.2869,-1.3108,-1.2946,-1.2646,-1.2792,-1.2834,-1.3142,-1.4897,-1.5444,-1.5782,-1.728,-1.7877,-1.8084,-1.8084,-1.7909,-1.776,-1.8015,-1.7615,-1.7203,-1.7358,-1.6979,-1.6486,-1.6003,-1.5739,-1.5487,-1.5165,-1.5108,-1.5108,-1.5108,-1.5108,-1.5108,-1.5108,-1.5292,-1.5349,-1.5131,-1.566,-1.602,-1.6114,-1.6173,-1.6668,-1.7609,-1.7656,-1.7912,-1.835,-1.8566,-1.8674,-1.8674,-1.8879,-1.9095,-1.9312,-1.9853,-2.0394,-2.0935,-2.1476,-2.1608,1.6445,1.5678,1.5086,1.5271,1.5082,1.4742,1.433,1.4021,1.3544,1.2625,1.1982,1.1373,1.0875,1.0804,1.0912,1.1177,1.0807,1.0589,1.0822,1.0459,1.0059,0.9812,0.9765,0.9644,0.953,0.8174,0.6087,0.2969,0.2693,0.191,0.0147,-0.0401,-0.0985,-0.1734,-0.2362,-0.2986,-0.3649,-0.4605,-0.5394,-0.6032,-0.6687,-0.717,-0.7494,-0.8156,-0.8956,-0.9794,-1.0959,-1.189,0.0,-1.2974,-1.3151,-1.316,-1.3031,-1.2903,-1.2834,-1.3083,-1.2843,-1.2432,-1.2706,-1.2552,-1.2244,-1.2355,-1.2353,-1.2581,-1.4373,-1.5005,-1.5416,-1.6819,-1.7643,-1.8084,-1.8084,-1.7875,-1.7691,-1.8004,-1.7432,-1.6899,-1.7117,-1.6761,-1.6267,-1.5774,-1.567,-1.5556,-1.5177,-1.5108,-1.5108,-1.5108,-1.5108,-1.5108,-1.5108,-1.5108,-1.5108,-1.5108,-1.5707,-1.6184,-1.6384,-1.6584,-1.7189,-1.8207,-1.8319,-1.8486,-1.8975,-1.8987,-1.8987,-1.8987,-1.8987,-1.8987,-1.8987,-1.9516,-1.9985,-2.0382,-2.0923,-2.1079,1.6276,1.572,1.5075,1.4935,1.4932,1.4803,1.4055,1.339,1.2773,1.2234,1.1463,1.0728,1.0107,1.062,1.0901,1.0228,1.0529,1.0832,1.0655,1.0255,0.9942,0.9838,0.9631,0.9478,0.9484,0.8091,0.6026,0.3095,0.2651,0.1824,0.0272,0.0045,-0.0513,-0.1556,-0.243,-0.3013,-0.3324,-0.4576,-0.5179,-0.5233,-0.6228,-0.6694,-0.671,-0.7186,-0.7897,-0.8813,-1.0134,-1.099,0.0,-1.289,-1.3065,-1.244,-1.2826,-1.274,-1.2398,-1.2398,-1.2398,-1.2389,-1.2398,-1.2158,-1.1856,-1.2269,-1.2202,-1.2131,-1.3349,-1.425,-1.4968,-1.5802,-1.7026,-1.8084,-1.8084,-1.8084,-1.8084,-1.8084,-1.7748,-1.7232,-1.6738,-1.6256,-1.5751,-1.5223,-1.5119,-1.5119,-1.5108,-1.5108,-1.5108,-1.5108,-1.5108,-1.5108,-1.5108,-1.5108,-1.5108,-1.5108,-1.5707,-1.6384,-1.7046,-1.749,-1.8152,-1.8951,-1.8987,-1.8987,-1.8987,-1.8987,-1.8987,-1.8987,-1.8987,-1.8987,-1.8987,-1.9516,-1.978,-1.9805,-2.037,-2.0322,1.6855,1.6245,1.5691,1.5552,1.4671,1.3797,1.366,1.3149,1.2495,1.1836,1.1266,1.0659,0.9873,0.9861,1.0083,1.0195,1.045,1.0825,1.143,1.0918,1.0465,1.0308,0.9321,0.8432,0.7833,0.6832,0.5197,0.2728,0.237,0.1678,0.0271,0.009,-0.0454,-0.1441,-0.1937,-0.2492,-0.3104,-0.3866,-0.4494,-0.4956,-0.5471,-0.5998,-0.6514,-0.6769,-0.7368,-0.8196,-0.9101,-1.0059,-1.1092,-1.1576,-1.2031,-1.2381,-1.2252,-1.2124,-1.2047,-1.2295,-1.2064,-1.1661,-1.1927,-1.1773,-1.1473,-1.1593,-1.1567,-1.1663,-1.2443,-1.3464,-1.4728,-1.6275,-1.7362,-1.8004,-1.7714,-1.7622,-1.7622,-1.7622,-1.6979,-1.6417,-1.6589,-1.5957,-1.5315,-1.5142,-1.5108,-1.5108,-1.5108,-1.5108,-1.5108,-1.5108,-1.5108,-1.5108,-1.5108,-1.5108,-1.5246,-1.5613,-1.6143,-1.655,-1.6849,-1.7553,-1.8187,-1.8815,-1.8946,-1.8987,-1.8987,-1.8987,-1.8987,-1.8987,-1.8987,-1.8987,-1.8987,-1.9155,-1.942,-1.978,-1.9961,-1.9949,1.6084,1.5815,1.5532,1.533,1.4317,1.3364,1.3275,1.2706,1.2031,1.1579,1.1067,1.0507,0.995,0.9758,0.9787,1.0115,1.0332,1.0669,1.1178,1.0846,1.0399,1.0159,0.9057,0.7971,0.7081,0.616,0.4754,0.2633,0.2234,0.1583,0.0361,0.009,-0.0359,-0.1119,-0.1517,-0.2002,-0.265,-0.3385,-0.4029,-0.4601,-0.4997,-0.5515,-0.6132,-0.6363,-0.6751,-0.7367,-0.8344,-0.9213,0.0,-1.0872,-1.141,-1.1639,-1.1769,-1.1703,-1.1653,-1.1884,-1.167,-1.131,-1.1541,-1.1473,-1.1326,-1.1477,-1.176,-1.2147,-1.2521,-1.363,-1.5137,-1.6802,-1.7546,-1.7817,-1.7691,-1.7519,-1.7381,-1.7381,-1.6761,-1.621,-1.6313,-1.5693,-1.5108,-1.5108,-1.5108,-1.5108,-1.5108,-1.5108,-1.5108,-1.5108,-1.5108,-1.5108,-1.5108,-1.5108,-1.5315,-1.5854,-1.6336,-1.6754,-1.7089,-1.7796,-1.8389,-1.8786,-1.8946,-1.8987,-1.8987,-1.8987,-1.8987,-1.8987,-1.8987,-1.8987,-1.8987,-1.8987,-1.9155,-1.948,-1.948,-1.948,0.0,1.4481,1.4727,1.4373,1.3828,1.3276,1.2911,1.2105,0.0,1.1485,1.0853,1.03,1.0257,1.0127,0.996,0.9947,1.0288,1.0504,1.0305,1.0109,0.986,0.9521,0.8686,0.7857,0.7013,0.5996,0.4605,0.2702,0.2219,0.1537,0.045,0.0135,-0.0179,-0.0627,-0.1119,-0.1611,-0.2099,-0.3075,-0.3785,-0.4272,-0.4705,-0.5188,-0.5642,-0.59,-0.6132,0.0,-0.7864,-0.8423,0.0,-1.0534,-1.0988,-1.0486,-1.1347,-1.1532,-1.1326,-1.1326,-1.1326,-1.1326,-1.1326,-1.1326,-1.1377,-1.1778,-1.2598,-1.342,-1.345,-1.4489,-1.5946,-1.7178,-1.7455,-1.7427,-1.7863,-1.7645,-1.7312,-1.7278,-1.691,-1.644,-1.6005,-1.5464,-1.5108,-1.5108,-1.5108,-1.5108,-1.5108,-1.5108,-1.5108,-1.5108,-1.5108,-1.5108,-1.5108,-1.5142,-1.5372,-1.59,-1.6394,-1.6938,-1.7612,-1.8236,-1.8679,-1.8798,-1.8946,-1.8987,-1.8987,-1.8987,-1.8987,-1.8987,-1.8987,-1.8987,-1.8987,-1.8987,-1.8987,-1.8987,-1.8987,-1.8987,1.1704,0.0,1.3692,1.3151,1.2495,1.1959,0.0,1.1442,1.1117,1.1491,1.0833,1.0308,1.0627,1.0254,1.0011,1.033,1.0852,1.1201,1.1032,1.0579,1.0004,0.9296,0.7974,0.6976,0.6421,0.5086,0.3627,0.2307,0.2003,0.1446,0.045,0.0135,-0.0045,-0.018,-0.0986,-0.1611,-0.2099,-0.2726,-0.3303,-0.3785,-0.4224,-0.4709,-0.5188,-0.5597,-0.589,-0.6121,-0.6898,-0.7542,-0.8159,-0.9095,-0.9858,-1.0411,-1.0645,-1.0937,-1.1326,-1.1326,-1.1326,-1.1326,-1.1326,-1.1326,-1.1377,-1.1778,-1.2735,-1.3747,-1.415,-1.4866,-1.5608,-1.5941,-1.64,-1.6738,-1.6463,-1.66,-1.6715,-1.6336,-1.6141,-1.6015,-1.5911,-1.5487,-1.5108,-1.5108,-1.5108,-1.5108,-1.5108,-1.5108,-1.5108,-1.5108,-1.5108,-1.5108,-1.5108,-1.5464,-1.5911,-1.6405,-1.6899,-1.7456,-1.8147,-1.8447,-1.8679,-1.8798,-1.8946,-1.8987,-1.8987,-1.8987,-1.8987,-1.8987,-1.8987,-1.8987,-1.8987,-1.8987,-1.8987,-1.8987,-1.8987,-1.8987,1.0544,1.1834,1.3012,1.2519,1.2137,1.1833,1.1865,1.1512,1.1344,1.184,1.1338,1.095,1.1356,1.0775,1.0434,1.0984,1.1018,1.0925,1.0937,1.0733,1.0309,0.9585,0.806,0.6905,0.6256,0.4747,0.3309,0.2196,0.1919,0.1386,0.0449,-0.0045,-0.0314,-0.0314,-0.1253,-0.1744,-0.1789,-0.2506,-0.3129,-0.3609,-0.3873,-0.4355,-0.5009,-0.5275,-0.5671,-0.6132,-0.6658,0.0,-0.7759,-0.8495,-0.9138,-0.9718,-1.019,-1.0608,-1.0913,-1.1226,-1.1326,-1.1326,-1.1326,-1.1427,-1.1619,-1.1828,-1.2783,-1.3868,-1.4121,-1.4686,-1.5425,-1.589,-1.6158,-1.6279,-1.6221,-1.6256,-1.6233,-1.5969,-1.5889,-1.582,-1.559,-1.5315,-1.5108,-1.5108,-1.5108,-1.5108,-1.5108,-1.5108,-1.5108,-1.5108,-1.5108,-1.5108,-1.5108,-1.5567,-1.6072,-1.6577,-1.7071,-1.7693,-1.8417,-1.856,-1.8679,-1.8798,-1.8946,-1.8987,-1.8987,-1.8987,-1.8987,-1.8987,-1.8987,-1.8987,-1.8987,-1.8987,-1.8987,-1.8987,-1.8987,-1.8987,0.9998,1.1252,1.2344,1.2182,1.2146,1.2227,1.2299,1.2006,1.183,1.2224,1.1961,1.1768,1.2027,1.1393,1.103,1.1581,1.0849,1.0293,1.0456,1.0595,1.0471,0.9766,0.8344,0.7068,0.6151,0.4738,0.3425,0.2328,0.2053,0.1518,0.0539,-0.009,-0.0537,-0.0716,-0.1518,-0.1834,-0.1521,-0.2417,-0.3084,-0.3476,-0.3565,-0.4045,-0.4879,-0.5058,-0.5468,-0.6174,0.0,0.0,-0.7306,-0.8274,-0.8725,-0.8876,-0.9873,-1.0352,-1.0454,-1.1065,-1.1326,-1.1326,-1.1326,-1.1578,-1.1927,-1.1977,-1.2832,-1.3815,-1.3873,-1.4444,-1.5292,-1.6153,-1.6095,-1.5877,-1.629,-1.6095,-1.5785,-1.5785,-1.5785,-1.5659,-1.52,-1.5108,-1.5108,-1.5108,-1.5108,-1.5108,-1.5108,-1.5108,-1.5108,-1.5108,-1.5108,-1.5108,-1.5108,-1.5613,-1.6141,-1.6577,-1.714,-1.7827,-1.8525,-1.8614,-1.8679,-1.8851,-1.8946,-1.8987,-1.8987,-1.8987,-1.8987,-1.8987,-1.8987,-1.8987,-1.8987,-1.8987,-1.8987,-1.8987,-1.8987,-1.8987,0.935,1.0306,1.1176,1.1573,1.1985,1.2299,1.2287,1.2245,1.2214,1.2297,1.2202,1.1972,1.1593,1.1575,1.1494,1.1193,1.0736,1.0449,1.0309,0.9805,0.9186,0.8636,0.7609,0.6593,0.5594,0.4748,0.3814,0.2857,0.263,0.2095,0.103,0.0761,0.0224,-0.0671,-0.1208,-0.1655,-0.201,-0.2595,-0.2957,-0.2998,-0.3388,-0.3873,-0.4403,-0.4884,-0.5376,-0.5919,0.0,-0.7043,-0.7114,-0.775,-0.8362,-0.8883,-0.9458,-0.9984,-1.0454,-1.1065,-1.1326,-1.1326,-1.1326,-1.1578,-1.1977,-1.2274,-1.3035,-1.3873,-1.4222,-1.4697,-1.5142,-1.5292,-1.5292,-1.5246,-1.5326,-1.5292,-1.5234,-1.5234,-1.5234,-1.5211,-1.5119,-1.5108,-1.5108,-1.5108,-1.5108,-1.5108,-1.5108,-1.5108,-1.5108,-1.5108,-1.5108,-1.5108,-1.5108,-1.5923,-1.6531,-1.6562,-1.7409,-1.8167,-1.856,-1.8614,-1.8721,-1.8934,-1.8987,-1.8987,-1.8987,-1.8987,-1.8987,-1.8987,-1.8987,-1.8987,-1.8987,-1.8987,-1.8987,-1.8987,-1.8987,-1.8987,0.9122,0.9962,1.0742,1.1714,1.1897,1.2018,1.2802,1.2613,1.2377,1.2903,1.2971,1.2775,1.2254,1.2209,1.189,1.0906,1.0644,1.0457,1.0102,0.9794,0.9295,0.8616,0.7647,0.6627,0.5528,0.4732,0.3917,0.2987,0.2763,0.2275,0.1253,0.076,0.0179,-0.0582,-0.1341,-0.1876,-0.2099,-0.264,-0.2912,-0.2912,-0.3132,-0.348,-0.3961,-0.453,-0.5096,-0.5588,0.0,-0.6978,-0.714,-0.7575,-0.7973,-0.8362,-0.8935,-0.951,-1.0087,-1.0964,-1.1326,-1.1326,-1.1326,-1.1427,-1.1678,-1.2274,-1.2842,-1.3389,-1.4176,-1.4605,-1.4926,-1.5062,-1.5108,-1.5108,-1.5108,-1.5108,-1.5108,-1.5108,-1.5108,-1.5108,-1.5108,-1.5108,-1.5108,-1.5108,-1.5108,-1.5108,-1.5108,-1.5108,-1.52,-1.5475,-1.528,-1.5303,-1.5854,-1.6336,-1.6727,-1.7002,-1.7649,-1.8193,-1.8464,-1.856,-1.8721,-1.8987,-1.8987,-1.8987,-1.8987,-1.8987,-1.8987,-1.8987,-1.8987,-1.8987,-1.8987,-1.8987,-1.8987,-1.8987,-1.8987,-1.8987,0.8897,0.9632,1.0343,1.1618,1.1762,1.1985,1.343,1.3131,1.2696,1.3385,1.3573,1.3387,1.2686,1.2411,1.1842,1.0616,1.0366,1.0159,0.9603,0.9446,0.9153,0.8423,0.753,0.6509,0.5399,0.4662,0.3919,0.312,0.2915,0.2429,0.152,0.0892,0.0223,-0.0492,-0.1431,-0.201,-0.2099,-0.264,-0.2912,-0.2912,-0.2912,-0.3129,-0.3609,-0.4264,-0.4831,-0.5361,-0.632,-0.6911,-0.7218,-0.7486,-0.7707,-0.7949,-0.8567,-0.9197,-0.9925,-1.0913,-1.1326,-1.1326,-1.1326,-1.1326,-1.1427,-1.2126,-1.255,-1.2957,-1.3978,-1.4466,-1.4754,-1.5017,-1.5108,-1.5108,-1.5108,-1.5108,-1.5108,-1.5108,-1.5108,-1.5108,-1.5108,-1.5108,-1.5142,-1.5257,-1.5188,-1.5177,-1.5418,-1.5372,-1.5464,-1.5969,-1.5705,-1.5739,-1.652,-1.6727,-1.6945,-1.7335,-1.784,-1.8205,-1.8367,-1.8572,-1.8721,-1.8946,-1.8999,-1.8987,-1.8987,-1.8987,-1.8987,-1.8987,-1.8987,-1.8987,-1.8987,-1.8987,-1.8987,-1.8987,-1.8987,-1.8987,0.828,0.9039,0.9701,1.0649,1.1572,1.2603,1.3962,1.3851,1.3501,1.345,1.3478,1.319,1.2153,1.1533,1.0958,1.0272,0.9809,0.9311,0.8551,0.8215,0.7844,0.737,0.6631,0.5864,0.5096,0.4417,0.3879,0.3568,0.3361,0.2868,0.2004,0.1784,0.1026,-0.0447,-0.1119,-0.1655,-0.2099,-0.264,-0.2912,-0.2912,-0.2912,-0.3129,-0.3609,-0.4172,-0.4739,-0.5361,-0.6225,-0.6852,-0.7218,-0.7486,-0.7707,-0.7949,-0.8567,-0.9458,-1.0403,-1.1065,-1.1326,-1.1326,-1.1326,-1.1326,-1.1368,-1.1778,-1.2353,-1.2909,-1.3627,-1.4258,-1.4754,-1.5017,-1.5108,-1.5108,-1.5108,-1.5108,-1.5108,-1.5108,-1.5108,-1.5108,-1.5108,-1.5108,-1.5246,-1.5763,-1.5429,-1.5406,-1.6348,-1.6141,-1.6015,-1.6497,-1.6543,-1.6543,-1.6562,-1.7025,-1.7335,-1.7422,-1.784,-1.8205,-1.8367,-1.8637,-1.8798,-1.8798,-1.8946,-1.8987,-1.8987,-1.8987,-1.8987,-1.8987,-1.8987,-1.8987,-1.8987,-1.8987,-1.8987,-1.8987,-1.8987,-1.8987,0.7779,0.8613,0.9485,1.0904,1.1456,1.2013,1.3166,1.3504,1.3631,1.3912,1.373,1.3077,1.1772,1.0769,1.0071,0.982,0.9072,0.838,0.8118,0.7587,0.7134,0.6981,0.6304,0.5624,0.5058,0.4396,0.3909,0.3612,0.3436,0.2986,0.2095,0.1964,0.134,0.009,-0.0537,-0.1119,-0.1655,-0.2146,-0.2551,-0.2912,-0.2912,-0.3129,-0.3609,-0.3869,-0.4439,-0.5308,-0.5755,-0.6299,-0.6975,-0.7243,-0.751,-0.7765,-0.8495,-0.9249,-0.9984,-1.0549,-1.0964,-1.1326,-1.1326,-1.1326,-1.1377,-1.1778,-1.2116,-1.254,-1.3494,-1.4014,-1.4362,-1.4915,-1.5108,-1.5108,-1.5108,-1.5108,-1.5108,-1.5108,-1.5108,-1.5108,-1.5108,-1.5372,-1.5659,-1.5854,-1.5969,-1.6127,-1.6505,-1.6474,-1.652,-1.7014,-1.683,-1.6802,-1.7432,-1.7461,-1.7496,-1.7817,-1.8089,-1.8356,-1.8637,-1.8744,-1.8851,-1.8946,-1.8999,-1.8987,-1.8987,-1.8987,-1.8987,-1.8987,-1.8987,-1.8987,-1.8987,-1.8987,-1.8987,-1.8987,-1.8987,-1.8987,0.7356,0.824,0.9189,1.0469,1.1006,1.1502,1.2383,1.2969,1.3441,1.3942,1.3621,1.2824,1.1319,1.0577,1.0006,0.9606,0.8679,0.7924,0.7752,0.7199,0.6744,0.6568,0.5862,0.5219,0.4814,0.4096,0.3589,0.3464,0.3337,0.2948,0.2224,0.2,0.1491,0.0572,-0.0133,-0.0805,-0.1389,-0.1876,-0.2368,-0.2912,-0.2912,-0.3129,-0.3609,-0.3785,-0.4395,-0.5308,-0.5534,-0.6112,-0.6829,-0.7091,-0.7407,-0.7792,-0.8489,-0.9145,-0.9666,-1.019,-1.0761,-1.1326,-1.1326,-1.1326,-1.1326,-1.1628,-1.1877,-1.2215,-1.3304,-1.3779,-1.4107,-1.4869,-1.5108,-1.5108,-1.5108,-1.5108,-1.5108,-1.5108,-1.5108,-1.5108,-1.5108,-1.5521,-1.5934,-1.6107,-1.6405,-1.6676,-1.6997,-1.6968,-1.7037,-1.7542,-1.7324,-1.7306,-1.8004,-1.784,-1.7748,-1.805,-1.8259,-1.8476,-1.8637,-1.8744,-1.8851,-1.8946,-1.8999,-1.8987,-1.8987,-1.8987,-1.8987,-1.8987,-1.8987,-1.8987,-1.8987,-1.8987,-1.8987,-1.8987,-1.8987,-1.8987,0.6967,0.7865,0.8677,0.9092,1.0191,1.132,1.1798,1.2407,1.3001,1.3341,1.3026,1.2236,1.0753,1.0981,1.0939,0.9536,0.8692,0.7996,0.7374,0.7025,0.6599,0.6058,0.5227,0.4574,0.4318,0.3467,0.2968,0.3072,0.2988,0.275,0.2415,0.1964,0.1426,0.0837,-0.0044,-0.076,-0.1387,-0.1876,-0.2368,-0.2912,-0.2912,-0.3129,-0.3609,-0.4096,-0.4661,-0.5308,-0.5798,-0.6293,-0.6823,-0.7091,-0.7472,-0.7949,-0.8567,-0.9145,-0.9666,-1.019,-1.0761,-1.1267,-1.1326,-1.1326,-1.1326,-1.1326,-1.1569,-1.2067,-1.2929,-1.3494,-1.3967,-1.4869,-1.5108,-1.5108,-1.5108,-1.5108,-1.5108,-1.5108,-1.5108,-1.5119,-1.5119,-1.551,-1.6074,-1.6531,-1.6585,-1.6905,-1.7912,-1.7714,-1.7553,-1.8015,-1.8084,-1.8084,-1.8084,-1.8084,-1.8084,-1.8084,-1.8259,-1.8422,-1.8422,-1.8637,-1.8798,-1.8798,-1.8946,-1.8987,-1.8987,-1.8987,-1.8987,-1.8987,-1.8987,-1.8987,-1.8987,-1.8987,-1.8987,-1.8987,-1.8987,-1.8987,0.6015,0.6814,0.7768,0.8792,0.9644,1.0433,1.13,1.2177,1.2665,1.2148,1.1949,1.1358,0.9684,0.9502,0.9353,0.87,0.8013,0.7491,0.7322,0.6686,0.6173,0.6009,0.5074,0.437,0.4304,0.3467,0.2968,0.3072,0.2988,0.275,0.2415,0.2258,0.1756,0.0838,0.0543,0.0,-0.0898,-0.1366,-0.1834,-0.2324,-0.2732,-0.3129,-0.3609,-0.3741,-0.4347,-0.5308,-0.5437,-0.588,-0.6568,-0.7012,-0.7472,-0.7949,-0.8567,-0.8876,-0.9145,-1.0035,-1.0506,-1.071,-1.1175,-1.1326,-1.1326,-1.1326,-1.1427,-1.1769,-1.2433,-1.3054,-1.3647,-1.4419,-1.4834,-1.5108,-1.5108,-1.5108,-1.5108,-1.5108,-1.5383,-1.5647,-1.5659,-1.6325,-1.7019,-1.7128,-1.7438,-1.7729,-1.8038,-1.7958,-1.7912,-1.8061,-1.8084,-1.8084,-1.8084,-1.8084,-1.8193,-1.841,-1.8518,-1.8625,-1.8786,-1.8893,-1.8946,-1.8946,-1.8999,-1.8987,-1.8987,-1.8987,-1.8987,-1.8987,-1.8987,-1.8987,-1.8987,-1.8987,-1.8987,-1.8987,-1.8987,-1.8987,0.5515,0.6235,0.7068,0.8125,0.8806,0.9557,1.054,1.1306,1.1664,1.1112,1.1012,1.0642,0.9322,0.9263,0.9196,0.8637,0.7903,0.7378,0.7305,0.6471,0.5835,0.5807,0.4856,0.4186,0.4061,0.3322,0.2852,0.294,0.2866,0.275,0.2539,0.2403,0.2028,0.1366,0.1187,0.0633,-0.0343,-0.0882,-0.1429,-0.2099,-0.264,-0.3043,-0.3347,-0.352,-0.4216,-0.5308,-0.5615,-0.594,-0.6334,-0.693,-0.7406,-0.785,-0.8528,-0.8778,-0.8935,-0.9984,-1.0403,-1.0506,-1.1065,-1.1326,-1.1326,-1.1326,-1.1368,-1.1519,-1.2178,-1.2667,-1.3208,-1.4129,-1.4605,-1.488,-1.5062,-1.5108,-1.5108,-1.5108,-1.5337,-1.5624,-1.5854,-1.652,-1.714,-1.7335,-1.7794,-1.8084,-1.8084,-1.8084,-1.8084,-1.8084,-1.8084,-1.8084,-1.8084,-1.8084,-1.8193,-1.8518,-1.856,-1.8667,-1.8893,-1.8999,-1.8987,-1.8987,-1.8987,-1.8987,-1.8987,-1.8987,-1.8987,-1.8987,-1.8987,-1.8987,-1.8987,-1.8987,-1.8987,-1.8987,-1.8987,-1.8987,0.5193,0.5873,0.6445,0.7121,0.7873,0.8749,0.9657,1.0013,1.0203,1.017,1.0218,1.0045,0.9468,0.9694,0.9722,0.8936,0.8032,0.7378,0.7277,0.6293,0.5584,0.551,0.4691,0.4005,0.3765,0.3167,0.2779,0.2746,0.2746,0.2746,0.2712,0.2419,0.2247,0.2207,0.183,0.119,0.0265,-0.0356,-0.1115,-0.2055,-0.2595,-0.2868,-0.2912,-0.3391,-0.4216,-0.5265,-0.6056,-0.6299,-0.6138,-0.6901,-0.7358,-0.767,-0.8508,-0.8771,-0.883,-0.9932,-1.0352,-1.0395,-1.1015,-1.1267,-1.1326,-1.1326,-1.1326,-1.1418,-1.2129,-1.2365,-1.2657,-1.3978,-1.4373,-1.4512,-1.4971,-1.5108,-1.5108,-1.5108,-1.5142,-1.5315,-1.5797,-1.6325,-1.683,-1.7289,-1.7794,-1.8084,-1.8084,-1.8084,-1.8084,-1.8084,-1.8084,-1.8084,-1.8084,-1.8084,-1.8205,-1.8367,-1.8518,-1.8667,-1.8798,-1.8946,-1.8987,-1.8987,-1.8987,-1.8987,-1.8987,-1.8987,-1.8987,-1.8987,-1.8987,-1.8987,-1.8987,-1.8987,-1.8987,-1.8987,-1.8987,-1.8987,0.4009,0.4856,0.5688,0.6216,0.7425,0.8672,0.9305,0.9416,0.9551,0.9956,0.9848,0.9538,0.9081,0.8631,0.8262,0.8071,0.7418,0.6937,0.6907,0.6093,0.5513,0.549,0.4705,0.4165,0.4081,0.3719,0.3364,0.3109,0.3076,0.2977,0.2716,0.2643,0.248,0.2205,0.2048,0.1582,0.0764,0.0132,-0.0626,0.0,-0.2057,-0.2504,-0.2912,-0.3391,-0.4001,-0.4831,-0.5927,-0.6299,-0.6138,-0.6901,-0.7358,-0.767,-0.8508,-0.8521,-0.8209,-0.9354,-0.9769,-0.9873,-1.0395,-1.0913,-1.1326,-1.1326,-1.1326,-1.1368,-1.176,-1.2089,-1.2609,-1.3505,-1.4093,-1.4512,-1.4971,-1.5108,-1.5108,-1.5108,-1.5429,-1.5762,-1.5902,-1.6577,-1.7243,-1.7358,-1.7794,-1.8084,-1.8084,-1.8084,-1.8084,-1.8084,-1.8084,-1.8084,-1.8084,-1.8084,-1.8205,-1.8367,-1.8518,-1.8667,-1.8798,-1.8946,-1.8987,-1.8987,-1.8987,-1.8987,-1.8987,-1.8987,-1.8987,-1.8987,-1.8987,-1.8987,-1.8987,-1.8987,-1.8987,-1.8987,-1.8987,-1.8987,0.3077,0.3912,0.4782,0.5641,0.6872,0.7929,0.8426,0.8834,0.9261,0.9779,0.9686,0.9289,0.8749,0.8341,0.7976,0.7634,0.7026,0.6602,0.6602,0.5848,0.53,0.53,0.4645,0.421,0.421,0.3914,0.3621,0.3462,0.3303,0.3208,0.3167,0.2878,0.2743,0.2806,0.258,0.2143,0.1555,0.075,-0.0045,-0.076,-0.1652,-0.237,-0.2912,-0.3476,-0.3953,-0.4308,-0.5313,-0.5777,-0.5968,-0.6607,-0.7085,-0.7493,-0.8456,-0.8415,-0.8055,-0.9197,-0.9614,-0.9666,-1.019,-1.0812,-1.1326,-1.1326,-1.1326,-1.1418,-1.1628,-1.1909,-1.2295,-1.3016,-1.36,-1.414,-1.4651,-1.4926,-1.5108,-1.5108,-1.5315,-1.559,-1.5831,-1.6486,-1.7094,-1.7335,-1.7794,-1.8084,-1.8084,-1.8084,-1.8084,-1.8084,-1.8084,-1.8084,-1.8084,-1.8084,-1.8205,-1.8367,-1.8464,-1.8572,-1.8798,-1.8851,-1.8946,-1.8987,-1.8987,-1.8987,-1.8987,-1.8987,-1.8987,-1.8987,-1.8987,-1.8987,-1.8987,-1.8987,-1.8987,-1.8987,-1.8987,-1.8987,0.2187,0.3018,0.3983,0.5208,0.6266,0.707,0.7502,0.8219,0.8933,0.9395,0.9407,0.9207,0.858,0.8317,0.7937,0.7324,0.6681,0.6268,0.6301,0.5605,0.5099,0.5099,0.4628,0.4307,0.4307,0.4043,0.3849,0.3779,0.3528,0.3462,0.3681,0.3228,0.3123,0.349,0.3147,0.2762,0.2322,0.1426,0.0624,0.0,-0.1429,-0.2324,-0.2776,-0.3473,-0.3778,-0.3822,-0.4657,-0.5178,-0.5517,-0.6222,-0.6713,-0.7206,-0.8242,-0.8362,-0.8002,-0.8942,-0.9354,-0.9562,-1.0087,-1.0651,-1.1167,-1.1276,-1.1368,-1.1528,-1.1678,-1.1769,-1.2017,-1.2628,-1.317,-1.3705,-1.428,-1.4743,-1.5108,-1.5108,-1.5108,-1.5234,-1.567,-1.6221,-1.675,-1.7163,-1.7737,-1.8084,-1.8084,-1.8084,-1.8084,-1.8084,-1.8084,-1.8084,-1.8084,-1.8084,-1.8139,-1.8313,-1.8367,-1.8476,-1.8744,-1.8798,-1.8851,-1.8987,-1.8987,-1.8987,-1.8987,-1.8987,-1.8987,-1.8987,-1.8987,-1.8987,-1.8987,-1.8987,-1.8987,-1.8987,-1.8987,-1.8987,0.1105,0.2234,0.3584,0.485,0.5828,0.661,0.6985,0.7552,0.8031,0.8187,0.8779,0.915,0.8862,0.7881,0.7036,0.6901,0.6149,0.5705,0.5918,0.5474,0.5099,0.5099,0.4864,0.471,0.471,0.4678,0.4511,0.4145,0.4081,0.3946,0.3714,0.3825,0.3818,0.3575,0.3566,0.3227,0.246,0.2099,0.125,0.0,-0.1429,-0.2144,-0.2235,-0.2946,-0.33,-0.3344,-0.4482,-0.4792,-0.4609,-0.594,-0.6519,-0.6666,-0.7633,-0.7955,-0.7901,-0.8055,-0.8468,-0.8988,-0.951,-1.0079,-1.0608,-1.1124,-1.1368,-1.1528,-1.1678,-1.1769,-1.2017,-1.2628,-1.317,-1.3705,-1.428,-1.4743,-1.5108,-1.5108,-1.5108,-1.5131,-1.52,-1.5957,-1.6596,-1.6715,-1.7443,-1.8084,-1.8084,-1.8084,-1.8084,-1.8084,-1.8084,-1.8084,-1.8084,-1.8084,-1.8084,-1.815,-1.8313,-1.8464,-1.8614,-1.8732,-1.8851,-1.8987,-1.8987,-1.8987,-1.8987,-1.8987,-1.8987,-1.8987,-1.8987,-1.8987,-1.8987,-1.8987,-1.8987,-1.8987,-1.8987,-1.8987,0.079,0.1886,0.3044,0.3681,0.4873,0.6016,0.6197,0.6767,0.733,0.7728,0.7915,0.7916,0.7788,0.7211,0.6599,0.6135,0.5741,0.5491,0.5446,0.5257,0.5074,0.4953,0.487,0.4812,0.4812,0.4812,0.4742,0.4543,0.4339,0.4296,0.4537,0.4266,0.415,0.4227,0.3878,0.3458,0.2993,0.2413,0.1383,0.0,-0.0892,-0.1606,-0.2144,-0.2857,-0.3344,-0.3605,-0.4052,-0.4403,-0.478,-0.5704,-0.6277,-0.6569,-0.7535,-0.7901,-0.7901,-0.7901,-0.8262,-0.8883,-0.9406,-0.9932,-1.0506,-1.1116,-1.1368,-1.1528,-1.1678,-1.1769,-1.1977,-1.2304,-1.2977,-1.3668,-1.3905,-1.4501,-1.5108,-1.5108,-1.5108,-1.5108,-1.5108,-1.5911,-1.6795,-1.7306,-1.7787,-1.8084,-1.8084,-1.8084,-1.8084,-1.8084,-1.8084,-1.8084,-1.8084,-1.8084,-1.8084,-1.8084,-1.8205,-1.8302,-1.856,-1.8963,-1.9119,-1.9011,-1.9263,-1.93,-1.8999,-1.8987,-1.8987,-1.8987,-1.8987,-1.8987,-1.8987,-1.8987,-1.8987,-1.8999,-1.93,-1.9275,0.0435,0.1322,0.2136,0.2479,0.377,0.4981,0.5086,0.5678,0.634,0.6778,0.6521,0.6231,0.6202,0.6269,0.6094,0.5391,0.5169,0.5042,0.4877,0.4814,0.4756,0.4678,0.4716,0.4716,0.4716,0.478,0.4812,0.4812,0.4511,0.4614,0.5154,0.4662,0.4505,0.4752,0.4252,0.3798,0.3439,0.2546,0.1518,0.0358,-0.0223,-0.1026,-0.1921,-0.2546,-0.3164,-0.3737,-0.3619,-0.4016,-0.4692,-0.5472,-0.5985,-0.6423,-0.7483,-0.7901,-0.7901,-0.7901,-0.8209,-0.8672,-0.9354,-0.9873,-1.0344,-1.1065,-1.1418,-1.1578,-1.1678,-1.1828,-1.1977,-1.2076,-1.2803,-1.3621,-1.3621,-1.4362,-1.5108,-1.5108,-1.5108,-1.5177,-1.5441,-1.6095,-1.6882,-1.789,-1.8084,-1.8084,-1.8084,-1.8084,-1.8084,-1.8084,-1.8084,-1.8084,-1.8084,-1.8084,-1.8084,-1.8084,-1.8199,-1.8444,-1.8771,-1.9253,-1.9447,-1.9227,-1.9564,-1.954,-1.9011,-1.8987,-1.8987,-1.8987,-1.8987,-1.8987,-1.8987,-1.8987,-1.8987,-1.8999,-1.9396,-1.9372,-0.0422,0.016,0.0644,0.16,0.2559,0.3309,0.3714,0.4275,0.4665,0.4603,0.4422,0.4291,0.4344,0.4994,0.5353,0.4758,0.4264,0.4048,0.4205,0.4081,0.4053,0.4312,0.4452,0.4523,0.4523,0.4684,0.4812,0.4812,0.4774,0.4889,0.5189,0.5178,0.5083,0.4888,0.481,0.4395,0.3609,0.2586,0.1832,0.1299,0.0403,-0.0536,-0.1433,-0.1743,-0.2364,-0.3258,-0.349,-0.3622,-0.378,-0.5234,-0.5795,-0.5982,-0.7379,-0.7901,-0.7901,-0.7901,-0.7901,-0.8109,-0.9197,-0.9614,-0.9821,-1.0964,-1.1477,-1.1669,-1.1728,-1.1877,-1.2076,-1.2076,-1.2803,-1.3621,-1.3621,-1.4362,-1.5108,-1.5108,-1.5108,-1.5372,-1.6336,-1.6539,-1.6882,-1.789,-1.8084,-1.8084,-1.8084,-1.8084,-1.8084,-1.8084,-1.8084,-1.8084,-1.8084,-1.8084,-1.8084,-1.8084,-1.8563,-1.8975,-1.9336,-1.9794,-1.9968,-1.9768,-1.9756,-1.954,-1.9011,-1.8987,-1.8987,-1.8987,-1.8987,-1.8987,-1.8987,-1.8987,-1.8987,-1.8987,-1.9023,-1.9011,-0.1903,-0.1097,-0.0275,0.0111,0.1393,0.2556,0.2688,0.3382,0.4029,0.4124,0.4122,0.4094,0.4127,0.4256,0.4248,0.3994,0.3775,0.3723,0.3983,0.3788,0.3761,0.4021,0.3923,0.3923,0.4091,0.4183,0.435,0.4644,0.4892,0.5256,0.5687,0.5719,0.5688,0.5602,0.5101,0.4364,0.3483,0.3126,0.2591,0.1834,0.0893,0.0134,-0.0537,-0.1383,-0.2144,-0.2771,-0.3037,-0.3306,-0.3684,-0.4996,-0.5663,-0.5917,-0.7189,-0.7798,-0.7901,-0.7901,-0.7901,-0.8055,-0.9197,-0.9614,-0.9769,-1.0905,-1.1427,-1.1578,-1.1669,-1.1828,-1.1977,-1.2076,-1.2598,-1.317,-1.3515,-1.4129,-1.4743,-1.5017,-1.488,-1.4933,-1.5907,-1.6405,-1.683,-1.7519,-1.7921,-1.8084,-1.8084,-1.7788,-1.749,-1.749,-1.749,-1.749,-1.749,-1.7854,-1.8084,-1.8084,-1.8244,-1.8596,-1.9144,-1.9772,-2.0157,-2.0115,-2.0241,-2.0069,-1.9516,-1.9167,-1.8987,-1.8987,-1.8987,-1.8987,-1.8987,-1.8987,-1.8987,-1.8999,-1.9336,-1.9312,-0.272,-0.2065,-0.1284,-0.1061,0.0112,0.1282,0.1563,0.2245,0.2913,0.3113,0.3176,0.3265,0.3413,0.3245,0.3169,0.3292,0.3219,0.3233,0.3397,0.3266,0.3266,0.3528,0.3467,0.3499,0.3761,0.3927,0.4165,0.4568,0.5039,0.0,0.5967,0.5911,0.5821,0.5653,0.5014,0.432,0.3571,0.3442,0.2948,0.2099,0.1294,0.0625,-0.0045,-0.0939,-0.1743,-0.2504,-0.2588,-0.2993,-0.3684,-0.476,-0.5467,-0.5922,-0.703,-0.7635,-0.7901,-0.7901,-0.7901,-0.8055,-0.8988,-0.9458,-0.9769,-1.0702,-1.1267,-1.1578,-1.1669,-1.1828,-1.1977,-1.2076,-1.2452,-1.2861,-1.3266,-1.3752,-1.4233,-1.4501,-1.4512,-1.4565,-1.5227,-1.593,-1.6577,-1.7255,-1.7656,-1.7824,-1.782,-1.749,-1.7146,-1.6922,-1.6922,-1.6978,-1.7146,-1.7556,-1.7909,-1.8084,-1.8233,-1.8473,-1.8771,-1.946,-1.9866,-1.9784,-1.991,-1.9856,-1.954,-1.9179,-1.8987,-1.8987,-1.8987,-1.8987,-1.8987,-1.8987,-1.8987,-1.8999,-1.936,-1.9324,0.0,0.0,0.0,-0.1845,-0.1229,-0.0559,0.0168,0.0839,0.1273,0.1338,0.1392,0.1488,0.1963,0.2004,0.212,0.2557,0.2546,0.249,0.2523,0.249,0.2586,0.2849,0.3055,0.3257,0.3554,0.3936,0.4277,0.4565,0.5213,0.5724,0.5985,0.5757,0.5421,0.5024,0.4631,0.4232,0.388,0.3571,0.2993,0.2099,0.1611,0.0895,0.0,-0.0269,-0.1166,-0.246,-0.2237,-0.2684,-0.3653,-0.4518,-0.5247,-0.5893,-0.6733,-0.7408,-0.7901,-0.7901,-0.7901,-0.8002,-0.8567,-0.9145,-0.9666,-1.0241,-1.1015,-1.1728,-1.1728,-1.1877,-1.2076,-1.2076,-1.2452,-1.2764,-1.2812,-1.317,-1.3563,-1.3621,-1.3999,-1.4373,-1.4373,-1.5193,-1.6176,-1.7163,-1.7369,-1.7361,-1.7236,-1.7146,-1.6922,-1.6358,-1.6255,-1.6472,-1.709,-1.7202,-1.7435,-1.803,-1.8575,-1.8692,-1.828,-1.8784,-1.905,-1.8748,-1.8805,-1.8911,-1.8982,-1.8999,-1.8987,-1.8987,-1.8987,-1.8987,-1.8987,-1.8987,-1.8987,-1.8987,-1.8987,-1.8987,-0.407,0.0,0.0,0.0,0.0,0.0,-0.1174,-0.0494,0.0162,0.0606,0.0721,0.0774,0.0936,0.0905,0.0869,0.1008,0.1856,0.2552,0.2744,0.2331,0.2216,0.2816,0.248,0.244,0.3042,0.3418,0.38,0.0,0.4932,0.563,0.6169,0.6145,0.5758,0.5029,0.4898,0.4543,0.3924,0.3792,0.3214,0.2099,0.1611,0.1074,0.0492,-0.0135,-0.0986,-0.2014,-0.2215,-0.2848,-0.3787,-0.4388,-0.5158,-0.6025,-0.6566,-0.7256,-0.7901,-0.7901,-0.7901,-0.8002,-0.8567,-0.9145,-0.9718,-1.0344,-1.1065,-1.1728,-1.1828,-1.1977,-1.2076,-1.2076,-1.2166,-1.2353,-1.2716,-1.2909,-1.3112,-1.3515,-1.3716,-1.38,-1.38,-1.4611,-1.5624,-1.6635,-1.6755,-1.6828,-1.7125,-1.6472,-1.5864,-1.569,-1.5633,-1.5864,-1.6472,-1.6922,-1.7435,-1.803,-1.821,-1.8439,-1.868,-1.8667,-1.8789,-1.905,-1.8942,-1.8906,-1.8934,-1.8964,-1.8987,-1.8987,-1.8987,-1.8987,-1.8987,-1.8987,-1.8987,-1.8987,-1.8987,-1.8987,-0.4519,-0.4239,-0.3904,-0.368,0.0,0.0,-0.2178,-0.1705,-0.1194,-0.0547,-0.036,-0.0243,0.0049,0.0091,0.0086,0.0086,0.0753,0.1506,0.2084,0.1761,0.1683,0.2112,0.1761,0.18,0.2542,0.2866,0.3333,0.4033,0.4812,0.546,0.6027,0.6033,0.5744,0.5029,0.499,0.4723,0.41,0.3972,0.3388,0.2364,0.17,0.1119,0.0582,-0.009,-0.0941,-0.1925,-0.2242,-0.2971,-0.3938,-0.4488,-0.5227,-0.6056,-0.6363,-0.7067,-0.7901,-0.7901,-0.7901,-0.7955,-0.8315,-0.8988,-0.9762,-1.0131,-1.0947,-1.1778,-1.1877,-1.1977,-1.2076,-1.2076,-1.2076,-1.2175,-1.2452,-1.2491,-1.2589,-1.289,-1.3276,-1.3621,-1.3621,-1.4222,-1.5034,-1.5808,-1.6074,-1.6213,-1.6423,-1.5864,-1.5303,-1.5079,-1.502,-1.5352,-1.6197,-1.6585,-1.7157,-1.803,-1.8084,-1.8034,-1.7844,-1.7785,-1.7791,-1.7809,-1.7838,-1.8014,-1.854,-1.8581,-1.8762,-1.8987,-1.8987,-1.8987,-1.8987,-1.8987,-1.8987,-1.8987,-1.8987,-1.8987,-0.4519,-0.4519,-0.4349,-0.3849,-0.3683,0.0,-0.2998,-0.2821,-0.2625,-0.1909,-0.1785,-0.1571,-0.0904,-0.0777,-0.0799,-0.0753,-0.0664,-0.0259,0.0802,0.0872,0.0872,0.0913,0.0953,0.1229,0.1942,0.2306,0.2906,0.3863,0.4678,0.5255,0.5524,0.5653,0.5448,0.4941,0.4985,0.481,0.4364,0.4056,0.3432,0.2541,0.1787,0.1074,0.0403,-0.0135,-0.0989,-0.2027,-0.2303,-0.3029,-0.4056,-0.4765,-0.5405,-0.6048,-0.624,-0.6972,-0.7901,-0.7901,-0.7901,-0.7901,-0.7901,-0.8732,-0.9814,-0.9814,-1.0795,-1.1877,-1.1927,-1.2026,-1.2076,-1.2076,-1.2076,-1.2076,-1.2076,-1.2076,-1.2076,-1.2076,-1.2842,-1.3515,-1.3515,-1.3952,-1.4398,-1.4769,-1.5184,-1.5447,-1.5367,-1.5323,-1.5128,-1.4565,-1.4515,-1.4911,-1.6026,-1.6255,-1.6765,-1.7854,-1.803,-1.7567,-1.6472,-1.656,-1.6457,-1.5931,-1.614,-1.681,-1.7929,-1.8038,-1.8375,-1.8987,-1.8987,-1.8987,-1.8987,-1.8987,-1.8987,-1.8987,-1.8987,-1.8987,-0.4625,-0.4519,-0.446,-0.4349,-0.4349,0.0,-0.3818,-0.3761,-0.3622,-0.3279,-0.3482,-0.3618,-0.3059,-0.3191,-0.3274,-0.2885,-0.2394,-0.1628,-0.0303,-0.0434,-0.0521,-0.0173,-0.0087,0.013,0.0781,0.1837,0.2639,0.2947,0.4314,0.4952,0.4666,0.5313,0.5356,0.4543,0.481,0.4679,0.4012,0.3924,0.3123,0.1655,0.1478,0.0896,-0.009,-0.0314,-0.105,-0.2164,-0.2443,-0.3145,-0.4164,-0.4466,-0.5229,-0.6206,-0.6735,-0.73,-0.7901,-0.7901,-0.7901,-0.7901,-0.8062,-0.889,-0.9814,-1.0064,-1.0939,-1.1927,-1.2026,-1.2076,-1.2076,-1.2076,-1.2076,-1.2076,-1.2076,-1.2076,-1.2076,-1.2076,-1.254,-1.2967,-1.2967,-1.3362,-1.3728,-1.3709,-1.4034,-1.4429,-1.4841,-1.4782,-1.4625,-1.4515,-1.4515,-1.4734,-1.5468,-1.6026,-1.6585,-1.7324,-1.7379,-1.7257,-1.7034,-1.6436,-1.6046,-1.5931,-1.614,-1.6641,-1.7368,-1.7809,-1.8375,-1.8987,-1.8987,-1.8987,-1.8987,-1.8987,-1.8987,-1.8987,-1.8987,-1.8987,-0.5445,-0.5336,-0.5336,-0.5336,-0.5336,0.0,0.0,-0.5004,-0.4825,-0.4502,-0.4439,-0.4323,-0.4133,-0.4145,-0.4208,-0.4212,-0.3942,-0.3494,-0.278,-0.2033,-0.1482,-0.1321,-0.1279,-0.0947,-0.0142,0.0568,0.1371,0.2367,0.3658,0.443,0.4435,0.4947,0.5169,0.5009,0.5204,0.5014,0.4404,0.4213,0.3327,0.1748,0.1569,0.0869,-0.0315,-0.0367,-0.1076,-0.2289,-0.252,-0.3234,-0.426,-0.4725,-0.5226,-0.5828,-0.6426,-0.6972,-0.7521,-0.7788,-0.7955,-0.8115,-0.8474,-0.919,-1.0064,-1.0466,-1.1242,-1.2026,-1.2076,-1.2076,-1.2076,-1.2076,-1.2076,-1.2076,-1.2076,-1.2076,-1.2076,-1.2076,-1.2442,-1.2812,-1.2812,-1.3016,-1.3182,-1.3105,-1.324,-1.3578,-1.4259,-1.4277,-1.4268,-1.4478,-1.4515,-1.4734,-1.5294,-1.5633,-1.6197,-1.709,-1.7202,-1.709,-1.6754,-1.6503,-1.6114,-1.5488,-1.569,-1.6255,-1.7146,-1.7479,-1.8093,-1.8987,-1.8987,-1.8987,-1.8987,-1.8987,-1.8987,-1.8987,-1.8987,-1.8987,-0.6209,-0.6209,-0.6209,-0.6209,-0.6209,-0.6199,0.0,0.0,0.0,-0.5627,-0.5254,-0.4927,-0.4837,-0.475,-0.4783,-0.5091,-0.5135,-0.5154,-0.515,-0.3785,-0.282,-0.282,-0.2634,-0.2192,-0.1352,-0.0847,0.0149,0.1952,0.2901,0.3608,0.4038,0.4514,0.4896,0.53,0.5408,0.5256,0.4808,0.4462,0.3501,0.2009,0.1716,0.0894,-0.0415,-0.0425,-0.1153,-0.2439,-0.2534,-0.3247,-0.4297,-0.4899,-0.5222,-0.5386,-0.6095,-0.6647,-0.7192,-0.7735,-0.8062,-0.8268,-0.8883,-0.9547,-1.0269,-1.0872,-1.1551,-1.2076,-1.2076,-1.2076,-1.2076,-1.2076,-1.2076,-1.2076,-1.2076,-1.2076,-1.2076,-1.2076,-1.2403,-1.2677,-1.2764,-1.2716,-1.2677,-1.2764,-1.2733,-1.2954,-1.3644,-1.3837,-1.4029,-1.4451,-1.4515,-1.4684,-1.5186,-1.5362,-1.5806,-1.6754,-1.6978,-1.6866,-1.6358,-1.6503,-1.6239,-1.5254,-1.5303,-1.5911,-1.6978,-1.7257,-1.782,-1.8827,-1.8934,-1.8934,-1.8827,-1.8934,-1.8987,-1.8987,-1.8987,-1.8987,-0.6317,-0.6209,-0.6209,-0.6209,-0.6209,-0.6269,-0.6561,0.0,-0.6616,-0.6614,0.0,-0.6361,-0.5684,0.0,0.0,-0.5696,-0.5658,-0.5733,-0.5808,-0.5743,-0.5535,-0.5107,-0.4174,-0.3614,-0.359,-0.1795,0.0,0.1447,0.2078,0.2405,0.2449,0.3781,0.4428,0.42,0.4705,0.4808,0.4462,0.4065,0.3105,0.1647,0.1495,0.0772,-0.0398,-0.0532,-0.1286,-0.2567,-0.2588,-0.3289,-0.4494,-0.4567,-0.4846,-0.5386,-0.6534,-0.7025,-0.7192,-0.7895,-0.8168,-0.8321,-0.9099,-0.971,-1.032,-1.1006,-1.1619,-1.2076,-1.2076,-1.2076,-1.2076,-1.2076,-1.2076,-1.2076,-1.2076,-1.2076,-1.2076,-1.2076,-1.2126,-1.2304,-1.2716,-1.2491,-1.2314,-1.2725,-1.2733,-1.2862,-1.3277,-1.3653,-1.4029,-1.4451,-1.4515,-1.4506,-1.4565,-1.5196,-1.5584,-1.5584,-1.6218,-1.656,-1.6312,-1.6093,-1.5931,-1.5816,-1.5526,-1.569,-1.6358,-1.7424,-1.8038,-1.8201,-1.8709,-1.8709,-1.8201,-1.8762,-1.8987,-1.8987,-1.8987,-1.8987,-0.7246,-0.7498,-0.77,-0.7295,-0.7498,-0.7729,-0.7436,-0.7189,-0.7101,-0.7521,0.0,0.0,0.0,0.0,0.0,0.0,-0.6761,-0.6715,-0.7088,-0.6978,-0.6708,-0.6154,-0.5702,0.0,-0.4292,-0.2474,-0.1077,-0.0584,0.0354,0.1154,0.1645,0.2715,0.3655,0.4267,0.4537,0.4537,0.427,0.3682,0.2801,0.1609,0.1073,0.0354,-0.0504,-0.0609,-0.1343,-0.2601,-0.2653,-0.3359,-0.4519,-0.4519,-0.4791,-0.5386,-0.6263,-0.681,-0.7192,-0.7949,-0.8427,-0.8896,-0.9607,-1.0277,-1.0947,-1.1569,-1.1927,-1.2076,-1.2076,-1.2076,-1.2076,-1.2076,-1.2076,-1.2076,-1.2076,-1.2076,-1.2076,-1.2076,-1.2076,-1.2166,-1.2353,-1.2264,-1.2175,-1.2353,-1.254,-1.2853,-1.3222,-1.3616,-1.4029,-1.4451,-1.4515,-1.4515,-1.4515,-1.4803,-1.5079,-1.5478,-1.6104,-1.6389,-1.5921,-1.6208,-1.6093,-1.5235,-1.5584,-1.6093,-1.681,-1.7313,-1.7754,-1.8093,-1.7984,-1.7984,-1.8093,-1.8375,-1.8655,-1.8987,-1.8987,-1.8987,-0.7955,-0.8415,-0.8823,-0.8109,-0.8315,-0.8547,-0.7958,-0.7599,-0.753,-0.8069,-0.7776,0.0,0.0,0.0,-0.808,-0.8047,0.0,-0.7735,-0.7946,-0.7904,-0.7701,-0.7291,-0.7091,-0.636,0.0,-0.3475,-0.2586,-0.2355,-0.1361,-0.0365,0.0609,0.1521,0.2549,0.3674,0.3788,0.3732,0.3619,0.2952,0.2149,0.1239,0.0641,0.0,-0.0624,-0.0845,-0.1602,-0.2638,-0.2872,-0.3516,-0.4519,-0.468,-0.5062,-0.5605,-0.6258,-0.6864,-0.7461,-0.8055,-0.8586,-0.9152,-0.9814,-1.0592,-1.1377,-1.1769,-1.1977,-1.2076,-1.2076,-1.2076,-1.2076,-1.2076,-1.2076,-1.2076,-1.2076,-1.2076,-1.2076,-1.2076,-1.2076,-1.2076,-1.2076,-1.2076,-1.2104,-1.2214,-1.2614,-1.2965,-1.3387,-1.3699,-1.4029,-1.4451,-1.4515,-1.4506,-1.4565,-1.4565,-1.4793,-1.5371,-1.5989,-1.6151,-1.57,-1.6208,-1.6083,-1.4893,-1.5478,-1.6151,-1.6922,-1.6978,-1.7146,-1.7589,-1.7313,-1.7424,-1.7863,-1.8038,-1.8429,-1.8987,-1.8987,-1.8987,-0.8109,-0.8415,-0.8823,-0.8109,-0.7901,-0.7882,-0.7668,-0.775,-0.7936,-0.818,-0.8407,-0.8693,-0.9082,-0.9151,-0.9042,-0.8627,-0.866,0.0,0.0,-0.8561,-0.8956,-0.8936,-0.8282,-0.7244,-0.56,-0.5109,-0.445,0.0,-0.2894,-0.2191,-0.1059,0.0111,0.1054,0.1671,0.195,0.2062,0.2062,0.1619,0.1062,0.0448,0.0325,-0.0054,-0.0726,-0.1349,-0.2054,-0.2732,-0.3292,-0.3904,-0.4519,-0.5062,-0.5609,-0.6263,-0.6966,-0.7616,-0.8168,-0.8321,-0.8474,-0.8732,-0.9406,-1.0336,-1.1326,-1.1326,-1.1678,-1.2076,-1.2076,-1.2076,-1.2076,-1.2076,-1.2076,-1.2076,-1.2076,-1.2076,-1.2076,-1.2076,-1.2076,-1.2076,-1.2076,-1.2076,-1.2236,-1.2623,-1.2984,-1.3406,-1.38,-1.3873,-1.4029,-1.4451,-1.4515,-1.4565,-1.4656,-1.4715,-1.4784,-1.497,-1.5536,-1.5931,-1.5874,-1.5931,-1.571,-1.5215,-1.5215,-1.5546,-1.6312,-1.6301,-1.6358,-1.6358,-1.6922,-1.7202,-1.7257,-1.782,-1.8429,-1.8987,-1.8987,-1.8987,0.0,0.0,-0.973,-0.8947,0.0,-0.8665,-0.8317,-0.8026,-0.8105,-0.8982,-0.9112,-0.9292,-0.9959,-1.0075,-0.9947,-0.9624,-0.9349,-0.9181,0.0,-0.9567,-0.9769,-0.9518,-0.8913,-0.814,-0.7162,-0.6459,-0.5878,-0.5524,-0.4462,0.0,-0.2329,-0.1168,0.0,0.1116,0.1228,0.134,0.1509,0.0894,0.0447,0.028,-0.0277,-0.061,-0.0841,-0.1494,-0.2101,-0.2736,-0.3347,-0.3959,-0.4519,-0.5062,-0.571,-0.6416,-0.7069,-0.7771,-0.8474,-0.8521,-0.8784,-0.9309,-1.0336,-1.0964,-1.1377,-1.1719,-1.1977,-1.2076,-1.2076,-1.2076,-1.2076,-1.2076,-1.2076,-1.2076,-1.2076,-1.2076,-1.2076,-1.2076,-1.2076,-1.2076,-1.2076,-1.2328,-1.2558,-1.2687,-1.3213,-1.3727,-1.3864,-1.4112,-1.435,-1.4488,-1.4515,-1.4506,-1.4556,-1.4666,-1.4775,-1.497,-1.5594,-1.5884,-1.5488,-1.5245,-1.5069,-1.5088,-1.5098,-1.543,-1.6255,-1.5921,-1.5911,-1.6312,-1.6083,-1.6415,-1.7202,-1.7424,-1.8038,-1.8987,-1.8987,-1.8987,-0.9263,-0.9737,0.0,-0.9269,-0.9052,0.0,-0.8808,-0.854,-0.8638,-0.9611,-0.9864,-1.0047,-1.0543,-1.075,-1.0723,-1.0234,-0.9922,-0.9705,0.0,-0.9944,-1.0008,-0.971,-0.9316,-0.8852,-0.8299,-0.7517,-0.7014,-0.6873,-0.5667,-0.4541,0.0,-0.2559,-0.1395,-0.0112,-0.0056,0.0112,0.0503,0.0056,-0.0168,-0.0224,-0.0672,-0.1009,-0.1232,-0.1846,-0.2458,-0.307,-0.368,-0.4184,-0.4629,-0.5386,-0.5982,-0.6578,-0.7444,-0.809,-0.8626,-0.8626,-0.8837,-0.9316,-1.0344,-1.0804,-1.1057,-1.1619,-1.1927,-1.2076,-1.2076,-1.2076,-1.2076,-1.2076,-1.2076,-1.2076,-1.2076,-1.2076,-1.2076,-1.2076,-1.2076,-1.2162,-1.23,-1.2531,-1.2798,-1.3092,-1.3525,-1.3928,-1.4084,-1.4332,-1.4515,-1.4515,-1.4515,-1.4506,-1.4556,-1.4616,-1.4725,-1.5039,-1.543,-1.5546,-1.5215,-1.5029,-1.4902,-1.5039,-1.5088,-1.5371,-1.5968,-1.5633,-1.5575,-1.5968,-1.5584,-1.5968,-1.7202,-1.7202,-1.782,-1.8987,-1.8987,-1.8987]}]]